     2.11           OBSERVATION DATA    G (GPS)             RINEX VERSION / TYPE
teqc 2010Oct21 OPUS Account 20111026 20:42:09UTC            PGM / RUN BY / DATE
Q 1523                                                      MARKER NAME
1195                                                        MARKER NUMBER
CSMIDDLETON NGS                                             OBSERVER / AGENCY
4624K01584 TRIMBLE NETR5 4.41                               REC # / TYPE / VERS
60177755 TRM41249.00 NONE                                   ANT # / TYPE
  -751951.6881 -5515789.5092  3102805.3857                  APPROX POSITION XYZ
        2.0000        0.0000        0.0000                  ANTENNA: DELTA H/E/N
     1     1                                                WAVELENGTH FACT L1/2
     5    L1    L2    C1    P1    P2                        # / TYPES OF OBSERV
    15                                                      LEAP SECONDS
  2011     8    10    17    45   30.0000000     GPS         TIME OF FIRST OBS
                                                            END OF HEADER
 11  8 10 17 45 30.0000000  0 12G01G10G06G19G11G08G07G03G16G28G13G23
 130581065.24216 101751509.98016  24848752.961                    24848766.520
 129630268.18716 101010652.84353  24667822.156                    24667833.707
 128848700.65316 100401650.65153  24519099.648                    24519109.281
 110948180.18718  86453153.61856  21112737.516                    21112743.668
 122308243.72917  95305165.75854  23274485.469                    23274495.672
 118748145.05317  92531056.90155  22597020.648                    22597029.762
 110491875.77218  86097599.89217  21025905.203                    21025912.781
 118331645.68317  92206488.33454  22517760.219                    22517769.949
 132079430.34616 102919079.04552  25133880.305                    25133890.938
 122939420.53917  95796989.79354  23394593.992                    23394602.938
 108373631.37118  84447014.36056  20622816.250                    20622824.008
 116367432.95917  90675951.48155  22143986.453                    22143993.969
 11  8 10 17 46  0.0000000  0 13G24G01G10G06G19G11G08G07G03G16G28G13
                                G23
 130182537.50616 101441003.40453  24772913.945                    24772930.219
 130547543.258 6 101725388.948 6  24842374.383                    24842387.691
 129683716.967 6 101052301.09843  24677993.828                    24678005.125
 128947195.175 6 100478399.54243  24537842.734                    24537852.824
 110981731.459 8  86479297.45346  21119121.984                    21119128.184
 122231596.085 7  95245440.41544  23259899.742                    23259909.965
 118675797.835 7  92474682.44645  22583254.164                    22583262.410
 110446800.708 8  86062476.472 7  21017327.813                    21017335.164
 118424708.161 6  92279004.47944  22535469.820                    22535478.883
 132164047.065 6 102985014.09142  25149982.977                    25149992.738
 122888053.665 7  95756963.69744  23384818.570                    23384828.266
 108433472.644 8  84493643.89046  20634203.938                    20634211.016
 116468449.902 8  90754665.87645  22163209.734                    22163217.477
 11  8 10 17 46 30.0000000  0 13G24G01G10G06G19G11G08G07G03G16G28G13
                                G23
 130111755.674 6 101385848.94342  24759444.563                    24759460.578
 130514353.091 6 101699526.506 6  24836058.336                    24836071.520
 129737354.455 6 101094096.41643  24688201.484                    24688212.367
 129045864.574 6 100555284.73943  24556618.328                    24556628.328
 111015868.869 7  86505898.02846  21125618.055                    21125624.473
 122155074.160 7  95185813.00744  23245337.875                    23245348.559
 118603452.058 7  92418309.11045  22569486.734                    22569495.172
 110401900.049 8  86027488.958 7  21008783.570                    21008790.586
 118518093.862 7  92351772.50144  22553240.461                    22553249.680
 132248556.614 6 103050865.67143  25166064.750                    25166074.262
 122836892.779 7  95717098.13444  23375083.602                    23375093.148
 108493836.349 8  84540680.50646  20645690.719                    20645698.527
 116569748.717 7  90833599.89545  22182486.063                    22182493.754
 11  8 10 17 47  0.0000000  0 13G24G01G10G06G19G11G08G07G03G16G28G13
                                G23
 130040833.655 6 101330585.25242  24745947.859                    24745964.379
 130481497.702 6 101673924.925 6  24829806.508                    24829819.973
 129791178.181 6 101136036.90543  24698443.102                    24698455.355
 129144706.573 6 100632304.38443  24575427.555                    24575437.559
 111050591.391 8  86532954.51746  21132225.477                    21132231.859
 122078681.159 7  95126286.06244  23230801.055                    23230811.887
 118531108.998 7  92361937.90545  22555720.367                    22555729.395
 110357176.152 8  85992639.172 7  21000272.969                    21000280.004
 118611800.580 7  92424790.66544  22571072.383                    22571081.719
 132332959.354 6 103116633.99143  25182125.906                    25182135.973
 122785937.971 7  95677393.10744  23365387.227                    23365396.621
 108554721.400 8  84588123.37246  20657276.711                    20657284.355
 116671326.847 7  90912751.57145  22201815.602                    22201823.320
 11  8 10 17 47 30.0000000  0 12G01G10G06G19G11G08G07G03G16G28G13G23
 130448978.061 6 101648584.926 6  24823618.070                    24823632.094
 129845184.140 6 101178119.38943  24708720.375                    24708731.805
 129243717.709 6 100709455.84543  24594270.133                    24594279.176
 111085896.855 8  86560465.25146  21138944.219                    21138949.891
 122002419.227 7  95066861.26544  23216288.734                    23216299.555
 118458768.836 7  92305568.97345  22541954.195                    22541963.547
 110312629.452 8  85957927.465 7  20991795.852                    20991803.039
 118705824.074 6  92498055.65844  22588964.898                    22588973.547
 132417253.297 5 103182317.54142  25198166.578                    25198176.492
 122735187.321 7  95637847.19144  23355729.563                    23355739.156
 108616124.511 8  84635969.90946  20668961.266                    20668969.141
 116773180.769 7  90992118.15445  22221197.875                    22221205.523
 11  8 10 17 48  0.0000000  0 12G01G10G06G19G11G08G07G03G16G28G13G23
 130416798.075 6 101623509.607 6  24817494.305                    24817507.773
 129899371.204 6 101220342.95742  24719032.406                    24719043.027
 129342897.093 6 100786738.43843  24613143.016                    24613151.957
 111121785.366 8  86588430.31846  21145773.242                    21145779.375
 121926292.814 7  95007542.03644  23201802.586                    23201812.852
 118386434.582 7  92249204.62845  22528189.297                    22528198.543
 110268263.119 8  85923356.306 7  20983352.805                    20983360.820
 118800162.902 7  92571566.35544  22606916.641                    22606926.313
 132501439.530 6 103247917.15242  25214187.555                    25214196.074
 122684642.121 7  95598461.36744  23346111.305                    23346120.926
 108678045.414 8  84684219.92546  20680744.516                    20680752.176
 116875309.110 7  91071698.54845  22240632.430                    22240640.383
 11  8 10 17 48 30.0000000  0 12G01G10G06G19G11G08G07G03G16G28G13G23
 130384959.844 6 101598700.592 6  24811436.086                    24811449.391
 129953736.455 6 101262705.46742  24729377.070                    24729389.148
 129442242.085 6 100864150.03443  24632047.484                    24632056.801
 111158255.023 8  86616848.21646  21152713.320                    21152719.340
 121850305.295 7  94948331.06044  23187342.383                    23187353.219
 118314107.231 7  92192845.66745  22514425.875                    22514435.133
 110224078.872 8  85888927.027 7  20974945.523                    20974952.906
 118894814.398 7  92645320.69944  22624928.047                    22624937.508
 132585517.951 5 103313432.71842  25230185.336                    25230196.191
 122634301.712 7  95559235.09044  23336531.914                    23336540.988
 108740482.226 8  84732871.94546  20692625.906                    20692633.742
 116977708.713 7  91151490.30545  22260118.844                    22260126.551
 11  8 10 17 49  0.0000000  0 12G01G10G06G19G11G08G07G03G16G28G13G23
 130353464.908 6 101574159.093 6  24805442.805                    24805456.477
 130008276.832 6 101305204.32543  24739755.609                    24739768.094
 129541749.516 6 100941688.22243  24650983.242                    24650992.375
 111195304.104 8  86645717.61546  21159763.383                    21159769.484
 121774458.730 7  94889229.88344  23172909.305                    23172919.457
 118241787.313 7  92136492.50245  22500664.500                    22500673.539
 110180077.942 8  85854640.595 7  20966572.000                    20966579.723
 118989775.187 7  92719316.06044  22642998.867                    22643007.723
 132669487.032 6 103378863.10642  25246165.242                    25246175.207
 122584164.817 7  95520167.43844  23326990.859                    23327000.164
 108803432.377 8  84781923.96046  20704605.008                    20704613.391
 117080376.532 7  91231491.08945  22279655.617                    22279663.348
 11  8 10 17 49 30.0000000  0 12G01G10G06G19G11G08G07G03G16G28G13G23
 130322315.746 6 101549886.982 6  24799515.813                    24799529.348
 130062989.485 6 101347837.43243  24750167.844                    24750179.578
 129641416.943 6 101019351.08643  24669949.648                    24669958.844
 111232931.223 8  86675037.43946  21166923.453                    21166929.879
 121698756.247 7  94830241.00444  23158503.555                    23158513.441
 118169476.101 7  92080146.14845  22486903.641                    22486912.449
 110136261.792 8  85820498.139 7  20958233.898                    20958241.816
 119085042.294 7  92793550.09644  22661128.313                    22661136.941
 132753346.236 6 103444207.93242  25262123.594                    25262133.027
 122534231.151 7  95481258.09744  23317489.016                    23317497.512
 108866893.941 8  84831374.49146  20716681.453                    20716689.332
 117183309.482 7  91311698.46445  22299243.109                    22299250.992
 11  8 10 17 50  0.0000000  0 12G01G10G06G19G11G08G07G03G16G28G13G23
 130291514.060 6 101525885.671 6  24793653.352                    24793667.258
 130117871.459 6 101390602.48043  24760611.625                    24760623.836
 129741242.045 6 101097136.79143  24688944.867                    24688954.941
 111271134.791 8  86704806.43746  21174193.547                    21174199.445
 121623201.126 7  94771366.94043  23144126.172                    23144134.809
 118097175.131 7  92023807.74145  22473145.477                    22473153.707
 110092632.322 8  85786501.156 7  20949931.719                    20949939.535
 119180612.769 7  92868020.54244  22679314.359                    22679323.434
 132837095.125 6 103509466.75842  25278059.953                    25278069.613
 122484500.520 7  95442506.98744  23308025.383                    23308034.336
 108930865.083 8  84881222.09346  20728854.828                    20728862.668
 117286504.851 7  91392110.29245  22318881.117                    22318888.496
 11  8 10 17 50 30.0000000  0 12G01G10G06G19G11G08G07G03G16G28G13G23
 130261062.375 6 101502157.084 6  24787858.320                    24787872.000
 130172920.169 6 101433497.46943  24771086.508                    24771099.680
 129841222.294 6 101175043.41043  24707970.586                    24707980.781
 111309913.056 8  86735023.25446  21181572.859                    21181579.008
 121547796.220 7  94712609.90444  23129776.781                    23129785.480
 118024885.475 7  91967478.14745  22459389.086                    22459397.637
 110049191.356 8  85752651.047 7  20941665.281                    20941673.125
 119276483.467 7  92942724.92344  22697557.938                    22697566.895
 132920733.413 6 103574639.46643  25293976.313                    25293985.813
 122434971.992 7  95403913.37344  23298600.211                    23298609.414
 108995343.600 8  84931465.05446  20741124.461                    20741132.570
 117389959.795 7  91472724.40345  22338568.188                    22338575.898
 11  8 10 17 51  0.0000000  0 12G01G10G06G19G11G08G07G03G16G28G13G23
 130230962.945 6 101478702.978 6  24782131.852                    24782144.734
 130228132.740 6 101476520.16342  24781592.828                    24781606.598
 129941355.295 6 101253069.07543  24727026.297                    24727035.254
 111349264.996 8  86765687.09146  21189061.414                    21189067.719
 121472544.666 7  94653972.39244  23115456.922                    23115466.672
 117952608.338 7  91911158.32945  22445635.281                    22445643.777
 110005940.613 8  85718949.170 7  20933434.922                    20933442.477
 119372651.786 7  93017661.21644  22715857.875                    22715867.016
 133004260.642 6 103639725.56343  25309869.969                    25309879.504
 122385645.265 7  95365477.03644  23289213.641                    23289222.691
 109060327.595 8  84982101.89046  20753490.633                    20753498.980
 117493671.639 7  91553538.69445  22358303.891                    22358311.453
 11  8 10 17 51 30.0000000  0 12G01G10G06G19G11G08G07G03G16G28G13G23
 130201217.736 6 101455524.854 6  24776471.500                    24776484.063
 130283506.420 6 101519668.34942  24792130.633                    24792143.047
 130041638.421 6 101331211.72643  24746108.938                    24746117.875
 111389188.886 8  86796796.60746  21196658.680                    21196664.676
 121397449.556 7  94595456.77044  23101166.039                    23101176.105
 117880345.083 7  91854849.31545  22431884.141                    22431892.656
 109962881.641 8  85685396.715 7  20925240.672                    20925248.828
 119469115.159 7  93092827.42944  22734214.367                    22734223.426
 133087676.241 6 103704724.64742  25325745.391                    25325754.184
 122336519.709 7  95327197.42044  23279865.703                    23279874.316
 109125815.323 8  85033131.24546  20765952.672                    20765960.492
 117597637.234 7  91634550.69945  22378087.578                    22378095.934
 11  8 10 17 52  0.0000000  0 11G01G10G06G19G11G08G07G03G28G13G23
 130171829.077 6 101432624.601 6  24770878.563                    24770892.434
 130339038.398 6 101562939.93943  24802698.453                    24802710.121
 130142069.358 6 101409469.51143  24765220.594                    24765229.762
 111429683.019 8  86828350.45546  21204364.086                    21204370.621
 121322513.905 7  94537065.38644  23086906.500                    23086915.859
 117808096.936 7  91798552.08445  22418135.094                    22418144.465
 109920016.368 8  85651995.202 7  20917084.125                    20917091.867
 119565870.332 7  93168221.00144  22752626.305                    22752635.391
 122287594.564 7  95289073.99144  23270555.516                    23270564.637
 109191804.487 8  85084551.33346  20778509.898                    20778518.105
 117701853.894 7  91715758.34845  22397919.586                    22397927.898
 11  8 10 17 52 30.0000000  0 11G01G10G06G19G11G08G07G03G28G13G23
 130142798.774 6 101410003.569 6  24765354.039                    24765367.574
 130394726.006 6 101606332.73142  24813295.320                    24813307.160
 130242645.767 6 101487840.67343  24784359.289                    24784369.281
 111470745.675 8  86860347.31446  21212178.305                    21212184.914
 121247740.714 6  94478800.60444  23072677.750                    23072687.793
 117735865.002 7  91742267.47445  22404390.039                    22404398.992
 109877346.555 8  85618746.003 7  20908964.016                    20908971.984
 119662914.402 7  93243839.68644  22771092.945                    22771102.391
 122238869.600 7  95251106.52144  23261282.984                    23261292.402
 109258293.042 8  85136360.55646  20791162.508                    20791170.484
 117806318.641 7  91797159.31145  22417798.813                    22417806.926
 11  8 10 17 53  0.0000000  0 11G01G10G06G19G11G08G07G03G28G13G23
 130114129.053 7 101387663.519 6  24759898.547                    24759912.027
 130450566.061 6 101649844.33942  24823920.992                    24823932.789
 130343365.130 6 101566323.22643  24803525.797                    24803535.055
 111512375.259 8  86892785.94146  21220100.203                    21220106.523
 121173132.914 6  94420664.70244  23058480.031                    23058490.445
 117663650.826 7  91685996.69945  22390648.180                    22390657.254
 109834873.880 8  85585650.420 7  20900882.125                    20900889.539
 119760244.687 7  93319681.37044  22789614.586                    22789623.746
 122190344.034 7  95213294.44044  23252049.000                    23252058.004
 109325278.665 8  85188557.09746  20803909.008                    20803917.563
 117911028.537 7  91878751.28244  22437724.906                    22437732.516
 11  8 10 17 53 30.0000000  0 11G01G10G06G19G11G08G07G03G28G13G23
 130085821.940 7 101365605.956 6  24754512.078                    24754525.008
 130506556.122 6 101693472.86043  24834576.609                    24834588.094
 130444224.661 6 101644915.03942  24822718.477                    24822728.461
 111554570.055 8  86925664.98346  21228129.836                    21228136.090
 121098693.708 6  94362660.16644  23044315.320                    23044324.742
 117591456.024 7  91629741.02245  22376910.734                    22376919.340
 109792600.000 8  85552709.739 7  20892837.133                    20892845.066
 119857857.912 7  93395743.57044  22808189.766                    22808199.320
 122142017.324 7  95175637.28944  23242852.867                    23242861.570
 109392759.386 8  85241139.43446  20816750.516                    20816758.367
 118015980.664 7  91960532.01845  22457696.266                    22457704.402
 11  8 10 17 54  0.0000000  0 11G01G10G06G19G11G08G07G03G28G13G23
 130057879.166 7 101343832.364 6  24749194.625                    24749207.762
 130562692.967 6 101737215.75742  24845258.578                    24845270.449
 130545221.996 5 101723614.16942  24841937.523                    24841947.340
 111597328.109 8  86958982.92846  21236266.234                    21236272.898
 121024425.805 7  94304789.10844  23030182.867                    23030192.012
 117519281.273 7  91573500.97845  22363175.555                    22363184.438
 109750526.513 8  85519925.197 7  20884831.367                    20884838.789
 119955751.197 7  93472023.99744  22826817.813                    22826827.324
 122093888.835 7  95138134.61344  23233694.352                    23233703.496
 109460732.946 8  85294105.79246  20829685.359                    20829693.535
 118121172.117 7  92042499.24844  22477713.578                    22477721.652
 11  8 10 17 54 30.0000000  0 11G01G10G06G19G11G08G07G03G28G13G23
 130030303.215 6 101322344.622 6  24743947.445                    24743960.629
 130618973.903 6 101781070.91342  24855968.625                    24855979.883
 130646354.916 5 101802418.98543  24861182.672                    24861192.477
 111640648.454 8  86992739.02746  21244509.555                    21244516.082
 120950332.830 7  94247054.38344  23016082.680                    23016092.531
 117447128.188 7  91517277.80845  22349445.320                    22349454.406
 109708655.483 8  85487298.422 7  20876863.531                    20876871.078
 120053922.022 7  93548520.67744  22845499.602                    22845509.031
 122045957.865 7  95100785.84244  23224573.109                    23224582.203
 109529197.457 8  85347454.71546  20842713.820                    20842721.824
 118226600.280 7  92124650.92144  22497776.375                    22497784.320
 11  8 10 17 55  0.0000000  0 10G01G10G19G11G08G07G03G28G13G23
 130003096.423 7 101301144.562 6  24738769.375                    24738783.648
 130675396.288 6 101825036.37042  24866705.313                    24866716.883
 111684528.998 8  87026931.63946  21252860.094                    21252866.320
 120876417.790 7  94189458.29244  23002017.539                    23002026.828
 117374998.222 7  91461072.66145  22335719.492                    22335728.070
 109666988.790 8  85454830.879 7  20868934.617                    20868942.164
 120152367.383 7  93625231.27144  22864233.055                    22864242.480
 121998223.917 7  95063590.60944  23215489.945                    23215498.891
 109598150.821 8  85401184.56946  20855835.266                    20855843.344
 118332262.419 7  92206984.90944  22517883.531                    22517891.309
 11  8 10 17 55 30.0000000  0 10G01G10G19G11G08G07G03G28G13G23
 129976260.581 6 101280233.559 6  24733663.227                    24733676.531
 130731957.544 6 101869109.93742  24877469.742                    24877480.871
 111728968.192 7  87061559.56146  21261316.531                    21261322.684
 120802683.760 7  94132003.23944  22987986.633                    22987996.297
 117302892.988 7  91404886.79845  22321998.461                    22322007.070
 109625528.160 8  85422523.887 7  20861044.805                    20861052.461
 120251084.820 7  93702153.88644  22883018.297                    22883028.188
 121950686.804 7  95026548.73244  23206443.719                    23206452.570
 109667590.917 8  85455293.69246  20869049.266                    20869057.348
 118438155.266 7  92289498.66744  22538033.961                    22538042.121
 11  8 10 17 56  0.0000000  0 10G01G10G19G11G08G07G03G28G13G23
 129949797.296 6 101259612.877 6  24728627.750                    24728640.535
 130788654.503 6 101913289.29143  24888258.398                    24888269.480
 111773964.005 7  87096621.20946  21269879.164                    21269885.254
 120729133.395 7  94074691.32144  22973989.758                    22973999.313
 117230813.419 7  91348720.90645  22308282.258                    22308290.777
 109584275.199 8  85390378.724 7  20853194.406                    20853201.930
 120350070.918 6  93779285.82944  22901854.953                    22901864.371
 121903345.589 7  94989659.51344  23197434.789                    23197443.930
 109737515.619 8  85509780.42146  20882355.531                    20882363.488
 118544276.044 7  92372190.03245  22558228.367                    22558236.516
 11  8 10 17 56 30.0000000  0 10G01G10G19G11G08G07G03G28G13G23
 129923709.065 6 101239284.437 6  24723662.477                    24723675.820
 130845484.251 6 101957572.15543  24899072.617                    24899084.684
 111819514.493 7  87132115.09146  21278547.055                    21278553.395
 120655769.842 7  94017524.95944  22960030.125                    22960038.813
 117158760.694 7  91292575.94845  22294571.063                    22294579.789
 109543231.498 8  85358396.616 7  20845384.086                    20845392.078
 120449322.395 7  93856624.58944  22920742.195                    22920751.102
 121856199.481 7  94952922.33544  23188463.219                    23188472.242
 109807922.012 8  85564642.50046  20895753.336                    20895761.852
 118650621.694 7  92455056.62944  22578465.672                    22578473.258
 11  8 10 17 57  0.0000000  0 10G01G10G19G11G08G07G03G28G13G23
 129897997.529 7 101219249.554 6  24718769.414                    24718782.684
 130902444.114 6 102001956.34443  24909911.469                    24909923.262
 111865618.250 8  87168040.08046  21287320.133                    21287326.367
 120582596.333 7  93960506.69744  22946104.836                    22946114.254
 117086736.579 7  91236453.28945  22280864.758                    22280873.996
 109502399.340 8  85326579.346 7  20837614.375                    20837621.469
 120548837.020 6  93934168.36544  22939679.477                    22939688.836
 121809248.162 7  94916336.92544  23179528.797                    23179537.527
 109878808.367 8  85619878.56946  20909242.563                    20909250.836
 118757189.364 7  92538096.21644  22598744.508                    22598752.746
 11  8 10 17 57 30.0000000  0 10G01G10G19G11G08G07G03G28G13G23
 129872665.004 7 101199509.978 6  24713949.430                    24713962.914
 130959531.654 6 102046440.06543  24920774.664                    24920787.430
 111912273.390 7  87204394.72146  21296198.313                    21296204.453
 120509616.094 7  93903639.02644  22932216.922                    22932226.754
 117014743.116 7  91180354.49345  22267165.742                    22267173.750
 109461780.436 8  85294928.253 7  20829884.563                    20829892.426
 120648612.137 6  94011915.15244  22958665.383                    22958674.703
 121762490.949 7  94879902.75844  23170631.188                    23170640.297
 109950172.829 8  85675487.18846  20922823.047                    20922830.992
 118863976.601 7  92621306.89744  22619065.664                    22619073.879
 11  8 10 17 58  0.0000000  0  9G01G19G11G08G07G03G28G13G23
 129847713.928 6 101180067.643 6  24709201.445                    24709214.965
 111959478.590 8  87241177.97646  21305181.297                    21305187.891
 120436832.363 7  93846924.49044  22918366.531                    22918376.551
 116942781.492 7  91124280.50845  22253471.352                    22253479.734
 109421377.259 8  85263445.250 7  20822196.250                    20822203.629
 120748645.285 6  94089862.99244  22977701.570                    22977710.754
 121715927.903 7  94843619.88944  23161770.641                    23161779.594
 110022013.378 8  85731466.79146  20936493.602                    20936501.957
 118970981.017 7  92704686.80244  22639427.711                    22639435.953
 11  8 10 17 58 30.0000000  0  9G01G19G11G08G07G03G28G13G23
 129823145.017 6 101160923.087 6  24704525.742                    24704539.387
 112007230.973 8  87278387.60746  21314268.477                    21314274.734
 120364247.472 7  93790364.88544  22904554.375                    22904564.004
 116870852.179 7  91068231.70145  22239783.594                    22239791.895
 109381190.157 8  85232130.626 7  20814548.969                    20814556.207
 120848932.315 6  94168008.66444  22996785.453                    22996794.578
 121669557.160 7  94807486.89644  23152946.250                    23152955.586
 110094326.442 8  85787814.58146  20950254.805                    20950262.738
 119078198.297 7  92788232.58244  22659830.789                    22659839.090
 11  8 10 17 59  0.0000000  0  9G01G19G11G08G07G03G28G13G23
 129798959.905 7 101142077.587 6  24699924.102                    24699936.988
 112055528.446 8  87316021.98246  21323458.945                    21323465.563
 120291864.337 7  93733962.48044  22890779.773                    22890790.086
 116798956.730 7  91012209.28445  22226102.430                    22226111.090
 109341221.295 8  85200986.054 7  20806943.109                    20806950.715
 120949470.570 6  94246350.10544  23015917.492                    23015926.781
 121623377.887 7  94771503.08044  23144158.469                    23144167.898
 110167109.681 8  85844528.74746  20964105.031                    20964113.086
 119185625.679 7  92871942.07144  22680273.641                    22680281.934
 11  8 10 17 59 30.0000000  0  9G01G19G11G08G07G03G28G13G23
 129775161.031 7 101123533.035 6  24695395.063                    24695407.570
 112104369.408 8  87354079.85846  21332753.328                    21332759.484
 120219686.242 7  93677719.84544  22877045.086                    22877054.305
 116727096.648 7  90956214.43745  22212427.938                    22212436.656
 109301472.247 8  85170012.774 7  20799379.211                    20799386.602
 121050256.919 6  94324884.85344  23035096.313                    23035105.441
 121577389.874 7  94735668.28644  23135408.313                    23135416.035
 110240361.297 8  85901607.87346  20978044.313                    20978052.676
 119293260.393 7  92955813.12544  22700755.727                    22700764.371
 11  8 10 18  0  0.0000000  0  9G01G19G11G08G07G03G28G13G23
 129751750.305 6 101105290.916 6  24690939.320                    24690952.520
 112153751.569 7  87392559.44146  21342150.547                    21342156.824
 120147715.910 7  93621639.11744  22863349.289                    22863358.977
 116655273.549 7  90900248.39245  22198760.336                    22198769.102
 109261944.955 8  85139212.285 7  20791857.133                    20791865.133
 121151288.809 7  94403610.92444  23054322.383                    23054331.359
 121531592.126 7  94699981.78144  23126692.469                    23126701.645
 110314078.714 8  85959049.96646  20992072.336                    20992080.277
 119401099.528 7  93039843.46144  22721276.883                    22721285.816
 11  8 10 18  0 30.0000000  0 10G24G01G19G11G08G07G03G28G13G23
 128082359.74416  99804407.83553  24373240.563                    24373256.289
 129728729.079 6 101087352.307 6  24686558.539                    24686572.152
 112203673.252 8  87431459.43746  21351650.000                    21351656.137
 120075956.666 7  93565722.87544  22849694.039                    22849703.438
 116583488.843 7  90844312.28945  22185099.883                    22185109.324
 109222641.138 8  85108585.930 7  20784378.031                    20784385.523
 121252563.272 6  94482526.02844  23073593.648                    23073603.621
 121485984.112 7  94664443.11244  23118013.273                    23118022.539
 110388259.483 8  86016853.11346  21006188.125                    21006196.863
 119509139.974 7  93124030.66044  22741836.703                    22741844.891
 11  8 10 18  1  0.0000000  0 10G24G01G19G11G08G07G03G28G13G23
 128008554.835 6  99746897.70543  24359196.086                    24359211.566
 129706099.178 6 101069718.633 6  24682252.906                    24682266.164
 112254131.969 8  87470777.89146  21361252.016                    21361258.840
 120004411.032 7  93509973.06944  22836079.008                    22836088.395
 116511743.793 7  90788407.07845  22171447.703                    22171455.785
 109183562.244 8  85078134.840 7  20776941.570                    20776949.480
 121354076.864 6  94561627.44344  23092911.555                    23092921.113
 121440564.615 7  94629051.32644  23109370.672                    23109379.273
 110462900.933 8  86075015.23346  21020391.906                    21020400.668
 119617378.656 7  93208372.33744  22762433.984                    22762442.910
 11  8 10 18  1 30.0000000  0 10G24G01G19G11G08G07G03G28G13G23
 127934685.473 6  99689337.32143  24345138.547                    24345154.426
 129683863.105 6 101052391.846 6  24678021.078                    24678034.844
 112305126.353 7  87510513.75946  21370955.938                    21370962.379
 119933082.735 6  93454392.61044  22822506.016                    22822515.563
 116440040.069 7  90732534.05545  22157802.766                    22157811.613
 109144710.720 8  85047860.913 7  20769548.398                    20769555.895
 121455827.334 7  94640913.46144  23112274.195                    23112283.809
 121395333.787 7  94593806.58544  23100763.313                    23100772.398
 110538001.228 8  86133534.89446  21034683.344                    21034692.121
 119725812.993 7  93292866.45544  22783068.422                    22783076.613
 11  8 10 18  2  0.0000000  0 10G24G01G19G11G08G07G03G28G13G23
 127860754.036 6  99631728.60942  24331069.805                    24331085.973
 129662022.378 6 101035373.130 6  24673864.906                    24673878.516
 112356654.247 8  87550665.33546  21380761.578                    21380768.121
 119861974.516 7  93398983.65844  22808974.648                    22808984.516
 116368379.086 7  90676694.34645  22144166.023                    22144174.535
 109106088.254 8  85017765.473 7  20762198.766                    20762206.566
 121557811.984 6  94720381.94544  23131681.398                    23131691.250
 121350290.848 7  94558708.25344  23092191.898                    23092200.625
 110613557.664 8  86192409.98646  21049061.156                    21049069.227
 119834439.993 7  93377510.70544  22803739.539                    22803747.938
 11  8 10 18  2 30.0000000  0 10G24G01G19G11G08G07G03G28G13G23
 127786763.758 6  99574074.07543  24316990.492                    24317005.438
 129640579.246 6 101018664.236 6  24669784.430                    24669797.977
 112408714.031 8  87591231.37246  21390668.070                    21390674.563
 119791089.893 7  93343748.93244  22795485.266                    22795495.438
 116296762.595 7  90620889.30445  22130538.195                    22130546.695
 109067696.943 8  84987850.169 7  20754892.992                    20754900.504
 121660028.091 7  94800030.79144  23151132.500                    23151142.301
 121305435.208 7  94523755.84444  23083656.336                    23083665.270
 110689568.379 8  86251639.05746  21063525.445                    21063534.023
 119943257.152 7  93462303.13144  22824447.094                    22824455.387
 11  8 10 18  3  0.0000000  0 10G24G01G19G11G08G07G03G28G13G23
 127712717.144 6  99516375.62143  24302899.484                    24302914.652
 129619535.268 6 101002266.354 6  24665779.781                    24665792.625
 112461303.304 8  87632209.99446  21400675.719                    21400682.324
 119720431.734 7  93288690.68444  22782039.258                    22782049.641
 116225192.121 7  90565120.12445  22116918.617                    22116927.367
 109029538.305 8  84958116.162 7  20747631.672                    20747639.664
 121762472.562 7  94879857.58744  23170626.836                    23170636.887
 121260765.846 7  94488948.56744  23075155.469                    23075164.465
 110766030.737 8  86311220.05646  21078075.922                    21078084.074
 120052261.169 7  93547241.16144  22845190.148                    22845198.316
 11  8 10 18  3 30.0000000  0 10G24G01G19G11G08G07G03G28G13G23
 127638616.913 6  99458635.36843  24288798.555                    24288813.652
 129598892.249 6 100986180.925 6  24661851.758                    24661864.594
 112514419.939 8  87673599.55446  21410783.148                    21410790.328
 119650003.023 7  93233811.22444  22768637.453                    22768647.336
 116153669.220 7  90509388.01245  22103308.297                    22103316.852
 108991614.543 8  84928565.157 7  20740415.367                    20740423.094
 121865142.806 6  94959860.31144  23190164.711                    23190174.066
 121216282.320 7  94454286.12844  23066691.000                    23066699.973
 110842942.235 8  86371151.04146  21092711.844                    21092720.172
 120161449.428 7  93632322.74444  22865968.172                    22865976.742
 11  8 10 18  4  0.0000000  0 10G24G01G19G11G08G07G03G28G13G23
 127564466.102 6  99400855.71643  24274687.422                    24274703.117
 129578652.239 7 100970409.536 6  24658000.367                    24658013.102
 112568062.175 7  87715398.67046  21420991.156                    21420997.781
 119579807.166 7  93179113.21144  22755279.867                    22755289.309
 116082195.751 7  90453694.41345  22089707.141                    22089716.262
 108953927.776 8  84899198.836 7  20733243.828                    20733251.512
 121968035.609 7  95040036.43544  23209744.414                    23209754.195
 121171984.279 7  94419768.23444  23058260.898                    23058270.289
 110920300.804 8  86431430.38246  21107432.430                    21107441.270
 120270819.087 7  93717545.66844  22886780.883                    22886789.453
 11  8 10 18  4 30.0000000  0 10G24G01G19G11G08G07G03G28G13G23
 127490267.417 6  99343038.76743  24260568.414                    24260583.504
 129558816.686 6 100954953.339 6  24654225.688                    24654239.500
 112622227.939 7  87757605.74146  21431298.711                    21431305.090
 119509846.591 7  93124598.53744  22741966.656                    22741976.078
 116010772.924 7  90398040.27345  22076115.688                    22076124.594
 108916479.346 8  84870018.248 7  20726117.289                    20726125.082
 122071148.428 7  95120384.02343  23229365.648                    23229375.691
 121127870.569 7  94385393.96344  23049866.508                    23049874.969
 110998103.717 8  86492055.96446  21122237.914                    21122246.422
 120380366.938 7  93802907.46044  22907626.852                    22907635.543
 11  8 10 18  5  0.0000000  0 10G24G01G19G11G08G07G03G28G13G23
 127416023.130 6  99285186.29243  24246439.875                    24246455.133
 129539386.714 6 100939813.167 6  24650527.445                    24650541.656
 112676914.465 8  87800218.58446  21441705.133                    21441711.625
 119440124.213 7  93070269.47044  22728699.078                    22728708.285
 115939401.966 8  90342426.53945  22062534.313                    22062542.984
 108879270.418 8  84841024.289 7  20719036.617                    20719044.250
 122174478.292 7  95200900.72444  23249029.188                    23249038.953
 121083940.034 7  94351162.40144  23041506.891                    23041515.344
 111076347.885 8  86553025.38946  21137127.750                    21137135.980
 120490089.709 7  93888405.55144  22928506.406                    22928515.398
 11  8 10 18  5 30.0000000  0 10G24G01G19G11G08G07G03G28G13G23
 127341736.613 6  99227300.89943  24232303.766                    24232318.176
 129520364.807 7 100924990.959 6  24646908.414                    24646920.730
 112732120.276 8  87843236.07446  21452210.352                    21452217.008
 119370643.456 7  93016128.68344  22715477.141                    22715486.863
 115868085.108 8  90286854.97245  22048963.328                    22048971.523
 108842303.726 8  84812219.074 8  20712002.195                    20712009.809
 122278022.206 7  95281584.21543  23268732.922                    23268742.609
 121040192.471 7  94317073.43644  23033181.633                    23033190.551
 111155031.395 8  86614337.16046  21152100.617                    21152109.160
 120599985.085 7  93974038.12744  22949419.000                    22949427.285
 11  8 10 18  6  0.0000000  0 10G24G01G19G11G08G07G03G28G13G23
 127267410.382 6  99169384.55643  24218159.617                    24218175.195
 129501752.309 6 100910487.719 6  24643366.914                    24643378.664
 112787842.729 8  87886656.14146  21462814.422                    21462820.691
 119301407.274 7  92962178.45744  22702302.039                    22702311.277
 115796823.408 8  90231326.38645  22035402.969                    22035411.160
 108805580.790 8  84783603.791 7  20705014.164                    20705021.891
 122381777.567 7  95362432.48243  23288476.891                    23288486.707
 120996626.935 7  94283126.32444  23024891.148                    23024899.605
 111234151.465 8  86675989.10246  21167156.664                    21167165.320
 120710049.760 7  94059802.61744  22970364.008                    22970372.855
 11  8 10 18  6 30.0000000  0 10G24G01G19G11G08G07G03G28G13G23
 127193047.363 6  99111439.54743  24204008.602                    24204023.828
 129483550.958 6 100896304.878 6  24639902.844                    24639915.242
 112844079.985 7  87930477.35246  21473515.625                    21473522.148
 119232418.933 7  92908421.36744  22689173.867                    22689182.891
 115725618.704 8  90175842.20145  22021852.625                    22021861.438
 108769103.642 8  84755180.036 7  20698072.680                    20698080.148
 122485741.570 6  95443443.32143  23308260.820                    23308270.902
 120953242.972 7  94249320.67344  23016635.641                    23016644.402
 111313705.800 8  86737979.43846  21182295.328                    21182303.512
 120820281.063 7  94145696.96044  22991340.258                    22991348.914
 11  8 10 18  7  0.0000000  0 10G24G01G19G11G08G07G03G28G13G23
 127118650.507 6  99053468.14543  24189851.453                    24189866.270
 129465762.609 6 100882443.854 6  24636516.602                    24636530.547
 112900829.772 8  87974697.94346  21484314.820                    21484321.125
 119163681.180 7  92854859.52744  22676093.750                    22676102.602
 115654472.703 7  90120403.75945  22008314.445                    22008322.563
 108732874.104 8  84726949.216 7  20691178.258                    20691186.168
 122589911.271 6  95524614.45343  23328083.773                    23328093.570
 120910039.704 7  94215655.81844  23008413.984                    23008423.633
 111393691.594 8  86800305.97446  21197516.008                    21197525.023
 120930675.645 7  94231718.51944  23012347.633                    23012356.773
 11  8 10 18  7 30.0000000  0 10G24G01G19G11G08G07G03G28G13G23
 127044222.143 6  98995472.19443  24175688.063                    24175702.203
 129448388.604 6 100868905.726 6  24633211.047                    24633225.039
 112958089.643 7  88019315.99846  21495211.109                    21495217.391
 119095196.959 7  92801495.27844  22663061.422                    22663070.875
 115583386.910 7  90065012.24845  21994787.156                    21994795.422
 108696893.612 8  84698912.464 7  20684331.336                    20684339.145
 122694283.666 7  95605943.50643  23347945.586                    23347955.094
 120867016.127 7  94182131.02144  23000227.055                    23000236.027
 111474106.077 7  86862966.55346  21212818.461                    21212826.902
 121041230.761 7  94317865.17244  23033385.727                    23033394.922
 11  8 10 18  8  0.0000000  0 10G24G01G19G11G08G07G03G28G13G23
 126969765.343 6  98937454.09143  24161519.273                    24161534.086
 129431430.455 6 100855691.584 6  24629984.219                    24629997.914
 113015857.100 8  88064329.57946  21506203.656                    21506210.289
 119026969.322 7  92748330.94544  22650077.820                    22650087.145
 115512362.791 7  90009668.79045  21981271.945                    21981280.391
 108661164.150 8  84671071.324 7  20677532.672                    20677540.094
 122798855.860 6  95687428.25843  23367844.305                    23367854.914
 120824171.638 7  94148745.74044  22992074.266                    22992083.008
 111554946.729 8  86925959.21746  21228202.016                    21228210.781
 121151943.738 7  94404134.81744  23054453.859                    23054462.844
 11  8 10 18  8 30.0000000  0 10G24G01G19G11G08G07G03G28G13G23
 126895283.084 7  98879416.16043  24147346.039                    24147360.574
 129414889.887 6 100842802.854 6  24626836.461                    24626849.777
 113074130.585 8  88109737.45446  21517293.172                    21517299.254
 118959001.400 7  92695368.99545  22637143.570                    22637153.715
 115441402.340 8  89954374.94345  21967768.453                    21967777.066
 108625687.943 8  84643427.515 7  20670781.516                    20670789.273
 122903625.210 6  95769066.61943  23387781.672                    23387791.445
 120781505.689 7  94115499.58244  22983954.656                    22983963.699
 111636211.350 8  86989282.23246  21243666.266                    21243674.832
 121262811.623 7  94490525.18044  23075551.742                    23075560.453
 11  8 10 18  9  0.0000000  0 10G24G01G19G11G08G07G03G28G13G23
 126820778.248 7  98821360.61243  24133167.875                    24133182.004
 129398768.682 6 100830240.914 6  24623769.000                    24623781.949
 113132907.698 7  88155537.77146  21528478.133                    21528484.676
 118891296.293 7  92642611.84944  22624260.227                    22624269.445
 115370507.160 7  89899131.97345  21954277.164                    21954286.566
 108590466.655 8  84615982.354 7  20664078.852                    20664086.949
 123008589.213 7  95850856.68543  23407755.766                    23407765.266
 120739017.192 7  94082391.72945  22975869.445                    22975878.461
 111717897.210 8  87052933.50646  21259210.820                    21259219.074
 121373831.195 7  94577033.75944  23096677.734                    23096687.566
 11  8 10 18  9 30.0000000  0 10G24G01G19G11G08G07G03G28G13G23
 126746253.751 7  98763289.77043  24118986.313                    24119000.199
 129383068.546 6 100818007.023 6  24620781.844                    24620794.141
 113192186.288 8  88201728.85046  21539758.023                    21539764.207
 118823856.793 7  92590061.65044  22611426.422                    22611436.121
 115299678.768 8  89843941.02945  21940799.078                    21940807.828
 108555502.580 8  84588737.619 7  20657425.797                    20657433.313
 123113745.160 6  95932796.33143  23427765.852                    23427776.203
 120696705.852 7  94049421.88945  22967817.852                    22967826.977
 111800001.913 8  87116911.13546  21274834.531                    21274843.371
 121484999.933 7  94663658.53744  23117832.578                    23117842.152
 11  8 10 18 10  0.0000000  0 10G24G01G19G11G08G07G03G28G13G23
 126671712.238 6  98705205.69543  24104801.234                    24104815.477
 129367790.687 6 100806102.208 6  24617874.133                    24617887.145
 113251963.652 8  88248308.58446  21551133.602                    21551140.125
 118756685.818 7  92537720.70144  22598644.352                    22598654.023
 115228918.855 7  89788803.44645  21927333.844                    21927342.273
 108520796.783 8  84561694.131 7  20650821.750                    20650829.348
 123219089.920 7  96014883.04443  23447812.477                    23447823.094
 120654570.435 7  94016589.12944  22959799.945                    22959808.313
 111882522.541 7  87181212.84745  21290538.133                    21290546.559
 121596314.494 7  94750396.94344  23139015.563                    23139024.688
 11  8 10 18 10 30.0000000  0 10G24G01G19G11G08G07G03G28G13G23
 126597156.568 6  98647110.54943  24090613.188                    24090627.586
 129352936.978 6 100794527.939 6  24615047.336                    24615061.293
 113312237.546 8  88295275.23646  21562603.430                    21562609.914
 118689786.584 7  92485591.49144  22585914.156                    22585923.176
 115158229.395 8  89733720.77245  21913881.922                    21913891.164
 108486351.584 8  84534853.695 7  20644267.008                    20644274.672
 123324620.797 6  96097114.81243  23467894.906                    23467904.945
 120612610.366 7  93983893.01244  22951815.008                    22951823.984
 111965456.555 8  87245836.70145  21306319.711                    21306328.172
 121707772.195 7  94837246.90844  23160225.820                    23160234.715
 11  8 10 18 11  0.0000000  0 10G24G01G19G11G08G07G03G28G13G23
 126522589.747 7  98589006.72643  24076422.930                    24076438.082
 129338508.758 6 100783285.239 6  24612302.227                    24612315.180
 113373006.055 8  88342627.28246  21574167.359                    21574173.711
 118623162.351 7  92433676.55844  22573236.305                    22573245.281
 115087611.915 8  89678694.17445  21900444.414                    21900452.535
 108452168.866 8  84508217.807 7  20637762.117                    20637769.961
 123430335.220 6  96179489.62043  23488012.016                    23488021.457
 120570824.762 7  93951332.85244  22943863.930                    22943872.453
 112048801.219 8  87310780.53545  21322179.805                    21322188.832
 121819370.037 7  94924206.04744  23181462.141                    23181471.773
 11  8 10 18 11 30.0000000  0 10G24G01G19G11G08G07G03G28G13G23
 126448014.772 6  98530896.48243  24062233.023                    24062246.875
 129324507.623 6 100772375.316 6  24609637.797                    24609650.648
 113434266.744 8  88390362.85746  21585824.477                    21585831.316
 118556815.775 7  92381977.98444  22560610.508                    22560619.855
 115017067.840 8  89623724.76045  21887019.945                    21887028.844
 108418250.283 8  84481787.731 7  20631307.438                    20631315.074
 123536230.076 6  96262004.99343  23508162.875                    23508172.309
 120529213.067 7  93918908.18544  22935945.289                    22935953.922
 112132553.966 7  87376042.35245  21338117.297                    21338126.188
 121931105.146 6  95011272.15144  23202724.516                    23202733.879
 11  8 10 18 12  0.0000000  0 10G24G01G19G11G08G07G03G28G13G23
 126373434.366 6  98472782.04443  24048040.156                    24048054.375
 129310934.885 6 100761799.220 6  24607054.758                    24607067.270
 113496017.022 8  88438479.92546  21597575.453                    21597582.273
 118490749.939 7  92330498.17344  22548038.211                    22548047.309
 114946599.076 8  89568814.06445  21873610.023                    21873619.023
 108384597.712 8  84455564.940 7  20624903.797                    20624911.742
 123642302.544 6  96344658.80843  23528347.961                    23528357.637
 120487774.447 7  93886618.39344  22928059.539                    22928068.355
 112216711.943 7  87441619.93845  21354132.578                    21354140.578
 122042974.554 6  95098442.91544  23224013.109                    23224022.582
 11  8 10 18 12 30.0000000  0 10G24G01G19G11G08G07G03G28G13G23
 126298851.437 6  98414665.63543  24033846.992                    24033861.324
 129297791.955 6 100751558.040 6  24604553.172                    24604565.980
 113558254.683 8  88486976.75746  21609418.742                    21609425.008
 118424967.798 7  92279239.43044  22535520.430                    22535529.461
 114876207.794 8  89513963.71645  21860215.336                    21860223.441
 108351213.460 8  84429551.231 7  20618550.805                    20618558.336
 123748550.018 6  96427448.96143  23548566.727                    23548576.055
 120446508.233 7  93854462.96644  22920207.211                    22920215.730
 112301272.910 8  87507511.55145  21370223.648                    21370232.250
 122154975.657 7  95185716.27544  23245325.930                    23245336.309
 11  8 10 18 13  0.0000000  0 10G24G01G19G11G08G07G03G28G13G23
 126224268.944 6  98356549.56643  24019655.125                    24019668.813
 129285080.383 6 100741652.937 6  24602134.188                    24602146.809
 113620977.219 8  88535851.42946  21621354.711                    21621360.852
 118359472.319 7  92228204.07344  22523057.227                    22523066.195
 114805895.423 8  89459174.86845  21846835.219                    21846844.207
 108318099.004 8  84403747.759 8  20612249.367                    20612257.340
 123854969.871 6  96510373.44243  23568816.977                    23568826.813
 120405413.434 7  93822441.07845  22912387.117                    22912395.727
 112386233.754 8  87573714.75145  21386391.008                    21386400.047
 122267105.026 7  95273089.59344  23266663.563                    23266673.277
 11  8 10 18 13 30.0000000  0 10G24G01G19G11G08G07G03G28G13G23
 126149689.641 6  98298435.98043  24005462.266                    24005476.711
 129272801.691 6 100732085.209 6  24599798.094                    24599810.910
 113684182.470 8  88585102.24646  21633382.375                    21633388.238
 118294266.442 7  92177394.36445  22510648.328                    22510657.949
 114735663.628 8  89404448.80645  21833470.531                    21833479.191
 108285256.265 8  84378156.006 8  20605999.906                    20606007.441
 123961559.488 6  96593430.21243  23589100.742                    23589110.672
 120364489.118 7  93790552.05045  22904599.375                    22904607.910
 112471591.930 7  87640227.54745  21402634.352                    21402642.941
 122379360.182 7  95360560.89444  23288025.023                    23288034.801
 11  8 10 18 14  0.0000000  0 10G24G01G19G11G08G07G03G28G13G23
 126075116.650 6  98240327.30743  23991272.031                    23991285.414
 129260957.253 6 100722855.767 6  24597544.789                    24597557.406
 113747868.013 8  88634727.31446  21645501.102                    21645507.629
 118229353.280 7  92126812.75444  22498295.938                    22498305.523
 114665514.302 8  89349786.99345  21820121.539                    21820129.906
 108252687.268 8  84352777.558 7  20599801.844                    20599809.660
 124068315.922 6  96676616.97643  23609415.500                    23609425.535
 120323734.827 7  93758795.47845  22896844.266                    22896852.375
 112557344.678 8  87707047.81445  21418952.938                    21418961.609
 122491738.069 6  95448127.86244  23309410.398                    23309420.332
 11  8 10 18 14 30.0000000  0 10G24G01G19G11G08G07G03G28G13G23
 126000552.545 6  98182225.49743  23977082.211                    23977096.492
 129249548.145 6 100713965.587 6  24595372.938                    24595386.184
 113812030.944 8  88684724.37246  21657710.922                    21657717.445
 118164735.526 7  92076461.32544  22485999.836                    22486008.691
 114595448.800 8  89295190.51245  21806788.352                    21806797.309
 108220393.286 8  84327613.410 7  20593656.938                    20593664.824
 124175236.284 6  96759931.47043  23629761.938                    23629772.422
 120283149.251 7  93727170.40445  22889120.508                    22889129.148
 112643488.728 8  87774172.98845  21435345.695                    21435353.793
 122604235.326 7  95535787.82744  23330817.836                    23330828.027
 11  8 10 18 15  0.0000000  0 10G24G01G19G11G08G07G03G28G13G23
 125926000.795 6  98124133.40743  23962895.813                    23962909.480
 129238576.334 6 100705416.118 6  24593285.211                    24593297.945
 113876669.414 8  88735091.97446  21670011.328                    21670017.898
 118100416.662 7  92026342.79245  22473760.273                    22473769.355
 114525469.571 8  89240661.25345  21793471.898                    21793480.250
 108188377.145 8  84302665.737 7  20587564.109                    20587572.004
 124282317.969 6  96843371.68143  23650138.898                    23650149.137
 120242732.107 7  93695676.56744  22881429.531                    22881438.313
 112730022.215 8  87841601.62245  21451811.953                    21451820.934
 122716849.822 7  95623539.14143  23352247.992                    23352257.949
 11  8 10 18 15 30.0000000  0 10G24G01G19G11G08G07G03G28G13G23
 125851463.916 6  98066052.86043  23948711.469                    23948725.484
 129228042.632 6 100697208.070 6  24591280.984                    24591293.438
 113941780.928 8  88785828.18646  21682401.367                    21682408.359
 118036399.138 7  91976459.07644  22461578.094                    22461587.328
 114455577.980 8  89186200.27945  21780172.070                    21780181.266
 108156640.095 8  84277935.560 7  20581524.875                    20581532.391
 124389558.048 6  96926935.31543  23670545.992                    23670555.809
 120202482.317 7  93664313.14944  22873770.508                    22873778.539
 112816941.849 8  87909331.15945  21468352.234                    21468361.453
 122829578.326 7  95711379.30144  23373699.367                    23373709.340
 11  8 10 18 16  0.0000000  0 10G24G01G19G11G08G07G03G28G13G23
 125776944.738 6  98007986.09443  23934531.242                    23934545.047
 129217948.729 6 100689342.619 6  24589360.414                    24589372.809
 114007362.459 8  88836930.64746  21694881.086                    21694888.094
 117972685.768 7  91926812.37145  22449453.531                    22449462.887
 114385775.662 8  89131808.87645  21766889.180                    21766897.891
 108125183.919 8  84253424.238 7  20575539.148                    20575546.625
 124496954.057 6  97010620.44043  23690982.625                    23690992.418
 120162399.069 7  93633079.48145  22866142.516                    22866150.684
 112904244.988 7  87977359.50445  21484965.641                    21484974.895
 122942417.567 7  95799305.74244  23395172.617                    23395181.793
 11  8 10 18 16 30.0000000  0 10G24G01G19G11G08G07G03G28G13G23
 125702446.253 6  97949935.44943  23920353.961                    23920368.469
 129208295.795 7 100681820.860 6  24587523.523                    24587535.754
 114073412.055 8  88888397.83346  21707450.336                    21707456.918
 117909279.828 7  91877405.21344  22437387.906                    22437397.180
 114316064.925 8  89077488.82745  21753623.484                    21753632.242
 108094010.663 8  84229133.384 8  20569606.883                    20569614.375
 124604503.131 6  97094424.83543  23711449.430                    23711459.035
 120122481.546 7  93601974.96144  22858546.422                    22858554.613
 112991928.784 7  88045684.47645  21501651.258                    21501659.973
 123055364.934 7  95887316.43643  23416665.781                    23416675.477
 11  8 10 18 17  0.0000000  0 10G24G01G19G11G08G07G03G28G13G23
 125627971.465 6  97891903.25743  23906182.000                    23906196.160
 129199084.761 7 100674643.445 6  24585770.266                    24585783.199
 114139927.049 8  88940227.67446  21720108.039                    21720114.301
 117846183.970 7  91828239.68745  22425381.352                    22425390.398
 114246447.509 8  89023241.51745  21740375.805                    21740384.559
 108063122.134 8  84205064.389 7  20563728.836                    20563736.695
 124712202.478 6  97178346.34143  23731943.266                    23731953.250
 120082728.921 7  93570998.93844  22850981.586                    22850990.344
 113079990.469 7  88114303.91445  21518408.984                    21518418.242
 123168417.512 7  95975409.13343  23438179.703                    23438188.473
 11  8 10 18 17 30.0000000  0 10G24G01G19G11G08G07G03G28G13G23
 125553523.501 6  97833891.99343  23892015.219                    23892028.707
 129190317.375 7 100667811.692 6  24584101.734                    24584114.949
 114206904.991 8  88992418.25146  21732853.070                    21732859.738
 117783401.379 7  91779318.25345  22413433.563                    22413442.945
 114176925.030 8  88969068.16645  21727146.047                    21727154.320
 108032520.349 8  84181218.839 8  20557905.539                    20557913.207
 124820049.684 6  97262383.02443  23752466.141                    23752475.926
 120043140.266 7  93540150.67344  22843448.125                    22843456.680
 113168427.470 8  88183215.79545  21535238.023                    21535247.016
 123281572.247 7  96063581.39744  23459712.469                    23459722.105
 11  8 10 18 18  0.0000000  0 10G24G01G19G11G08G07G03G28G13G23
 125479105.072 6  97775903.72543  23877853.773                    23877867.512
 129181994.536 7 100661326.365 6  24582518.508                    24582530.707
 114274343.061 8  89044967.36246  21745686.398                    21745692.734
 117720934.609 7  91730642.91045  22401546.570                    22401555.750
 114107499.253 8  88914970.18145  21713934.664                    21713943.699
 108002206.754 8  84157597.847 8  20552136.977                    20552144.855
 124928041.979 6  97346532.78243  23773017.352                    23773026.086
 120003714.496 7  93509429.31245  22835945.875                    22835953.785
 113257236.368 8  88252417.45845  21552137.945                    21552146.754
 123394826.177 7  96151830.97543  23481263.625                    23481273.801
 11  8 10 18 18 30.0000000  0 10G24G01G19G11G08G07G03G28G13G23
 125404719.228 7  97717940.85243  23863698.039                    23863711.996
 129174117.819 6 100655188.626 6  24581019.586                    24581032.004
 114342239.016 8  89097873.26246  21758606.430                    21758612.918
 117658786.935 7  91682216.21945  22389720.664                    22389729.770
 114038172.159 8  88860949.07345  21700742.289                    21700750.715
 107972183.515 8  84134203.106 8  20546423.773                    20546431.789
 125036176.211 6  97430793.16043  23793593.641                    23793603.777
 119964451.211 7  93478834.59045  22828474.305                    22828482.715
 113346414.712 8  88321907.01945  21569108.164                    21569117.137
 123508176.688 6  96240155.79844  23502833.617                    23502844.000
 11  8 10 18 19  0.0000000  0 10G24G01G19G11G08G07G03G28G13G23
 125330369.037 7  97660005.73543  23849549.898                    23849564.051
 129166688.202 6 100649399.319 6  24579605.109                    24579617.602
 114410590.233 8  89151133.91446  21771613.227                    21771619.855
 117596961.088 7  91634040.29145  22377955.539                    22377964.258
 113968945.506 8  88807006.24345  21687569.242                    21687577.309
 107942452.750 8  84111036.273 7  20540766.281                    20540773.926
 125144450.374 6  97515162.54343  23814198.023                    23814208.063
 119925349.678 7  93448365.90545  22821033.531                    22821041.398
 113435959.724 7  88391682.27445  21586147.906                    21586156.691
 123621620.858 7  96328553.58743  23524421.219                    23524431.695
 11  8 10 18 19 30.0000000  0 10G24G01G19G11G08G07G03G28G13G23
 125256057.225 7  97602100.55243  23835409.047                    23835422.570
 129159707.193 6 100643959.572 6  24578276.898                    24578289.031
 114479394.041 8  89204747.24146  21784706.414                    21784713.098
 117535459.735 7  91586117.23644  22366251.742                    22366260.785
 113899821.278 8  88753143.21345  21674414.859                    21674423.223
 107913015.639 8  84088098.257 7  20535164.773                    20535172.145
 125252861.356 6  97599638.58343  23834828.008                    23834837.824
 119886408.621 7  93418022.25545  22813623.641                    22813631.652
 113525868.345 7  88461740.87245  21603257.297                    21603266.246
 123735155.441 6  96417021.81943  23546026.453                    23546037.246
 11  8 10 18 20  0.0000000  0 10G24G01G19G11G08G07G03G28G13G23
 125181787.101 7  97544227.83243  23821275.625                    23821289.547
 129153175.711 6 100638870.112 6  24577033.305                    24577046.871
 114548648.455 7  89258711.69646  21797884.305                    21797891.301
 117474286.518 7  91538449.87244  22354610.547                    22354619.605
 113830801.597 8  88699361.65345  21661280.844                    21661289.691
 107883874.520 8  84065390.884 7  20529619.313                    20529626.961
 125361406.469 6  97684219.13943  23855482.813                    23855493.164
 119847627.659 7  93387803.36845  22806243.375                    22806251.309
 113616138.065 8  88532080.84845  21620434.984                    21620444.027
 123848777.901 6  96505558.54744  23567648.367                    23567658.738
 11  8 10 18 20 30.0000000  0 10G24G01G19G11G08G07G03G28G13G23
 125107561.494 7  97486389.79043  23807151.055                    23807164.684
 129147095.020 6 100634131.925 6  24575876.852                    24575889.984
 114618351.066 8  89313025.37546  21811148.805                    21811155.512
 117413443.981 7  91491040.15845  22343033.039                    22343041.668
 113761888.275 8  88645662.98045  21648167.406                    21648175.508
 107855031.267 8  84042915.620 7  20524130.508                    20524138.152
 125470083.188 6  97768902.21943  23876163.422                    23876173.855
 119809005.753 7  93357708.40944  22798893.938                    22798902.012
 113706765.950 8  88602699.91745  21637680.648                    21637689.980
 123962485.505 7  96594161.59243  23589286.633                    23589296.750
 11  8 10 18 21  0.0000000  0 10G24G01G19G11G08G07G03G28G13G23
 125033383.684 7  97428588.99143  23793034.992                    23793048.801
 129141466.680 6 100629746.193 6  24574805.953                    24574819.145
 114688498.774 8  89367685.89846  21824497.648                    21824504.355
 117352935.035 7  91443890.38945  22331518.055                    22331526.988
 113693083.377 8  88592048.77545  21635074.078                    21635082.477
 107826488.044 8  84020674.144 8  20518698.891                    20518706.961
 125578889.003 6  97853685.89043  23896868.422                    23896879.035
 119770542.272 7  93327736.88345  22791574.453                    22791582.934
 113797749.245 8  88673595.91545  21654994.211                    21655003.520
 124076275.206 6  96682828.63144  23610939.875                    23610950.215
 11  8 10 18 21 30.0000000  0 10G24G01G19G11G08G07G03G28G13G23
 124959256.119 7  97370827.34243  23778929.227                    23778942.672
 129136291.193 6 100625713.362 6  24573820.672                    24573834.281
 114759088.928 8  89422691.18346  21837930.656                    21837936.906
 117292762.427 7  91397002.69345  22320068.164                    22320077.023
 113624388.618 8  88538520.41245  21622001.898                    21622010.711
 107798246.336 8  83998667.601 7  20513324.828                    20513332.262
 125687821.589 6  97938568.36443  23917598.352                    23917608.395
 119732235.936 7  93297887.83445  22784284.859                    22784293.391
 113889084.659 7  88744766.30245  21672375.320                    21672384.027
 124190143.914 6  96771557.22443  23632609.281                    23632619.332
 11  8 10 18 22  0.0000000  0 10G24G01G19G11G08G07G03G28G13G23
 124885182.264 7  97313107.56243  23764833.305                    23764847.059
 129131569.852 6 100622034.376 6  24572921.859                    24572934.805
 114830119.373 8  89478039.55245  21851446.875                    21851453.480
 117232929.118 7  91350379.40045  22308681.867                    22308691.219
 113555806.230 8  88485079.59945  21608950.828                    21608959.258
 107770308.405 8  83976897.778 7  20508008.586                    20508016.137
 125796877.928 6  98023547.21843  23938351.250                    23938361.324
 119694086.251 7  93268160.85045  22777025.336                    22777033.551
 113980769.865 8  88816209.25445  21689822.266                    21689831.191
 124304089.253 6  96860345.50744  23654292.633                    23654303.160
 11  8 10 18 22 30.0000000  0 10G24G01G19G11G08G07G03G28G13G23
 124811165.130 6  97255431.95943  23750748.133                    23750761.977
 129127304.190 6 100618710.482 6  24572111.414                    24572123.336
 114901587.043 8  89533728.61145  21865047.148                    21865053.238
 117173438.012 7  91304022.74545  22297361.008                    22297370.219
 113487337.868 8  88431727.64345  21595922.008                    21595930.637
 107742675.830 8  83955365.890 8  20502750.094                    20502757.754
 125906055.082 6  98108620.24243  23959127.102                    23959136.848
 119656092.296 7  93238555.20245  22769795.094                    22769803.695
 114072801.441 7  88887922.10345  21707335.211                    21707344.508
 124418108.112 6  96949191.08443  23675989.531                    23676000.258
 11  8 10 18 23  0.0000000  0 10G24G01G19G11G08G07G03G28G13G23
 124737207.550 7  97197802.77643  23736673.969                    23736688.039
 129123494.653 6 100615742.032 6  24571385.820                    24571398.953
 114973489.636 8  89589756.57045  21878729.594                    21878736.090
 117114291.812 7  91257934.86545  22286105.625                    22286114.707
 113418985.483 8  88378466.05345  21582914.922                    21582922.867
 107715350.413 8  83934073.342 7  20497550.086                    20497558.043
 126015350.868 6  98193785.71743  23979925.367                    23979934.750
 119618253.250 7  93209070.26445  22762594.672                    22762603.012
 114165176.898 7  88959902.91045  21724913.680                    21724922.734
 124532197.509 6  97038091.61643  23697699.906                    23697711.164
 11  8 10 18 23 30.0000000  0 10G24G01G19G11G08G07G03G28G13G23
 124663312.668 7  97140222.43643  23722612.836                    23722625.844
 129120142.558 6 100613129.990 6  24570747.789                    24570761.145
 115045824.356 8  89646121.26645  21892494.328                    21892500.988
 117055493.463 7  91212118.01845  22274916.672                    22274925.699
 113350751.014 8  88325296.35645  21569930.086                    21569938.914
 107688333.865 8  83913021.468 7  20492409.289                    20492416.883
 126124762.675 6  98279041.62143  24000745.867                    24000755.668
 119580568.138 7  93179705.27145  22755423.156                    22755432.344
 114257893.516 7  89032149.53645  21742557.016                    21742566.242
 124646354.562 6  97127044.87743  23719423.945                    23719434.672
 11  8 10 18 24  0.0000000  0 10G24G01G19G11G08G07G03G28G13G23
 124589483.332 7  97082693.21443  23708563.484                    23708576.961
 129117248.594 6 100610874.962 6  24570197.422                    24570210.746
 115118588.674 8  89702820.70245  21906341.023                    21906347.484
 116997045.619 7  91166574.29145  22263795.023                    22263803.352
 113282636.445 8  88272220.07945  21556968.461                    21556976.660
 107661628.032 8  83892211.712 8  20487327.383                    20487334.879
 126234287.586 6  98364385.57643  24021587.750                    24021598.121
 119543035.934 7  93150459.44245  22748281.195                    22748289.793
 114350947.589 7  89104659.12845  21760264.563                    21760274.414
 124760576.550 7  97216048.73443  23741159.641                    23741170.379
 11  8 10 18 24 30.0000000  0 10G24G01G19G11G08G07G03G28G13G23
 124515722.752 7  97025217.54043  23694527.289                    23694540.563
 129114814.391 7 100608978.174 6  24569734.039                    24569747.246
 115191780.003 8  89759852.87645  21920268.984                    21920275.496
 116938951.606 7  91121306.29045  22252739.984                    22252748.055
 113214644.023 8  88219238.98845  21544030.164                    21544038.418
 107635235.206 7  83871645.867 7  20482305.008                    20482312.617
 126343923.140 6  98449815.82743  24042450.320                    24042460.887
 119505656.486 7  93121332.62845  22741167.859                    22741176.500
 114444336.964 7  89177429.97945  21778036.594                    21778045.613
 124874860.741 6  97305101.04943  23762907.258                    23762918.406
 11  8 10 18 25  0.0000000  0 10G24G01G19G11G08G07G03G28G13G23
 124442034.000 7  96967797.83743  23680504.469                    23680517.574
 129112840.698 7 100607440.252 6  24569358.531                    24569371.512
 115265395.932 7  89817215.89945  21934277.523                    21934284.301
 116881213.927 7  91076315.94445  22241752.617                    22241761.141
 113146775.797 8  88166354.66345  21531114.898                    21531123.121
 107609157.317 8  83851325.422 7  20477342.422                    20477350.113
 126453666.868 6  98535330.33243  24063333.969                    24063345.055
 119468428.340 7  93092323.71945  22734084.016                    22734092.340
 114538058.476 7  89250459.64445  21795871.016                    21795880.012
 124989204.209 6  97394199.56043  23784667.164                    23784677.570
 11  8 10 18 25 30.0000000  0 10G24G01G19G11G08G07G03G28G13G23
 124368419.924 7  96910436.35143  23666495.578                    23666508.992
 129111328.213 6 100606261.700 6  24569070.430                    24569084.055
 115339433.233 8  89874907.25445  21948366.523                    21948373.477
 116823834.913 7  91031605.09045  22230833.461                    22230842.652
 113079033.183 8  88113568.22645  21518224.258                    21518232.531
 107583395.601 8  83831251.344 8  20472440.109                    20472447.816
 126563516.172 6  98620927.10043  24084237.625                    24084248.680
 119431350.692 7  93063432.08545  22727027.930                    22727036.520
 114632108.992 7  89323745.68545  21813768.453                    21813777.645
 125103604.006 6  97483341.98643  23806436.758                    23806447.406
 11  8 10 18 26  0.0000000  0 10G24G01G19G11G08G07G03G28G13G23
 124294883.914 7  96853135.66243  23652502.242                    23652514.762
 129110278.335 7 100605443.643 6  24568871.000                    24568884.051
 115413889.715 8  89932925.26045  21962535.141                    21962541.598
 116766818.374 7  90987176.65845  22219983.438                    22219992.492
 113011418.625 8  88060881.56646  21505357.297                    21505366.039
 107557952.772 8  83811425.754 8  20467598.398                    20467606.379
 126673468.870 6  98706604.52443  24105161.055                    24105171.262
 119394423.006 7  93034657.29745  22720000.328                    22720009.109
 114726486.111 8  89397286.21745  21831728.016                    21831737.133
 125218057.361 6  97572526.12943  23828216.539                    23828226.996
 11  8 10 18 26 30.0000000  0 10G24G01G19G11G08G07G03G28G13G23
 124221428.386 6  96795897.71343  23638524.461                    23638537.441
 129109691.479 6 100604986.338 6  24568758.891                    24568772.145
 115488762.410 8  89991267.58845  21976783.023                    21976789.867
 116710166.196 7  90943032.14445  22209203.125                    22209212.043
 112943934.068 8  88008296.21345  21492515.594                    21492524.164
 107532829.583 8  83791849.231 8  20462817.789                    20462825.637
 126783521.588 6  98792359.84843  24126103.695                    24126113.949
 119357643.930 7  93005998.31445  22713001.945                    22713011.020
 114821186.558 7  89471078.67645  21849748.750                    21849757.859
 125332561.134 6  97661749.50743  23850006.070                    23850017.395
 11  8 10 18 27  0.0000000  0 10G24G01G19G11G08G07G03G28G13G23
 124148056.505 6  96738724.94943  23624561.922                    23624574.598
 129109568.807 6 100604890.740 6  24568735.594                    24568748.430
 115564048.774 8  90049932.24845  21991109.516                    21991116.281
 116653881.460 7  90899173.95245  22198492.602                    22198501.461
 112876581.369 8  87955813.60646  21479698.703                    21479706.770
 107508028.330 8  83772523.573 7  20458098.352                    20458105.906
 126893672.259 6  98878191.46643  24147064.523                    24147075.324
 119321012.782 7  92977454.59945  22706031.297                    22706039.879
 114916207.162 7  89545120.62845  21867830.727                    21867839.496
 125447112.739 6  97751010.20643  23871804.164                    23871815.914
 11  8 10 18 27 30.0000000  0 10G24G01G19G11G08G07G03G28G13G23
 124074771.926 6  96681620.20343  23610615.578                    23610629.098
 129109911.376 6 100605157.656 6  24568801.086                    24568813.980
 115639746.144 8  90108917.17245  22005513.953                    22005520.680
 116597967.021 7  90855604.30145  22187852.336                    22187860.816
 112809362.805 8  87903435.51345  21466907.617                    21466915.906
 107483551.167 8  83753450.447 8  20453440.344                    20453447.867
 127003918.154 6  98964097.28342  24168044.148                    24168053.363
 119284528.565 7  92949025.36345  22699088.484                    22699097.023
 115011545.281 7  89619409.98645  21885972.789                    21885981.902
 125561709.505 6  97840306.06343  23893611.594                    23893623.188
 11  8 10 18 28  0.0000000  0  9G24G01G19G11G08G07G28G13G23
 124001576.617 7  96624585.03843  23596687.766                    23596700.738
 129110719.016 6 100605786.960 6  24568955.000                    24568967.543
 115715850.943 8  90168219.58245  22019996.484                    22020003.160
 116542424.683 7  90812324.59745  22177283.313                    22177291.391
 112742279.548 8  87851162.86046  21454141.570                    21454150.383
 107459398.944 8  83734630.526 7  20448844.414                    20448852.230
 119248189.851 7  92920709.52145  22692173.508                    22692182.020
 115107197.097 7  89693943.77845  21904174.914                    21904184.414
 125676347.666 6  97929634.16343  23915427.008                    23915438.555
 11  8 10 18 28 30.0000000  0  9G24G01G19G11G08G07G28G13G23
 123928474.450 7  96567622.43043  23582776.414                    23582789.805
 129111993.417 6 100606780.017 6  24569197.430                    24569211.098
 115792361.425 8  90227838.10545  22034556.203                    22034562.844
 116487258.255 7  90769337.81645  22166785.117                    22166793.891
 112675334.487 8  87798997.89246  21441402.727                    21441410.992
 107435574.408 8  83716065.944 8  20444310.945                    20444318.539
 119211996.747 8  92892507.12945  22685286.172                    22685294.465
 115203160.140 7  89768720.08845  21922436.258                    21922445.121
 125791025.319 6  98018993.06243  23937250.031                    23937260.516
 11  8 10 18 29  0.0000000  0  9G24G01G19G11G08G07G28G13G23
 123855468.404 7  96510734.74343  23568884.023                    23568897.285
 129113735.558 7 100608137.488 6  24569529.008                    24569541.969
 115869274.827 8  90287770.59045  22049192.180                    22049198.781
 116432470.385 7  90726646.01445  22156359.477                    22156368.246
 112608529.908 8  87746942.39746  21428690.070                    21428698.398
 107412079.217 8  83697758.005 8  20439839.531                    20439846.941
 119175947.843 7  92864417.10845  22678425.992                    22678434.887
 115299431.631 7  89843736.75145  21940756.258                    21940765.176
 125905739.409 7  98108380.34543  23959079.422                    23959090.785
 11  8 10 18 29 30.0000000  0  9G24G01G19G11G08G07G28G13G23
 123782561.957 7  96453924.66443  23555009.945                    23555023.719
 129115946.422 6 100609860.228 6  24569949.805                    24569962.602
 115946588.684 8  90348015.10845  22063904.766                    22063911.438
 116378063.917 7  90684251.40745  22146006.031                    22146014.957
 112541867.982 8  87694998.05346  21416004.344                    21416013.227
 107388915.588 8  83679708.416 8  20435431.703                    20435439.551
 119140042.834 7  92836439.20445  22671593.695                    22671602.336
 115396009.001 7  89918991.75545  21959134.297                    21959143.699
 126020487.556 6  98197794.19843  23980915.805                    23980927.445
 11  8 10 18 30  0.0000000  0  9G24G01G19G11G08G07G28G13G23
 123709757.968 7  96397194.42143  23541156.156                    23541169.781
 129118626.468 7 100611948.579 6  24570459.695                    24570472.238
 116024299.701 8  90408569.10645  22078692.703                    22078699.559
 116324041.437 7  90642156.00445  22135725.734                    22135735.039
 112475350.452 8  87643166.22646  21403346.992                    21403355.363
 107366084.833 8  83661918.213 8  20431087.484                    20431094.996
 119104280.651 7  92808572.59545  22664788.164                    22664797.148
 115492888.997 7  89994482.58545  21977569.672                    21977578.934
 126135266.638 6  98287232.12543  24002757.234                    24002769.305
 11  8 10 18 30 30.0000000  0  9G24G01G19G11G08G07G28G13G23
 123637059.041 7  96340546.04544  23527322.031                    23527334.602
 129121776.134 7 100614402.825 6  24571058.930                    24571071.742
 116102405.466 8  90469430.69745  22093555.617                    22093562.703
 116270405.271 7  90600361.63545  22125519.219                    22125528.488
 112408979.011 8  87591448.23246  21390716.625                    21390725.484
 107343588.556 8  83644388.641 8  20426806.461                    20426814.055
 119068660.149 7  92780816.38445  22658010.148                    22658018.480
 115590068.273 7  90070206.60645  21996062.508                    21996071.793
 126250073.602 6  98376691.78443  24024604.781                    24024616.574
 11  8 10 18 31  0.0000000  0  9G24G01G19G11G08G07G28G13G23
 123564468.907 7  96283982.44244  23513508.188                    23513520.906
 129125396.922 6 100617224.220 6  24571748.602                    24571760.242
 116180903.474 7  90530597.93445  22108492.563                    22108500.328
 116217158.934 7  90558871.00645  22115386.773                    22115395.516
 112342756.580 8  87539846.35746  21378115.078                    21378123.145
 107321429.289 8  83627121.675 7  20422589.719                    20422597.285
 119033180.840 7  92753170.20145  22651258.461                    22651266.867
 115687544.337 7  90146161.89145  22014611.711                    22014621.184
 126364906.125 6  98466171.31543  24046456.906                    24046469.285
 11  8 10 18 31 30.0000000  0  9G24G01G19G11G08G07G28G13G23
 123491990.374 7  96227505.81244  23499715.625                    23499728.680
 129129488.939 6 100620412.794 6  24572526.617                    24572540.191
 116259790.892 7  90592068.60245  22123504.977                    22123512.000
 116164304.895 7  90517686.07745  22105329.094                    22105337.805
 112276685.102 8  87488362.09446  21365542.242                    21365550.898
 107299608.714 8  83610118.627 7  20418437.563                    20418445.031
 118997841.631 7  92725633.19545  22644533.703                    22644542.137
 115785313.933 7  90222345.89745  22033216.602                    22033225.934
 126479761.263 6  98555668.48543  24068313.125                    24068325.918
 11  8 10 18 32  0.0000000  0  9G24G01G19G11G08G07G28G13G23
 123419625.978 7  96171118.13243  23485945.359                    23485957.738
 129134053.156 6 100623969.320 6  24573395.375                    24573408.523
 116339064.469 8  90653840.17645  22138590.188                    22138597.379
 116111845.090 7  90476808.33445  22095345.789                    22095354.777
 112210766.042 8  87436996.59946  21352998.008                    21353006.371
 107278127.791 8  83593380.236 8  20414349.719                    20414357.098
 118962641.563 7  92698204.58245  22637834.750                    22637843.379
 115883374.064 7  90298756.28445  22051876.945                    22051886.734
 126594636.044 6  98645180.94743  24090172.586                    24090185.781
 11  8 10 18 32 30.0000000  0  9G24G01G19G11G08G07G28G13G23
 123347379.482 7  96114822.31844  23472197.398                    23472209.949
 129139090.701 6 100627894.647 6  24574354.141                    24574366.988
 116418722.158 7  90715911.07145  22153748.797                    22153755.785
 116059783.137 7  90436240.61345  22085439.109                    22085447.684
 112145002.692 8  87385752.44846  21340483.719                    21340492.465
 107256989.683 8  83576908.977 8  20410327.086                    20410334.605
 118927580.178 7  92670884.04545  22631163.688                    22631171.895
 115981722.038 7  90375390.98045  22070591.945                    22070601.160
 126709528.307 6  98734707.04643  24112036.813                    24112049.223
 11  8 10 18 33  0.0000000  0  9G24G01G19G11G08G07G28G13G23
 123275254.074 7  96058620.84344  23458472.078                    23458484.875
 129144601.802 6 100632188.973 6  24575402.688                    24575415.598
 116498760.893 7  90778278.87345  22168979.203                    22168986.348
 116008121.188 7  90395984.57045  22075607.867                    22075616.801
 112079396.589 8  87334630.81846  21327999.242                    21328007.859
 107236195.595 8  83560705.785 7  20406370.258                    20406377.813
 118892656.129 7  92643670.52545  22624517.492                    22624525.652
 116080354.469 7  90452247.33045  22089361.203                    22089370.680
 126824434.887 6  98824244.29743  24133903.148                    24133915.523
 11  8 10 18 33 30.0000000  0 10G24G17G01G19G11G08G07G28G13G23
 123203252.475 7  96002515.86444  23444770.586                    23444783.102
 129523612.94116 100927601.64916  24647547.195                    24647561.051
 129150586.945 6 100636852.702 6  24576541.602                    24576554.793
 116579177.961 7  90840941.48145  22184282.195                    22184289.051
 115956861.832 7  90356042.24245  22065853.883                    22065862.207
 112013949.647 8  87283633.20646  21315545.219                    21315554.191
 107215747.289 8  83544772.037 8  20402478.758                    20402486.633
 118857868.784 7  92616563.52945  22617898.031                    22617906.453
 116179268.530 7  90529323.09445  22108183.984                    22108193.902
 126939352.805 6  98913790.41143  24155771.547                    24155783.852
 11  8 10 18 34  0.0000000  0 10G24G17G01G19G11G08G07G28G13G23
 123131377.725 7  95946509.73344  23431092.844                    23431105.848
 129418771.669 6 100845907.262 6  24627596.195                    24627610.152
 129157046.925 6 100641886.452 6  24577770.492                    24577783.410
 116659970.530 7  90903896.67545  22199656.805                    22199663.457
 115906007.660 7  90316415.63645  22056176.492                    22056185.297
 111948663.968 8  87232761.25346  21303121.617                    21303130.035
 107195646.518 8  83529109.094 8  20398653.992                    20398661.547
 118823217.047 7  92589562.20645  22611303.539                    22611312.094
 116278460.979 7  90606615.80845  22127060.086                    22127069.285
 127054279.314 6  99003343.18943  24177641.969                    24177653.977
 11  8 10 18 34 30.0000000  0 10G24G17G01G19G11G08G07G28G13G23
 123059632.879 7  95890604.79944  23417440.086                    23417453.336
 129314030.014 6 100764290.512 6  24607664.609                    24607678.445
 129163982.076 6 100647290.446 6  24579090.820                    24579103.684
 116741135.579 7  90967142.12845  22215101.734                    22215108.355
 115855561.309 7  90277106.81045  22046576.609                    22046585.852
 111883542.043 8  87182016.90046  21290729.375                    21290738.219
 107175894.677 8  83513718.052 8  20394895.305                    20394902.852
 118788700.089 7  92562665.89345  22604735.086                    22604743.379
 116377928.720 7  90684123.03145  22145987.727                    22145997.219
 127169211.737 6  99092900.56143  24199513.453                    24199525.340
 11  8 10 18 35  0.0000000  0 10G24G17G01G19G11G08G07G28G13G23
 122988021.172 7  95834803.61544  23403813.016                    23403825.922
 129209390.638 6 100682753.466 6  24587752.180                    24587765.828
 129171393.417 6 100653065.499 6  24580500.742                    24580513.582
 116822670.505 7  91030675.79845  22230617.461                    22230624.477
 115805525.739 7  90238118.07645  22037055.164                    22037064.133
 111818586.105 8  87131401.88746  21278368.406                    21278377.402
 107156494.011 8  83498600.652 7  20391203.586                    20391211.074
 118754317.156 7  92535874.02745  22598192.375                    22598201.047
 116477668.770 7  90761842.43544  22164967.953                    22164977.336
 127284147.442 6  99182460.51643  24221385.000                    24221397.016
 11  8 10 18 35 30.0000000  0 10G24G17G01G19G11G08G07G28G13G23
 122916545.725 7  95779108.61244  23390211.125                    23390224.914
 129104855.538 6 100601297.653 6  24567859.000                    24567874.520
 129179281.076 6 100659211.678 6  24582001.844                    24582014.746
 116904572.704 7  91094495.64345  22246202.961                    22246209.766
 115755903.248 7  90199451.22045  22027612.391                    22027621.813
 111753798.046 8  87080917.69046  21266039.828                    21266048.699
 107137446.175 8  83483758.195 8  20387579.336                    20387586.719
 118720067.362 7  92509185.91245  22591675.258                    22591683.496
 116577678.249 7  90839771.79945  22183999.375                    22184008.957
 127399083.199 6  99272020.49443  24243256.859                    24243269.223
 11  8 10 18 36  0.0000000  0 10G24G17G01G19G11G08G07G28G13G23
 122845210.224 7  95723522.63943  23376637.047                    23376649.391
 129000427.135 6 100519925.025 5  24547986.891                    24548001.375
 129187646.174 6 100665729.949 6  24583593.938                    24583606.590
 116986839.765 7  91158599.80545  22261858.172                    22261864.906
 115706697.053 7  90161108.74845  22018248.570                    22018257.758
 111689180.729 8  87030566.53346  21253743.711                    21253752.266
 107118753.864 8  83469192.739 8  20384022.094                    20384029.523
 118685950.291 7  92482601.21045  22585182.547                    22585190.328
 116677954.643 7  90917909.14945  22203081.453                    22203090.648
 127514017.306 6  99361579.20043  24265128.305                    24265140.527
 11  8 10 18 36 30.0000000  0 10G24G17G01G19G11G08G07G28G13G23
 122774016.557 7  95668047.20643  23363088.555                    23363101.148
 128896106.739 6 100438636.490 5  24528135.477                    24528149.574
 129196488.590 6 100672620.132 6  24585276.797                    24585289.402
 117069468.008 7  91222985.40045  22277581.805                    22277588.664
 115657908.338 7  90123091.60145  22008964.656                    22008972.949
 111624735.150 8  86980349.22146  21241480.172                    21241488.340
 107100417.072 8  83454904.341 8  20380532.203                    20380540.180
 118651963.846 7  92456118.30645  22578715.086                    22578723.520
 116778494.014 7  90996251.41344  22222213.781                    22222222.477
 127628945.959 6  99451133.65443  24286998.258                    24287011.223
 11  8 10 18 37  0.0000000  0 10G24G17G01G19G11G08G07G28G13G23
 122702968.614 7  95612685.27643  23349568.391                    23349581.195
 128791896.825 6 100357434.108 6  24508305.039                    24508319.426
 129205809.012 6 100679882.795 6  24587049.773                    24587062.805
 117152455.150 7  91287650.67245  22293373.578                    22293380.844
 115609540.448 7  90085402.37045  21999760.609                    21999769.426
 111560464.298 8  86930268.04846  21229249.563                    21229258.090
 107082438.590 8  83440895.128 8  20377111.383                    20377119.094
 118618107.615 7  92429736.86645  22572272.406                    22572280.738
 116879293.856 7  91074796.65945  22241395.008                    22241404.426
 127743867.176 6  99540682.28043  24308867.422                    24308880.613
 11  8 10 18 37 30.0000000  0 10G24G17G01G19G11G08G07G28G13G23
 122632069.178 7  95557439.08443  23336077.133                    23336089.422
 128687799.257 6 100276319.309 6  24488495.273                    24488509.770
 129215607.591 6 100687518.039 6  24588914.664                    24588927.711
 117235797.913 7  91352593.03545  22309233.172                    22309240.285
 115561595.761 7  90048042.91645  21990636.773                    21990645.195
 111496370.034 8  86880324.46846  21217053.016                    21217061.234
 107064819.454 8  83427165.932 8  20373758.477                    20373766.078
 118584380.946 7  92403456.38145  22565854.586                    22565862.789
 116980350.527 7  91153542.00545  22260625.563                    22260635.301
 127858777.419 6  99630222.40042  24330734.875                    24330747.195
 11  8 10 18 38  0.0000000  0 10G24G17G01G19G11G08G07G28G13G23
 122561321.581 7  95502311.19943  23322614.188                    23322625.988
 128583816.335 6 100195293.808 6  24468707.859                    24468722.695
 129225885.323 6 100695526.649 6  24590870.773                    24590883.434
 117319494.033 7  91417810.75745  22325160.430                    22325167.672
 115514076.940 7  90011015.30145  21981594.438                    21981603.078
 111432455.070 8  86830520.61146  21204890.242                    21204898.832
 107047562.117 8  83413718.647 8  20370474.586                    20370482.469
 118550782.837 7  92377276.08445  22559461.227                    22559468.977
 117081661.307 7  91232485.35045  22279904.672                    22279914.027
 127973674.070 6  99719751.89443  24352599.242                    24352611.621
 11  8 10 18 38 30.0000000  0 10G24G17G01G19G11G08G07G28G13G23
 122490728.616 7  95447303.80543  23309181.109                    23309192.598
 128479949.764 6 100114359.004 6  24448942.961                    24448957.172
 129236641.973 6 100703908.438 6  24592917.914                    24592929.984
 117403540.343 7  91483301.34845  22341153.313                    22341160.461
 115466986.260 7  89974321.29745  21972633.242                    21972641.832
 111368721.243 8  86780857.89246  21192762.492                    21192770.367
 107030667.951 8  83400554.364 8  20367259.383                    20367267.563
 118517312.316 7  92351195.18845  22553091.703                    22553100.305
 117183223.157 7  91311624.33844  22299231.211                    22299240.523
 128088554.801 6  99809268.99343  24374459.813                    24374473.508
 11  8 10 18 39  0.0000000  0 10G24G17G01G19G11G08G07G28G13G23
 122420293.401 7  95392419.35843  23295777.297                    23295789.207
 128376201.982 6 100033516.750 6  24429200.023                    24429214.727
 129247878.452 6 100712664.088 6  24595055.867                    24595068.180
 117487934.238 7  91549062.79545  22357213.555                    22357220.621
 115420326.392 8  89937962.99245  21963754.602                    21963762.914
 111305170.904 8  86731338.15546  21180668.992                    21180677.523
 107014138.991 8  83387674.642 8  20364114.148                    20364122.102
 118483968.865 7  92325213.30545  22546746.727                    22546755.203
 117285032.788 7  91390956.41344  22318604.789                    22318614.852
 128203416.814 6  99898771.51042  24396318.125                    24396331.289
 11  8 10 18 39 30.0000000  0 10G24G17G01G19G11G08G07G28G13G23
 122350019.602 7  95337660.68743  23282404.109                    23282416.160
 128272575.431 6  99952768.963 6  24409480.203                    24409494.859
 129259595.641 6 100721794.321 6  24597285.609                    24597298.621
 117572673.090 7  91615093.01845  22373338.773                    22373346.000
 115374100.077 7  89901942.50545  21954957.945                    21954966.051
 111241806.645 8  86681963.41546  21168611.367                    21168619.789
 106997977.318 8  83375081.127 8  20361038.961                    20361046.645
 118450751.581 7  92299329.73545  22540425.758                    22540433.684
 117387087.874 7  91470479.73744  22338025.094                    22338034.926
 128318257.824 6  99988257.63243  24418171.664                    24418185.414
 11  8 10 18 40  0.0000000  0 10G24G17G01G19G11G08G07G28G13G23
 122279909.632 7  95283029.69043  23269062.648                    23269074.855
 128169071.537 6  99872116.780 6  24389784.664                    24389798.965
 129271792.944 7 100731298.678 6  24599606.367                    24599619.453
 117657753.712 7  91681389.56545  22389529.375                    22389536.102
 115328309.424 7  89866261.50445  21946243.539                    21946252.660
 111178630.158 8  86632734.99446  21156588.945                    21156597.602
 106982183.758 8  83362774.441 8  20358033.531                    20358041.117
 118417659.063 7  92273543.39545  22534128.336                    22534136.598
 117489384.692 7  91550191.40745  22357492.141                    22357501.621
 128433074.453 6 100077724.77543  24440021.078                    24440034.051
 11  8 10 18 40 30.0000000  0 10G24G17G01G19G11G08G07G28G13G23
 122209967.986 7  95228529.83343  23255753.188                    23255765.406
 128065693.364 6  99791562.568 6  24370112.305                    24370126.504
 129284472.128 6 100741178.543 6  24602019.367                    24602032.406
 117743174.258 7  91747950.98745  22405784.109                    22405790.945
 115282957.720 7  89830922.52945  21937613.617                    21937622.391
 111115644.750 8  86583655.46346  21144603.227                    21144611.770
 106966761.305 8  83350756.940 8  20355098.805                    20355106.516
 118384691.645 7  92247854.52245  22527854.594                    22527863.375
 117591921.008 7  91630089.74245  22377004.398                    22377013.891
 128547865.189 5 100167171.78742  24461864.617                    24461878.137
 11  8 10 18 41  0.0000000  0  9G24G17G01G19G11G08G07G28G13
 122140196.596 7  95174162.66644  23242475.281                    23242488.605
 127962442.309 6  99711107.412 6  24350463.992                    24350477.684
 129297632.426 6 100751433.295 6  24604523.328                    24604536.848
 117828931.110 7  91814774.47345  22422103.016                    22422110.207
 115238046.881 7  89795927.09645  21929067.547                    21929076.238
 111052851.948 8  86534726.01346  21132654.414                    21132662.598
 106951710.816 8  83339029.268 8  20352234.531                    20352242.609
 118351847.511 7  92222261.71845  22521604.492                    22521613.281
 117694693.081 7  91710171.75944  22396560.922                    22396571.270
 11  8 10 18 41 30.0000000  0  9G24G17G01G19G11G08G07G28G13
 122070598.964 7  95119930.87544  23229231.898                    23229244.520
 127859320.345 6  99630752.857 6  24330840.250                    24330854.172
 129311274.501 6 100762063.451 6  24607119.367                    24607132.773
 117915021.669 7  91881857.97845  22438485.680                    22438492.297
 115193579.399 7  89761277.13345  21920605.672                    21920614.461
 110990254.162 8  86485948.52046  21120742.211                    21120750.152
 106937034.320 8  83327593.030 8  20349441.680                    20349449.488
 118319125.977 7  92196764.44145  22515378.086                    22515385.891
 117797698.455 7  91790435.55744  22416162.500                    22416172.289
 11  8 10 18 42  0.0000000  0  9G24G17G01G19G11G08G07G28G13
 122001177.551 7  95065836.40244  23216021.797                    23216033.840
 127756329.077 6  99550500.195 6  24311242.047                    24311254.797
 129325398.169 6 100773068.868 6  24609807.531                    24609820.422
 118001442.600 7  91949198.92745  22454930.695                    22454938.156
 115149556.895 7  89726973.90745  21912228.398                    21912237.234
 110927853.074 8  86437324.30646  21108867.867                    21108875.828
 106922732.740 8  83316448.935 8  20346720.172                    20346727.586
 118286525.808 7  92171361.74445  22509174.039                    22509182.664
 117900933.227 7  91870878.11744  22435807.656                    22435817.281
 11  8 10 18 42 30.0000000  0  9G24G17G01G19G11G08G07G28G13
 121931935.675 7  95011881.82443  23202845.234                    23202857.039
 127653470.687 6  99470351.028 6  24291667.836                    24291681.711
 129340003.718 6 100784449.789 6  24612586.805                    24612599.551
 118088191.401 7  92016795.36545  22471439.063                    22471446.051
 115105982.317 7  89693019.72745  21903936.070                    21903944.836
 110865651.439 8  86388855.50846  21097031.023                    21097039.570
 106908808.330 8  83305598.738 8  20344070.500                    20344078.543
 118254046.286 7  92146053.06245  22502993.844                    22503002.094
 118004394.370 7  91951497.07545  22455495.320                    22455505.012
 11  8 10 18 43  0.0000000  0  9G24G17G01G19G11G08G07G28G13
 121862877.048 7  94958070.05443  23189703.039                    23189715.621
 127550747.846 6  99390307.444 5  24272120.492                    24272133.535
 129355091.896 6 100796206.775 6  24615457.703                    24615470.906
 118175265.397 7  92084645.19745  22488008.211                    22488015.617
 115062858.033 7  89659416.41045  21895730.086                    21895738.742
 110803651.529 8  86340543.90146  21085233.039                    21085241.801
 106895263.231 8  83295044.106 8  20341492.984                    20341500.961
 118221686.886 7  92120837.98345  22496836.086                    22496844.570
 118108079.127 7  92032290.26544  22475226.313                    22475235.965
 11  8 10 18 43 30.0000000  0  9G24G17G01G19G11G08G07G28G13
 121794003.932 7  94904402.81544  23176596.602                    23176609.418
 127448161.946 6  99310370.630 6  24252598.422                    24252612.016
 129370662.195 6 100808339.479 6  24618420.500                    24618433.156
 118262661.298 7  92152745.85745  22504639.570                    22504646.555
 115020185.922 7  89626165.44445  21887609.852                    21887618.461
 110741855.306 8  86292391.00546  21073473.477                    21073481.754
 106882097.892 8  83284785.392 8  20338987.625                    20338995.457
 118189445.976 7  92095715.22145  22490700.477                    22490709.234
 118211983.939 7  92113254.94244  22494998.961                    22495008.652
 11  8 10 18 44  0.0000000  0 10G24G17G01G26G19G11G08G07G28G13
 121725319.455 7  94850882.56444  23163526.648                    23163539.199
 127345715.189 6  99230542.250 6  24233103.398                    24233117.211
 129386715.224 6 100820848.316 6  24621475.523                    24621488.723
 127353973.70416  99236930.58153  24234662.891                    24234672.887
 118350376.406 7  92221095.26345  22521330.969                    22521337.969
 114977968.659 7  89593268.90645  21879575.891                    21879584.641
 110680265.385 8  86244398.86946  21061753.625                    21061761.777
 106869314.441 8  83274824.263 8  20336555.430                    20336562.859
 118157322.834 7  92070684.22445  22484587.609                    22484595.867
 118316105.920 7  92194388.81144  22514812.242                    22514822.441
 11  8 10 18 44 30.0000000  0 10G24G17G01G26G19G11G08G07G28G13
 121656827.393 7  94797512.23644  23150493.031                    23150505.605
 127243409.747 6  99150823.920 6  24213635.156                    24213648.727
 129403251.534 6 100833733.713 6  24624622.742                    24624636.121
 127265346.150 6  99167870.24743  24217797.719                    24217808.715
 118438408.382 7  92289691.56145  22538083.375                    22538090.215
 114936209.036 8  89560728.96345  21871629.344                    21871638.492
 110618884.361 8  86196569.50646  21050072.664                    21050081.477
 106856914.670 8  83265162.094 8  20334195.773                    20334203.328
 118125317.129 7  92045744.74445  22478497.375                    22478505.371
 118420442.586 7  92275689.96744  22534666.867                    22534676.758
 11  8 10 18 45  0.0000000  0 10G24G17G01G26G19G11G08G07G28G13
 121588530.598 7  94744294.07544  23137496.594                    23137508.922
 127141247.697 6  99071217.330 6  24194194.289                    24194207.988
 129420270.851 6 100846995.493 6  24627860.930                    24627874.453
 127177097.038 6  99099104.75543  24201004.281                    24201016.113
 118526754.074 7  92358532.32145  22554894.672                    22554901.844
 114894909.228 8  89528547.32845  21863770.672                    21863779.164
 110557714.357 8  86148904.57746  21038432.805                    21038441.191
 106844900.509 8  83255800.401 8  20331909.344                    20331917.063
 118093427.925 7  92020896.02845  22472429.289                    22472437.141
 118524990.549 7  92357155.78444  22554562.258                    22554571.965
 11  8 10 18 45 30.0000000  0 10G24G17G01G26G19G11G08G07G28G13
 121520431.938 7  94691230.32044  23124537.484                    23124550.332
 127039230.890 6  98991723.961 6  24174781.141                    24174794.320
 129437773.164 6 100860633.654 6  24631191.969                    24631204.828
 127089229.087 6  99030636.30543  24184283.539                    24184294.715
 118615410.508 7  92427615.22445  22571765.234                    22571772.328
 114854071.126 8  89496725.45045  21855998.969                    21856007.523
 110496757.382 8  86101405.64846  21026832.875                    21026841.203
 106833273.429 8  83246740.330 8  20329696.984                    20329704.859
 118061654.051 7  91996137.20345  22466382.227                    22466391.145
 118629746.603 7  92438783.75044  22574496.727                    22574506.391
 11  8 10 18 46  0.0000000  0 10G24G17G01G26G19G11G08G07G28G13
 121452534.404 7  94638323.27244  23111617.547                    23111629.301
 126937361.014 6  98912345.043 6  24155395.359                    24155409.137
 129455758.337 6 100874647.982 6  24634614.602                    24634627.199
 127001744.848 6  98962466.83043  24167636.563                    24167646.625
 118704374.766 7  92496937.97745  22588695.086                    22588701.766
 114813696.677 8  89465264.86545  21848315.953                    21848324.652
 110436015.760 8  86054074.52046  21015274.289                    21015282.660
 106822034.563 8  83237982.765 8  20327557.797                    20327566.211
 118029994.464 7  91971467.42545  22460358.078                    22460366.313
 118734707.236 7  92520571.10844  22594470.367                    22594480.641
 11  8 10 18 46 30.0000000  0 10G24G17G01G26G19G11G08G07G28G13
 121384841.636 6  94585575.79344  23098735.242                    23098747.699
 126835640.526 6  98833082.514 6  24136038.602                    24136051.910
 129474227.048 6 100889039.168 6  24638129.680                    24638142.363
 126914647.459 6  98894598.81743  24151060.883                    24151072.535
 118793644.248 7  92566498.58645  22605682.016                    22605689.066
 114773788.752 7  89434167.80445  21840721.781                    21840730.617
 110375492.337 8  86006913.41946  21003756.898                    21003765.438
 106811186.288 8  83229529.548 8  20325493.758                    20325501.457
 117998448.677 7  91946886.32245  22454355.102                    22454362.953
 118839870.130 7  92602516.06244  22614482.344                    22614492.094
 11  8 10 18 47  0.0000000  0 10G24G17G01G26G19G11G08G07G28G13
 121317356.363 6  94532989.97844  23085893.734                    23085905.984
 126734070.980 6  98753937.634 6  24116710.781                    24116723.922
 129493179.010 6 100903806.905 6  24641735.070                    24641748.453
 126827939.556 6  98827034.29142  24134561.406                    24134572.504
 118883215.918 7  92636294.64845  22622727.391                    22622733.965
 114734349.286 7  89403435.78545  21833216.453                    21833225.328
 110315188.940 8  85959923.76446  20992281.516                    20992289.895
 106800729.628 8  83221381.478 8  20323503.977                    20323511.750
 117967015.766 7  91922393.15045  22448373.555                    22448381.770
 118945231.600 7  92684615.77744  22634531.977                    22634541.602
 11  8 10 18 47 30.0000000  0 10G24G17G01G26G19G11G08G07G28G13
 121250081.802 6  94480568.36644  23073091.500                    23073103.484
 126632654.840 6  98674912.306 6  24097411.266                    24097425.066
 129512614.426 6 100918951.350 6  24645433.492                    24645446.648
 126741623.686 6  98759775.25842  24118135.266                    24118147.094
 118973087.139 7  92706324.13445  22639829.281                    22639836.102
 114695380.615 7  89373070.61945  21825800.945                    21825809.895
 110255108.263 8  85913107.66246  20980848.539                    20980856.871
 106790666.281 8  83213539.901 8  20321589.070                    20321596.801
 117935694.313 7  91897986.84545  22442413.211                    22442421.555
 119050788.586 7  92766867.85144  22654618.539                    22654628.422
 11  8 10 18 48  0.0000000  0 10G24G17G01G26G19G11G08G07G28G13
 121183020.851 7  94428313.16944  23060330.539                    23060342.461
 126531394.001 6  98596007.916 6  24078142.016                    24078154.711
 129532533.328 6 100934472.551 6  24649224.117                    24649237.371
 126655702.968 6  98692824.14142  24101785.633                    24101796.871
 119063254.917 7  92776584.69845  22656987.531                    22656994.684
 114656885.103 7  89343074.14445  21818475.914                    21818484.609
 110195252.269 8  85866466.64146  20969458.352                    20969466.520
 106780998.057 8  83206006.204 8  20319749.109                    20319757.152
 117904483.855 7  91873667.02345  22436474.031                    22436482.313
 119156538.369 7  92849270.12644  22674742.430                    22674752.598
 11  8 10 18 48 30.0000000  0 10G24G17G01G26G19G11G08G07G28G13
 121116176.349 7  94376226.65444  23047610.000                    23047621.988
 126430290.420 6  98517226.124 6  24058902.195                    24058915.910
 129552935.368 6 100950370.242 6  24653106.664                    24653119.188
 126570180.107 6  98626182.99342  24085511.297                    24085522.188
 119153716.457 7  92847074.18845  22674202.141                    22674208.535
 114618864.525 7  89313447.74545  21811240.828                    21811249.449
 110135623.463 8  85820002.65246  20958111.055                    20958120.043
 106771726.149 8  83198781.340 8  20317984.695                    20317992.617
 117873383.430 7  91849432.94445  22430555.414                    22430564.242
 119262477.533 7  92931819.95744  22694901.648                    22694912.543
 11  8 10 18 49  0.0000000  0 10G24G17G01G26G19G11G08G07G28G13
 121049551.915 7  94324311.58344  23034931.523                    23034943.492
 126329346.304 6  98438568.602 6  24039692.938                    24039706.145
 129573821.223 6 100966644.902 6  24657080.813                    24657093.793
 126485057.884 6  98559854.07342  24069313.305                    24069323.895
 119244469.156 7  92917790.54245  22691471.813                    22691479.090
 114581321.469 7  89284193.43645  21804096.367                    21804104.840
 110076225.006 8  85773718.14846  20946808.063                    20946816.457
 106762852.721 8  83191866.963 8  20316295.977                    20316304.012
 117842392.539 7  91825284.22345  22424658.172                    22424666.465
 119368603.281 7  93014515.19044  22715097.656                    22715107.637
 11  8 10 18 49 30.0000000  0 10G24G17G01G26G19G11G08G07G28G13
 120983150.445 7  94272570.27344  23022296.000                    23022307.977
 126228563.069 6  98360036.376 6  24020515.055                    24020527.070
 129595190.208 6 100983296.042 6  24661146.938                    24661160.156
 126400338.936 6  98493839.38243  24053191.164                    24053201.703
 119335509.984 7  92988731.41545  22708796.078                    22708803.188
 114544257.770 7  89255312.65945  21797043.672                    21797052.145
 110017058.293 8  85727614.22346  20935549.203                    20935557.566
 106754378.936 8  83185263.999 8  20314683.820                    20314692.246
 117811510.077 7  91801219.99145  22418781.391                    22418790.270
 119474912.501 7  93097353.39444  22735327.570                    22735337.563
 11  8 10 18 50  0.0000000  0 10G24G17G01G26G19G11G08G07G28G13
 120916975.093 7  94221005.15944  23009702.961                    23009714.273
 126127943.068 6  98281631.352 6  24001366.820                    24001379.477
 129617042.543 6 101000323.818 6  24665305.242                    24665318.953
 126316026.135 6  98428141.11243  24037147.781                    24037158.414
 119426836.070 7  93059894.54645  22726175.195                    22726181.969
 114507675.669 7  89226807.14645  21790082.094                    21790090.867
 109958125.991 8  85681692.96446  20924334.813                    20924343.227
 106746306.461 8  83178973.758 8  20313147.477                    20313155.457
 117780735.114 7  91777239.51145  22412925.195                    22412933.520
 119581402.037 7  93180332.09144  22755591.898                    22755602.203
 11  8 10 18 50 30.0000000  0 10G24G17G01G26G19G11G08G07G28G13
 120851028.899 7  94169618.58744  22997153.875                    22997165.457
 126027487.925 6  98203354.776 6  23982251.539                    23982264.035
 129639378.220 6 101017728.210 6  24669556.688                    24669569.719
 126232121.894 7  98362761.30943  24021180.445                    24021191.172
 119518444.595 7  93131277.78145  22743607.477                    22743614.977
 114471577.397 8  89198678.64545  21783213.063                    21783221.473
 109899430.302 8  85635956.07646  20913165.125                    20913173.680
 106738636.646 8  83172997.260 8  20311688.250                    20311695.859
 117750066.707 7  91753342.06845  22407089.414                    22407097.578
 119688068.699 7  93263448.79344  22775889.859                    22775900.680
 11  8 10 18 51  0.0000000  0 10G24G17G01G26G19G11G08G07G28G13
 120785314.846 7  94118412.92744  22984648.273                    22984660.410
 125927200.025 7  98125208.520 6  23963166.914                    23963179.020
 129662196.941 6 101035508.991 6  24673899.344                    24673912.172
 126148629.010 7  98297701.94943  24005292.727                    24005303.125
 119610332.771 7  93202878.90745  22761092.805                    22761100.230
 114435964.995 8  89170928.74445  21776435.977                    21776444.273
 109840973.517 8  85590405.34446  20902041.406                    20902049.480
 106731371.261 8  83167335.911 8  20310305.250                    20310313.199
 117719504.244 7  91729527.18645  22401273.305                    22401281.898
 119794909.541 7  93346701.23744  22796221.227                    22796231.629
 11  8 10 18 51 30.0000000  0 10G24G17G01G26G19G11G08G07G28G13
 120719836.267 7  94067390.74744  22972188.242                    22972200.020
 125827081.427 6  98047194.202 6  23944115.188                    23944127.527
 129685498.612 6 101053666.136 6  24678332.656                    24678346.180
 126065550.434 7  98232965.45143  23989482.875                    23989493.332
 119702497.493 7  93274695.53345  22778631.492                    22778639.035
 114400840.539 7  89143559.06045  21769751.977                    21769761.148
 109782758.557 8  85545043.05546  20890963.453                    20890971.910
 106724511.853 8  83161990.907 8  20309000.039                    20309007.973
 117689046.733 7  91705794.07645  22395477.156                    22395485.785
 119901921.605 7  93430087.09344  22816584.797                    22816595.352
 11  8 10 18 52  0.0000000  0 10G24G17G01G26G19G11G08G07G28G13
 120654596.005 7  94016554.26843  22959773.430                    22959785.496
 125727133.943 6  97969313.242 6  23925095.641                    23925108.512
 129709283.163 6 101072199.522 6  24682859.063                    24682872.512
 125982888.776 7  98168553.79543  23973753.594                    23973763.285
 119794936.290 7  93346725.72245  22796221.813                    22796229.602
 114366206.185 7  89116571.26045  21763161.461                    21763169.984
 109724787.657 8  85499870.93546  20879931.602                    20879940.027
 106718059.948 8  83156963.442 8  20307772.492                    20307780.762
 117658693.503 7  91682142.23445  22389701.234                    22389709.621
 120009101.662 7  93513603.85244  22836980.547                    22836991.086
 11  8 10 18 52 30.0000000  0 10G24G17G01G26G19G11G08G07G28G13
 120589597.364 7  93965906.04544  22947405.063                    22947416.098
 125627359.394 6  97891567.035 6  23906108.883                    23906121.574
 129733550.391 6 101091109.042 6  24687475.844                    24687489.723
 125900646.468 6  98104468.94843  23958102.828                    23958113.059
 119887646.323 7  93418967.25545  22813864.391                    22813871.355
 114332063.880 7  89089966.88345  21756664.195                    21756672.254
 109667063.213 8  85454890.85846  20868947.813                    20868955.789
 106712016.973 8  83152254.624 8  20306622.766                    20306630.719
 117628443.605 7  91658570.89945  22383945.039                    22383953.313
 120116446.474 7  93597249.01444  22857407.938                    22857418.348
 11  8 10 18 53  0.0000000  0 10G24G17G01G26G19G11G08G07G28G13
 120524843.186 7  93915448.34344  22935082.125                    22935093.867
 125527760.049 6  97813957.344 6  23887155.398                    23887168.082
 129758300.198 6 101110394.560 6  24692186.305                    24692199.555
 125818826.165 6  98040712.94043  23942532.570                    23942543.727
 119980624.643 7  93491417.85445  22831557.492                    22831564.750
 114298415.420 7  89063747.31645  21750260.914                    21750269.563
 109609587.559 8  85410104.64746  20858010.016                    20858018.246
 106706384.249 8  83147865.476 8  20305550.523                    20305558.457
 117598296.090 7  91635079.34445  22378208.164                    22378216.629
 120223952.985 7  93681020.14344  22877865.539                    22877876.922
 11  8 10 18 53 30.0000000  0 10G24G17G01G26G19G11G08G07G28G13
 120460336.332 7  93865183.36944  22922806.906                    22922817.855
 125428337.093 6  97736485.101 6  23868235.625                    23868248.305
 129783531.954 6 101130055.680 6  24696987.609                    24697000.988
 125737430.879 6  97977288.08243  23927043.492                    23927054.785
 120073868.212 7  93564075.12045  22849301.266                    22849308.098
 114265262.742 7  89037914.09145  21743952.211                    21743960.891
 109552362.565 8  85365513.76146  20847120.445                    20847128.598
 106701163.103 8  83143797.038 8  20304557.070                    20304564.785
 117568249.919 7  91611666.78045  22372490.313                    22372498.863
 120331618.251 7  93764914.96643  22898354.414                    22898364.715
 11  8 10 18 54  0.0000000  0 10G24G17G01G26G19G11G08G07G28G13
 120396080.212 7  93815113.74644  22910579.016                    22910590.977
 125329093.078 6  97659152.294 6  23849349.594                    23849361.809
 129809245.879 6 101150092.496 6  24701880.891                    24701894.203
 125656462.916 6  97914196.28443  23911635.953                    23911646.984
 120167374.619 7  93636937.22045  22867094.883                    22867102.520
 114232608.341 7  89012469.11745  21737738.336                    21737746.684
 109495391.340 8  85321120.60246  20836279.156                    20836287.625
 106696355.435 8  83140050.790 8  20303642.336                    20303650.215
 117538304.637 7  91588332.81345  22366792.117                    22366800.289
 120439439.237 7  93848931.17644  22918871.852                    22918882.020
 11  8 10 18 54 30.0000000  0 10G24G17G01G26G19G11G08G07G28G13
 120332077.754 7  93765241.81544  22898399.484                    22898411.223
 125230029.997 6  97581960.503 6  23830498.547                    23830510.926
 129835441.755 6 101170504.847 6  24706866.164                    24706878.863
 125575925.301 6  97851439.77143  23896309.938                    23896321.313
 120261140.849 7  93710001.77145  22884937.797                    22884944.844
 114200454.265 7  88987414.01845  21731619.977                    21731628.531
 109438676.362 8  85276927.12346  20825486.539                    20825495.207
 106691962.735 8  83136627.900 8  20302806.516                    20302814.305
 117508459.192 7  91565076.64445  22361112.703                    22361120.945
 120547413.047 7  93933066.44344  22939418.633                    22939429.379
 11  8 10 18 55  0.0000000  0 10G24G17G01G26G19G11G08G07G28G13
 120268332.154 7  93715570.01344  22886269.383                    22886281.430
 125131149.728 7  97504911.139 6  23811682.602                    23811694.809
 129862119.406 6 101191292.580 6  24711942.828                    24711955.285
 125495820.544 6  97789020.54843  23881066.023                    23881077.211
 120355164.284 7  93783266.75645  22902830.367                    22902837.070
 114168801.995 7  88962749.93845  21725596.172                    21725604.758
 109382219.932 8  85232935.10546  20814743.430                    20814751.902
 106687986.422 8  83133529.452 8  20302049.852                    20302057.727
 117478713.024 7  91541897.83345  22355452.602                    22355460.613
 120655536.382 7  94017318.22544  22959994.344                    22960004.676
 11  8 10 18 55 30.0000000  0 10G24G17G01G26G19G11G08G07G28G13
 120204846.354 7  93666100.64244  22874188.047                    22874200.824
 125032453.827 7  97428005.421 6  23792901.109                    23792913.219
 129889278.254 6 101212455.310 6  24717111.148                    24717123.777
 125416151.310 6  97726940.65343  23865906.336                    23865916.465
 120449441.950 7  93856729.83045  22920770.828                    22920777.688
 114137653.463 7  88938478.37545  21719668.664                    21719677.535
 109326024.493 8  85189146.45746  20804049.820                    20804057.941
 106684427.919 8  83130756.583 8  20301372.703                    20301380.684
 117449065.367 7  91518795.79245  22349810.273                    22349818.469
 120763806.260 7  94101684.17944  22980596.945                    22980607.930
 11  8 10 18 56  0.0000000  0 10G24G17G01G26G19G11G08G07G28G13
 120141623.389 7  93616836.07144  22862156.930                    22862169.492
 124933944.555 7  97351245.123 6  23774155.180                    23774167.172
 129916917.797 6 101233992.613 6  24722370.508                    24722383.336
 125336920.010 7  97665202.05243  23850829.445                    23850840.223
 120543971.065 7  93930388.84345  22938758.992                    22938765.477
 114107010.937 7  88914601.08945  21713837.813                    21713846.105
 109270092.153 8  85145562.82646  20793406.391                    20793414.582
 106681288.651 8  83128310.378 8  20300775.438                    20300783.332
 117419514.682 7  91495769.31445  22344187.344                    22344195.461
 120872219.408 7  94186161.77844  23001227.531                    23001238.473
 11  8 10 18 56 30.0000000  0 10G24G17G01G26G19G11G08G07G28G13
 120078666.297 6  93567778.68144  22850176.992                    22850189.074
 124835624.011 7  97274631.906 6  23755445.461                    23755457.207
 129945038.171 6 101255904.556 6  24727721.422                    24727734.391
 125258129.229 7  97603806.67043  23835835.922                    23835846.027
 120638748.794 7  94004241.57245  22956794.547                    22956802.195
 114076876.085 7  88891119.40345  21708103.406                    21708111.773
 109214425.630 8  85102186.32646  20782813.383                    20782821.449
 106678569.926 8  83126191.870 8  20300258.016                    20300265.762
 117390060.727 7  91472818.20845  22338582.477                    22338590.738
 120980772.904 7  94270748.73844  23021884.875                    23021895.395
 11  8 10 18 57  0.0000000  0 10G24G17G01G26G19G11G08G07G28G13
 120015978.044 7  93518930.75544  22838247.844                    22838259.688
 124737493.577 7  97198166.817 6  23736771.688                    23736783.973
 129973638.676 6 101278190.618 6  24733164.125                    24733176.859
 125179781.497 7  97542756.50843  23820926.805                    23820936.293
 120733772.115 7  94078285.67444  22974876.664                    22974883.922
 114047250.759 7  88868034.75045  21702465.727                    21702474.645
 109159027.098 8  85059018.64146  20772271.523                    20772279.539
 106676273.119 8  83124402.137 8  20299820.563                    20299828.410
 117360702.494 7  91449941.67545  22332996.063                    22333003.609
 121089463.692 7  94355442.67344  23042568.594                    23042579.043
 11  8 10 18 57 30.0000000  0 10G24G17G01G26G19G11G08G07G28G13
 119953562.043 7  93470294.98644  22826370.328                    22826381.984
 124639555.650 7  97121851.707 6  23718134.641                    23718146.109
 130002719.331 6 101300850.808 6  24738698.375                    24738710.590
 125101879.814 7  97482053.91443  23806102.141                    23806112.316
 120829038.411 7  94152519.12045  22993005.539                    22993012.621
 114018136.885 7  88845348.63345  21696925.523                    21696934.332
 109103899.334 8  85016061.95446  20761780.805                    20761789.156
 106674400.057 8  83122942.597 8  20299464.445                    20299472.344
 117331439.379 7  91427139.25845  22327426.945                    22327434.852
 121198288.914 7  94440241.37244  23063276.914                    23063288.258
 11  8 10 18 58  0.0000000  0 10G24G17G01G26G19G11G08G07G28G13
 119891420.597 7  93421873.16244  22814545.539                    22814556.836
 124541811.699 7  97045687.759 6  23699534.367                    23699546.383
 130032279.192 6 101323884.455 6  24744322.992                    24744336.414
 125024425.941 7  97421700.26643  23791364.125                    23791374.008
 120924544.682 7  94226939.54345  23011180.078                    23011187.316
 113989535.822 7  88823062.10345  21691483.023                    21691491.605
 109049044.262 8  84973317.75246  20751342.109                    20751350.258
 106672951.081 8  83121813.506 8  20299188.727                    20299196.652
 117302270.282 7  91404410.10545  22321875.984                    22321884.422
 121307244.971 7  94525141.98043  23084010.914                    23084021.781
 11  8 10 18 58 30.0000000  0 10G24G17G01G26G19G11G08G07G28G13
 119829557.494 7  93373668.21644  22802773.648                    22802784.551
 124444264.055 7  96969676.780 6  23680971.578                    23680983.629
 130062318.161 6 101347291.463 6  24750039.000                    24750052.395
 124947423.123 7  97361698.13343  23776710.141                    23776720.508
 121020288.504 7  94301545.09944  23029399.703                    23029406.133
 113961450.078 7  88801177.12445  21686138.688                    21686147.266
 108994465.167 8  84930788.59346  20740955.914                    20740964.219
 106671928.621 7  83121016.783 8  20298993.992                    20299002.078
 117273194.668 7  91381753.81745  22316343.281                    22316351.988
 121416329.361 7  94610142.60144  23104769.328                    23104780.352
 11  8 10 18 59  0.0000000  0 10G24G17G01G26G19G11G08G07G28G13
 119767975.271 7  93325682.15744  22791054.641                    22791066.141
 124346914.040 7  96893819.798 6  23662445.836                    23662458.461
 130092835.943 6 101371071.555 6  24755846.539                    24755860.012
 124870873.574 7  97302049.19843  23762142.664                    23762153.438
 121116267.064 7  94376333.54245  23047663.602                    23047670.820
 113933881.149 7  88779694.85445  21680892.430                    21680901.199
 108940163.929 8  84888475.95246  20730623.109                    20730631.348
 106671333.692 8  83120553.186 8  20298881.102                    20298888.406
 117244211.610 7  91359169.64745  22310827.789                    22310836.355
 121525538.686 7  94695240.57644  23125551.352                    23125562.363
 11  8 10 18 59 30.0000000  0 10G24G17G01G26G19G11G08G07G28G13
 119706677.162 7  93277917.47844  22779390.063                    22779401.469
 124249763.977 7  96818118.616 6  23643958.750                    23643971.488
 130123831.938 6 101395224.262 6  24761744.758                    24761758.387
 124794780.169 6  97242755.68743  23747662.391                    23747673.418
 121212477.381 7  94451302.55844  23065971.555                    23065978.805
 113906830.711 7  88758616.61145  21675744.891                    21675753.313
 108886143.394 8  84846382.03846  20720343.133                    20720351.488
 106671167.801 8  83120423.905 8  20298849.461                    20298857.117
 117215320.446 7  91336657.07745  22305330.102                    22305338.043
 121634870.490 7  94780434.02344  23146356.688                    23146367.066
 11  8 10 19  0  0.0000000  0 10G24G17G01G26G19G11G08G07G28G13
 119645665.985 7  93230376.39044  22767779.922                    22767791.094
 124152815.683 7  96742574.666 6  23625510.039                    23625522.355
 130155305.732 6 101419749.288 6  24767734.047                    24767747.066
 124719145.025 6  97183819.30243  23733269.563                    23733280.660
 121308916.828 7  94526450.13444  23084323.836                    23084331.020
 113880300.806 7  88737943.97045  21670695.953                    21670704.891
 108832405.720 8  84804508.53446  20710116.773                    20710125.160
 106671432.068 8  83120629.810 8  20298899.500                    20298907.367
 117186519.944 7  91314215.15545  22299849.672                    22299857.477
 121744321.038 7  94865719.97744  23167184.180                    23167195.082
 11  8 10 19  0 30.0000000  0 10G24G17G01G26G19G11G08G07G28G13
 119584944.742 7  93183061.22244  22756224.547                    22756236.387
 124056070.628 7  96667189.053 6  23607101.406                    23607112.672
 130187256.318 6 101444645.820 6  24773813.852                    24773827.270
 124643970.562 6  97125241.83543  23718964.289                    23718975.770
 121405582.277 7  94601773.82244  23102718.289                    23102725.719
 113854292.389 7  88717677.68945  21665747.313                    21665755.594
 108778952.836 8  84762856.95046  20699945.453                    20699953.555
 106672127.417 8  83121171.629 8  20299032.109                    20299040.113
 117157809.052 8  91291843.04645  22294386.180                    22294394.152
 121853887.264 7  94951096.08444  23188033.945                    23188045.719
 11  8 10 19  1  0.0000000  0 10G24G17G01G26G19G11G08G07G28G13
 119524516.508 7  93135974.35444  22744725.867                    22744736.590
 123959531.245 7  96591963.735 6  23588729.125                    23588741.488
 130219683.970 6 101469914.054 6  24779984.633                    24779998.457
 124569259.670 6  97067025.63843  23704747.633                    23704757.883
 121502471.118 7  94677271.56444  23121156.000                    23121162.863
 113828808.074 8  88697819.80245  21660897.539                    21660906.090
 108725788.022 8  84721429.82946  20689828.047                    20689836.840
 106673256.000 8  83122051.038 8  20299246.828                    20299254.406
 117129187.972 7  91269540.94045  22288939.813                    22288947.801
 121963566.717 7  95036560.37943  23208905.641                    23208916.809
 11  8 10 19  1 30.0000000  0 10G24G17G01G26G19G11G08G07G28G13
 119464384.167 7  93089118.05144  22733282.828                    22733294.035
 123863199.417 7  96516900.142 7  23570398.008                    23570410.066
 130252587.746 6 101495553.306 6  24786245.883                    24786258.977
 124495014.533 6  97009172.35043  23690619.039                    23690630.293
 121599580.643 7  94752941.27744  23139635.219                    23139642.258
 113803849.194 7  88678371.33845  21656147.984                    21656156.477
 108672913.325 8  84680228.77346  20679766.898                    20679774.973
 106674818.760 8  83123268.757 8  20299544.156                    20299551.934
 117100655.602 7  91247307.94745  22283509.938                    22283518.301
 122073355.929 7  95122110.23944  23229797.852                    23229808.875
 11  8 10 19  2  0.0000000  0 10G24G17G01G26G19G11G08G07G28G13
 119404550.956 7  93042494.85344  22721897.203                    22721908.543
 123767076.621 7  96441999.440 6  23552106.883                    23552117.781
 130285967.333 6 101521563.316 6  24792598.508                    24792611.520
 124421237.842 6  96951684.04843  23676579.797                    23676591.051
 121696908.410 7  94828781.04045  23158156.063                    23158163.383
 113779417.600 7  88659333.74145  21651499.008                    21651507.715
 108620331.615 8  84639256.02246  20669760.758                    20669768.910
 106676817.513 8  83124826.204 8  20299924.414                    20299932.238
 117072211.019 8  91225143.35345  22278097.398                    22278105.703
 122183252.055 7  95207743.38243  23250710.203                    23250722.129
 11  8 10 19  2 30.0000000  0 10G24G17G01G26G19G11G08G07G28G13
 119345019.490 7  92996106.76644  22710568.359                    22710579.355
 123671164.627 7  96367262.952 6  23533854.289                    23533866.082
 130319821.627 6 101547943.209 6  24799040.766                    24799054.113
 124347931.583 7  96894562.35443  23662629.609                    23662640.832
 121794451.217 7  94904788.37545  23176718.047                    23176725.504
 113755514.292 7  88640707.79845  21646950.141                    21646958.715
 108568044.943 8  84598513.16446  20659810.711                    20659819.551
 106679252.522 8  83126723.603 8  20300387.906                    20300395.855
 117043853.112 8  91203046.29545  22272701.320                    22272708.941
 122293251.876 7  95293457.33743  23271643.023                    23271654.719
 11  8 10 19  3  0.0000000  0 10G24G17G01G26G19G11G08G07G28G13
 119285793.055 7  92949956.35744  22699297.773                    22699309.176
 123575465.324 7  96292692.244 6  23515644.117                    23515655.270
 130354150.401 6 101574692.822 6  24805572.961                    24805586.262
 124275098.484 7  96837809.30543  23648770.117                    23648780.859
 121892206.274 7  94980961.09245  23195320.477                    23195327.352
 113732141.147 7  88622494.97945  21642502.500                    21642510.922
 108516055.952 8  84558002.26546  20649917.727                    20649926.188
 106682125.519 8  83128962.290 8  20300934.961                    20300942.480
 117015581.223 7  91181016.27645  22267321.180                    22267328.605
 122403352.354 7  95379249.70843  23292594.742                    23292606.191
 11  8 10 19  3 30.0000000  0 10G24G17G01G26G19G11G08G07G28G13
 119226874.212 7  92904045.64544  22688085.234                    22688097.559
 123479980.279 7  96218288.489 6  23497473.258                    23497484.512
 130388952.553 6 101601811.383 6  24812195.328                    24812209.398
 124202740.559 7  96781426.54744  23635001.195                    23635011.371
 121990170.606 7  95057296.89144  23213961.953                    23213969.695
 113709299.626 7  88604696.41345  21638155.641                    21638164.117
 108464366.666 8  84517724.91546  20640081.633                    20640089.910
 106685437.102 8  83131542.725 8  20301564.813                    20301573.270
 116987394.439 7  91159052.57545  22261957.227                    22261965.586
 122513550.379 7  95465118.10244  23313565.063                    23313576.418
 11  8 10 19  4  0.0000000  0 10G24G17G01G26G19G11G08G07G28G13
 119168266.164 7  92858377.07744  22676933.445                    22676944.668
 123384711.879 7  96144053.546 6  23479344.422                    23479355.918
 130424227.995 6 101629298.712 6  24818908.234                    24818921.914
 124130860.507 7  96725416.14343  23621323.227                    23621333.750
 122088342.036 7  95133794.05744  23232643.383                    23232650.867
 113686991.928 7  88587313.81245  21633910.852                    21633919.465
 108412980.176 8  84477683.49246  20630303.313                    20630311.863
 106689189.359 8  83134466.553 8  20302279.039                    20302287.258
 116959292.683 7  91137155.11645  22256609.633                    22256617.277
 122623842.919 7  95551060.12343  23334552.734                    23334564.949
 11  8 10 19  4 30.0000000  0 10G24G17G01G26G19G11G08G07G28G13
 119109971.764 7  92812952.93644  22665839.711                    22665850.496
 123289661.750 7  96069988.679 6  23461256.555                    23461268.371
 130459975.714 6 101657154.053 6  24825711.133                    24825725.133
 124059460.462 7  96669779.77943  23607736.328                    23607746.176
 122186717.281 7  95210450.04544  23251363.266                    23251370.949
 113665218.983 8  88570347.91145  21629767.602                    21629775.930
 108361898.506 8  84437879.60046  20620582.375                    20620590.840
 106693382.989 7  83137734.297 8  20303076.891                    20303084.973
 116931274.492 7  91115322.77745  22251277.688                    22251285.652
 122734227.097 7  95637073.55644  23355558.211                    23355570.145
 11  8 10 19  5  0.0000000  0 10G24G17G01G26G19G11G08G07G28G13
 119051994.024 7  92767775.51944  22654807.148                    22654818.402
 123194831.336 7  95996095.011 6  23443211.031                    23443221.984
 130496195.613 6 101685377.358 6  24832603.586                    24832617.633
 123988543.192 7  96614519.60743  23594241.445                    23594250.961
 122285294.118 7  95287263.11444  23270122.156                    23270130.359
 113643982.675 7  88553800.17645  21625726.391                    21625734.805
 108311124.432 8  84398315.40046  20610920.688                    20610929.012
 106698019.781 8  83141347.362 8  20303959.305                    20303967.516
 116903339.483 8  91093555.24545  22245962.094                    22245969.730
 122844699.956 7  95723156.07043  23376580.820                    23376592.559
 11  8 10 19  5 30.0000000  0 10G24G17G01G26G19G11G08G07G28G13
 118994335.904 7  92722847.17744  22643835.250                    22643846.598
 123100222.912 7  95922374.321 6  23425207.305                    23425219.082
 130532886.813 6 101713967.862 6  24839586.180                    24839598.953
 123918110.927 7  96559637.36343  23580837.602                    23580848.340
 122384069.445 7  95364230.84544  23288918.844                    23288926.223
 113623284.250 8  88537671.55945  21621787.531                    21621796.422
 108260660.304 8  84358992.70046  20601317.391                    20601325.746
 106703100.687 8  83145306.494 8  20304926.148                    20304934.500
 116875486.836 8  91071851.92245  22240661.328                    22240669.496
 122955258.340 7  95809305.22643  23397619.180                    23397631.594
 11  8 10 19  6  0.0000000  0 10G24G17G01G26G19G11G08G07G28G13
 118937000.275 7  92678170.10844  22632924.289                    22632936.000
 123005838.109 7  95848827.869 6  23407246.656                    23407258.004
 130570048.349 6 101742924.872 6  24846657.594                    24846670.805
 123848166.026 7  96505134.88443  23567527.883                    23567538.164
 122483040.779 7  95441351.32344  23307751.695                    23307759.961
 113603125.313 8  88521963.32345  21617951.438                    21617959.668
 108210508.835 8  84319913.63746  20591773.992                    20591782.129
 106708626.999 8  83149612.685 8  20305977.883                    20305985.934
 116847715.821 8  91050212.17545  22235377.195                    22235385.027
 123065899.414 7  95895518.81643  23418673.961                    23418685.809
 11  8 10 19  6 30.0000000  0 10G24G17G01G26G19G11G08G07G28G13
 118879990.107 7  92633746.65544  22622075.570                    22622087.258
 122911678.689 7  95775457.052 6  23389328.633                    23389339.742
 130607679.857 6 101772248.154 6  24853818.805                    24853831.781
 123778710.624 6  96451013.82543  23554310.844                    23554320.758
 122582205.029 7  95518622.12544  23326622.641                    23326630.547
 113583507.342 8  88506676.61445  21614218.094                    21614226.875
 108160672.555 8  84281080.18346  20582290.344                    20582298.875
 106714599.569 8  83154266.632 8  20307114.172                    20307121.863
 116820025.664 8  91028635.45245  22230108.055                    22230115.531
 123176620.486 7  95981794.77043  23439743.453                    23439755.855
 11  8 10 19  7  0.0000000  0 10G24G17G01G26G19G11G08G07G28G13
 118823308.164 7  92589578.97344  22611289.406                    22611300.875
 122817746.320 7  95702263.142 6  23371453.766                    23371464.902
 130645779.962 6 101801936.550 6  24861068.234                    24861081.883
 123709746.978 6  96397275.98343  23541187.164                    23541197.633
 122681559.695 6  95596041.29644  23345529.180                    23345536.750
 113564431.484 8  88491812.34945  21610587.945                    21610596.688
 108111153.557 8  84242493.95546  20572867.430                    20572876.082
 106721019.516 8  83159269.162 8  20308336.117                    20308344.098
 116792415.252 7  91007120.85845  22224853.445                    22224861.402
 123287417.816 7  96068130.12243  23460828.258                    23460839.996
 11  8 10 19  7 30.0000000  0 10G24G17G01G26G19G11G08G07G28G13
 118766957.300 7  92545669.25044  22600566.117                    22600577.949
 122724043.093 7  95629247.772 6  23353622.289                    23353633.254
 130684348.042 6 101831989.619 6  24868407.625                    24868420.707
 123641277.279 6  96343923.02343  23528157.719                    23528168.516
 122781102.181 6  95673606.83644  23364471.664                    23364479.387
 113545899.376 8  88477371.78445  21607061.555                    21607069.820
 108061954.433 8  84204156.97746  20563505.289                    20563513.230
 106727887.956 8  83164621.183 8  20309643.250                    20309651.000
 116764884.119 8  90985668.03645  22219614.828                    22219622.680
 123398288.680 7  96154522.77243  23481926.422                    23481938.441
 11  8 10 19  8  0.0000000  0 10G24G17G01G26G19G11G08G07G28G13
 118710940.375 7  92502019.75044  22589906.555                    22589918.129
 122630570.449 7  95556412.115 6  23335834.766                    23335846.008
 130723383.448 6 101862406.794 6  24875836.430                    24875848.988
 123573303.927 6  96290956.86843  23515223.258                    23515233.652
 122880829.397 6  95751316.30244  23383448.828                    23383456.969
 113527912.331 8  88463355.94845  21603638.656                    21603647.121
 108013077.339 8  84166070.93746  20554204.117                    20554212.215
 106735206.219 8  83170323.709 8  20311035.570                    20311043.543
 116737431.388 7  90964276.31645  22214390.547                    22214398.668
 123509230.089 7  96240970.38643  23503037.500                    23503050.047
 11  8 10 19  8 30.0000000  0 10G24G17G01G26G19G11G08G07G28G13
 118655260.393 7  92458632.80544  22579310.570                    22579322.309
 122537329.933 7  95483757.302 6  23318091.938                    23318102.984
 130762885.367 6 101893187.524 6  24883353.969                    24883366.938
 123505829.109 6  96238379.15243  23502382.906                    23502392.996
 122980738.854 6  95829167.78544  23402461.164                    23402469.086
 113510471.715 8  88449765.89245  21600320.148                    21600328.000
 107964525.011 8  84128237.95746  20544964.969                    20544973.164
 106742975.184 8  83176377.443 8  20312514.109                    20312522.027
 116710056.323 7  90942945.12145  22209181.602                    22209189.098
 123620239.647 7  96327471.09343  23524162.563                    23524174.277
 11  8 10 19  9  0.0000000  0 10G24G17G01G26G19G11G08G07G28G13
 118599920.195 7  92415510.61844  22568780.461                    22568791.262
 122444323.390 7  95411284.806 6  23300392.695                    23300404.012
 130802852.731 6 101924330.945 6  24890958.594                    24890972.199
 123438855.051 7  96186191.65744  23489638.320                    23489648.758
 123080827.617 6  95907158.97044  23421508.023                    23421515.512
 113493578.577 8  88436602.44545  21597105.469                    21597113.805
 107916299.693 8  84090659.79946  20535787.828                    20535796.086
 106751195.812 8  83182783.115 8  20314078.367                    20314086.184
 116682758.471 8  90921674.08045  22203986.781                    22203994.629
 123731313.298 7  96414021.78043  23545299.078                    23545311.016
 11  8 10 19  9 30.0000000  0 10G24G17G01G26G19G11G08G07G28G13
 118544922.914 7  92372655.64244  22558314.102                    22558325.281
 122351553.003 7  95338996.306 6  23282739.117                    23282750.363
 130843285.120 6 101955836.713 6  24898652.836                    24898666.605
 123372384.005 7  96134396.10844  23476988.977                    23476999.012
 123181093.284 6  95985288.01844  23440587.969                    23440595.316
 113477234.803 8  88423867.06545  21593995.055                    21594003.594
 107868404.242 8  84053338.67946  20526673.898                    20526682.137
 106759869.877 8  83189542.111 8  20315728.922                    20315737.191
 116655536.946 7  90900462.53145  22198806.797                    22198814.652
 123842448.812 7  96500620.63443  23566447.625                    23566459.750
 11  8 10 19 10  0.0000000  0 10G24G17G01G26G19G11G08G07G28G13
 118490271.182 7  92330069.91544  22547914.578                    22547925.688
 122259020.266 7  95266893.009 6  23265130.922                    23265141.984
 130884181.600 6 101987704.117 6  24906434.492                    24906448.137
 123306418.163 7  96082994.19344  23464435.953                    23464445.746
 123281533.201 6  96063552.84044  23459700.461                    23459708.176
 113461441.499 8  88411560.63745  21590989.672                    21590998.344
 107820841.298 8  84016276.64646  20517622.672                    20517631.125
 106768998.161 8  83196655.045 8  20317466.180                    20317473.926
 116628390.875 8  90879309.77545  22193640.961                    22193648.898
 123953643.237 6  96587265.39643  23587607.750                    23587619.523
 11  8 10 19 10 30.0000000  0 10G24G17G01G26G19G11G08G07G28G13
 118435967.773 7  92287755.62844  22537580.492                    22537592.113
 122166726.975 7  95194976.292 6  23247568.086                    23247579.133
 130925541.264 6 102019932.363 6  24914305.328                    24914318.250
 123240959.866 7  96031987.74844  23451979.906                    23451990.117
 123382144.139 7  96141950.92444  23478846.453                    23478854.121
 113446199.907 8  88399684.10445  21588089.188                    21588097.676
 107773612.910 8  83979475.31346  20508635.555                    20508643.672
 106778581.498 8  83204122.565 8  20319289.570                    20319298.035
 116601319.835 8  90858215.47145  22188489.609                    22188497.098
 124064893.297 6  96673953.48343  23608778.586                    23608789.730
 11  8 10 19 11  0.0000000  0 10G24G17G01G26G19G11G08G07G28G13
 118382015.278 7  92245714.76044  22527313.906                    22527324.816
 122074674.389 7  95123247.124 6  23230050.930                    23230062.016
 130967362.693 6 102052520.470 6  24922263.117                    24922276.996
 123176010.759 7  95981378.06844  23439620.570                    23439631.117
 123482923.782 7  96220480.45844  23498023.875                    23498031.500
 113431510.815 8  88388238.09545  21585293.961                    21585302.008
 107726721.262 8  83942936.36746  20499712.195                    20499720.285
 106788620.672 8  83211945.290 8  20321200.320                    20321208.344
 116574322.852 8  90837178.86945  22183352.266                    22183359.973
 124176195.930 7  96760682.55643  23629958.344                    23629970.270
 11  8 10 19 11 30.0000000  0 10G24G17G01G26G19G11G08G07G28G13
 118328416.502 7  92203949.54944  22517114.602                    22517125.520
 121982864.163 7  95051706.807 6  23212579.672                    23212590.918
 131009645.053 6 102085467.791 6  24930310.094                    24930322.453
 123111572.922 7  95931166.82144  23427358.203                    23427369.102
 123583869.717 6  96299139.59044  23517233.141                    23517240.895
 113417375.616 7  88377223.67745  21582604.117                    21582612.590
 107680169.139 8  83906661.98746  20490853.461                    20490862.039
 106799116.548 8  83220123.874 8  20323197.625                    20323205.699
 116547399.135 8  90816199.36645  22178228.516                    22178236.547
 124287548.257 7  96847450.33343  23651148.422                    23651160.625
 11  8 10 19 12  0.0000000  0 10G24G17G01G26G19G11G08G07G28G13
 118275174.603 7  92162462.40244  22506982.727                    22506993.871
 121891298.666 7  94980357.196 6  23195155.148                    23195167.035
 131052387.850 6 102118773.886 6  24938443.742                    24938456.750
 123047649.114 7  95881356.08544  23415194.000                    23415204.746
 123684978.981 6  96377925.98344  23536473.516                    23536481.395
 113403795.660 8  88366641.91645  21580019.492                    21580028.047
 107633959.054 8  83870654.13746  20482060.047                    20482068.020
 106810070.814 8  83228659.659 8  20325282.023                    20325290.086
 116520548.186 8  90795276.57145  22173118.945                    22173126.848
 124398947.342 7  96934254.55643  23672347.156                    23672359.840
 11  8 10 19 12 30.0000000  0 10G24G17G01G26G19G11G08G07G28G13
 118222292.427 7  92121255.57944  22496919.867                    22496930.453
 121799979.336 7  94909199.407 7  23177777.742                    23177788.957
 131095589.964 6 102152437.885 6  24946664.461                    24946678.004
 122984241.089 6  95831947.27243  23403127.469                    23403138.340
 123786249.208 7  96456837.79344  23555745.000                    23555752.723
 113390772.193 7  88356493.78645  21577541.586                    21577549.945
 107588093.462 8  83834914.71246  20473332.297                    20473340.508
 106821484.500 8  83237553.426 8  20327454.188                    20327461.898
 116493769.496 8  90774410.08145  22168023.219                    22168031.512
 124510390.468 7  97021093.06143  23693554.906                    23693566.332
 11  8 10 19 13  0.0000000  0 10G24G17G01G26G19G11G08G07G28G13
 118169772.615 7  92080331.10744  22486925.078                    22486936.512
 121708907.556 7  94838234.513 6  23160447.195                    23160458.336
 131139250.517 6 102186459.066 6  24954972.359                    24954986.070
 122921351.275 6  95782942.27544  23391160.422                    23391170.535
 123887677.296 6  96535872.63444  23575046.227                    23575053.953
 113378306.329 8  88346780.15745  21575169.109                    21575177.816
 107542574.927 8  83799445.72546  20464670.492                    20464678.676
 106833358.006 8  83246805.495 8  20329713.461                    20329721.391
 116467062.012 8  90753599.07245  22162941.297                    22162948.980
 124621874.250 6  97107963.26543  23714769.102                    23714781.883
 11  8 10 19 13 30.0000000  0 10G24G17G01G26G19G11G08G07G28G13
 118117617.886 7  92039691.11144  22477000.656                    22477011.676
 121618085.332 7  94767464.068 7  23143164.063                    23143175.531
 131183368.399 6 102220836.631 6  24963368.047                    24963381.676
 122858981.309 6  95734342.33943  23379291.781                    23379302.215
 123989260.818 6  96615028.57644  23594377.375                    23594384.602
 113366399.396 8  88337502.06045  21572903.344                    21572911.910
 107497405.805 8  83764249.01446  20456074.961                    20456083.293
 106845692.551 8  83256416.811 8  20332060.609                    20332068.313
 116440425.313 8  90732843.22645  22157872.391                    22157879.777
 124733396.050 6  97194863.05843  23735990.859                    23736003.824
 11  8 10 19 14  0.0000000  0 10G24G17G01G26G19G11G08G07G28G13
 118065830.849 7  91999337.62944  22467145.867                    22467157.188
 121527514.130 7  94696889.240 7  23125929.422                    23125940.582
 131227942.387 6 102255569.573 6  24971851.016                    24971863.320
 122797133.054 6  95686148.94243  23367522.289                    23367532.195
 124090997.054 6  96694303.50244  23613736.180                    23613744.531
 113355052.008 7  88328659.96445  21570743.945                    21570752.711
 107452588.447 8  83729326.40346  20447546.445                    20447554.348
 106858488.888 8  83266387.965 8  20334495.977                    20334503.609
 116413858.450 8  90712141.77345  22152817.047                    22152824.332
 124844952.812 6  97281790.12143  23757219.781                    23757233.027
 11  8 10 19 14 30.0000000  0 10G24G17G01G26G19G11G08G07G28G13
 118014414.417 7  91959272.92544  22457361.336                    22457372.469
 121437195.573 7  94626511.274 7  23108742.141                    23108752.867
 131272971.518 6 102290657.182 6  24980419.680                    24980432.602
 122735808.815 6  95638363.86943  23355851.797                    23355862.168
 124192883.202 6  96773695.25644  23633125.539                    23633132.523
 113344265.158 8  88320254.65345  21568691.156                    21568699.660
 107408125.272 8  83694679.78346  20439085.594                    20439093.906
 106871747.932 8  83276719.677 8  20337018.563                    20337026.879
 116387360.424 8  90691493.98345  22147774.469                    22147782.246
 124956541.777 7  97368742.26043  23778454.516                    23778467.281
 11  8 10 19 15  0.0000000  0 10G24G17G01G26G19G11G08G07G28G13
 117963371.360 7  91919499.17844  22447648.383                    22447659.422
 121347131.225 7  94556331.390 7  23091603.086                    23091614.301
 131318454.862 6 102326098.804 6  24989074.969                    24989087.879
 122675010.655 6  95590988.72543  23344282.664                    23344293.004
 124294916.780 7  96853201.88844  23652541.531                    23652549.230
 113334040.212 8  88312287.18345  21566745.820                    21566753.977
 107364018.725 8  83660311.04946  20430692.336                    20430700.465
 106885470.834 8  83287412.832 8  20339630.180                    20339637.984
 116360931.313 8  90670899.89045  22142744.734                    22142753.199
 125068159.894 6  97455717.11343  23799695.109                    23799707.836
 11  8 10 19 15 30.0000000  0 10G24G17G01G26G19G11G08G07G28G13
 117912704.461 7  91880018.52445  22438006.375                    22438018.117
 121257322.782 7  94486350.907 6  23074513.000                    23074524.012
 131364391.126 6 102361893.279 6  24997815.602                    24997829.480
 122614740.345 6  95544024.86443  23332812.930                    23332823.641
 124397095.259 7  96932821.44344  23671985.547                    23671993.121
 113324378.216 8  88304758.36945  21564907.266                    21564915.465
 107320271.400 8  83626222.22346  20422367.367                    20422375.457
 106899658.277 8  83298467.977 8  20342330.297                    20342338.332
 116334570.144 8  90650358.73645  22137728.430                    22137736.656
 125179804.221 7  97542712.38843  23820940.508                    23820953.387
 11  8 10 19 16  0.0000000  0  9G24G17G26G19G11G08G07G28G13
 117862416.454 7  91840833.12944  22428437.016                    22428448.379
 121167772.140 7  94416571.327 7  23057472.594                    23057483.180
 122555000.297 6  95497474.21843  23321445.539                    23321456.055
 124499416.571 7  97012552.28844  23691456.898                    23691464.082
 113315280.284 8  88297669.08845  21563175.844                    21563183.992
 107276886.503 8  83592415.81046  20414111.883                    20414119.742
 106914311.741 8  83309886.247 8  20345118.523                    20345126.840
 116308276.470 8  90629870.17645  22132725.297                    22132732.703
 125291472.228 7  97629726.11343  23842191.141                    23842203.691
 11  8 10 19 16 30.0000000  0  9G24G17G26G19G11G08G07G28G13
 117812509.863 7  91801944.93644  22418940.031                    22418951.375
 121078480.900 7  94346993.823 6  23040480.992                    23040491.219
 122495791.799 7  95451337.75744  23310179.008                    23310188.879
 124601877.414 7  97092391.88144  23710954.203                    23710962.613
 113306746.936 8  88291019.74545  21561552.070                    21561560.621
 107233865.461 8  83558892.92346  20405924.336                    20405933.230
 106929431.282 8  83321667.683 8  20347995.875                    20348003.453
 116282049.457 7  90609433.55045  22127734.000                    22127742.238
 125403160.692 7  97716755.75443  23863444.930                    23863457.348
 11  8 10 19 17  0.0000000  0  9G24G17G26G19G11G08G07G28G13
 117762987.467 7  91763356.11844  22409516.063                    22409527.246
 120989450.264 7  94277619.430 6  23023537.938                    23023549.012
 122437117.111 7  95405617.25844  23299013.688                    23299023.957
 124704474.987 6  97172337.98744  23730477.484                    23730486.066
 113298779.281 8  88284811.20845  21560035.531                    21560044.203
 107191210.441 8  83525655.24746  20397807.914                    20397816.477
 106945017.805 8  83333813.020 8  20350961.359                    20350969.570
 116255888.191 8  90589048.15545  22122755.664                    22122763.727
 125514866.122 7  97803798.65643  23884701.906                    23884714.699
 11  8 10 19 17 30.0000000  0  9G24G17G26G19G11G08G07G28G13
 117713852.090 7  91725068.85744  22400165.930                    22400177.063
 120900682.243 7  94208449.662 6  23006646.133                    23006657.055
 122378977.979 7  95360314.08944  23287949.891                    23287960.270
 124807206.775 6  97252388.67744  23750027.500                    23750034.879
 113291378.325 8  88279044.24745  21558627.672                    21558635.762
 107148924.179 8  83492704.91546  20389760.625                    20389769.293
 106961072.307 8  83346323.001 8  20354016.617                    20354024.691
 116229792.258 8  90568713.70145  22117789.781                    22117798.180
 125626585.945 7  97890852.74043  23905961.266                    23905973.961
 11  8 10 19 18  0.0000000  0  9G24G17G26G19G11G08G07G28G13
 117665105.980 7  91687084.93644  22390890.359                    22390901.281
 120812177.986 7  94139485.410 6  22989804.102                    22989814.391
 122321376.315 7  95315429.71944  23276988.719                    23276999.707
 124910070.301 6  97332542.02644  23769601.500                    23769609.063
 113284544.678 8  88273719.34045  21557327.078                    21557335.137
 107107009.092 8  83460043.81546  20381785.117                    20381793.309
 106977595.311 8  83359198.055 8  20357161.148                    20357168.941
 116203760.776 8  90548429.44745  22112836.328                    22112844.473
 125738317.669 6  97977916.09743  23927223.938                    23927236.738
 11  8 10 19 18 30.0000000  0  9G24G17G26G19G11G08G07G28G13
 117616752.339 7  91649406.83144  22381688.352                    22381699.730
 120723939.220 7  94070728.040 6  22973012.813                    22973023.441
 122264314.066 7  95270965.67444  23266130.234                    23266140.582
 125013063.037 7  97412796.05544  23789200.648                    23789208.301
 113278279.351 8  88268837.27945  21556134.391                    21556142.664
 107065467.871 8  83427674.04146  20373879.969                    20373888.289
 106994587.890 8  83372439.007 8  20360394.469                    20360402.746
 116177793.200 8  90528194.99945  22107894.867                    22107902.918
 125850058.434 6  98064986.46743  23948487.320                    23948500.832
 11  8 10 19 19  0.0000000  0  9G24G17G26G19G11G08G07G28G13
 117568793.779 7  91612036.58244  22372562.563                    22372573.273
 120635967.688 7  94002178.893 6  22956272.375                    22956282.746
 122207793.238 7  95226923.51844  23255374.578                    23255384.730
 125116182.553 7  97493148.87644  23808823.938                    23808831.246
 113272583.406 8  88264398.89345  21555050.609                    21555059.105
 107024302.998 8  83395597.51846  20366046.117                    20366054.840
 107012051.124 8  83386046.693 8  20363717.688                    20363726.117
 116151889.266 8  90508010.14245  22102965.172                    22102973.297
 125961805.028 6  98152061.38243  23969752.031                    23969764.906
 11  8 10 19 19 30.0000000  0  9G24G17G26G19G11G08G07G28G13
 117521232.416 7  91574975.84044  22363511.664                    22363522.266
 120548265.006 7  93933839.236 6  22939583.555                    22939593.625
 122151815.423 7  95183304.50244  23244722.313                    23244732.387
 125219426.264 7  97573598.45644  23828469.977                    23828478.109
 113267457.350 8  88260404.57045  21554075.461                    21554083.543
 106983516.657 8  83363815.95246  20358285.086                    20358293.148
 107029985.309 8  83400021.354 8  20367130.734                    20367138.605
 116126047.836 8  90487873.97945  22098047.656                    22098055.355
 126073554.767 6  98239138.76443  23991017.305                    23991031.207
 11  8 10 19 20  0.0000000  0  9G24G17G26G19G11G08G07G28G13
 117474071.142 7  91538226.83945  22354536.969                    22354548.121
 120460832.643 7  93865710.228 6  22922945.234                    22922955.332
 122096382.364 7  95140109.94144  23234173.484                    23234184.020
 125322791.511 7  97654142.75044  23848140.008                    23848148.098
 113262902.063 8  88256855.00945  21553208.516                    21553216.965
 106943111.378 8  83332331.32246  20350596.086                    20350604.426
 107048391.273 8  83414363.648 8  20370633.156                    20370641.246
 116100268.823 7  90467786.45445  22093142.234                    22093150.387
 126185304.645 6  98326216.21643  24012283.492                    24012297.070
 11  8 10 19 20 30.0000000  0  9G24G17G26G19G11G08G07G28G13
 117427312.584 7  91501791.65045  22345639.156                    22345650.180
 120373671.881 7  93797792.853 7  22906358.789                    22906369.664
 122041496.002 7  95097341.39544  23223728.289                    23223739.117
 125426275.646 6  97734779.68644  23867832.734                    23867840.457
 113258918.425 8  88253750.89145  21552450.695                    21552458.840
 106903089.365 8  83301145.33946  20342980.250                    20342988.559
 107067269.856 8  83429074.207 8  20374225.859                    20374234.008
 116074551.470 7  90447746.98345  22088248.406                    22088256.230
 126297052.025 6  98413291.75043  24033547.531                    24033562.137
 11  8 10 19 21  0.0000000  0  9G24G17G26G19G11G08G07G28G13
 117380959.133 7  91465672.12245  22336818.445                    22336829.578
 120286784.411 7  93730088.435 7  22889824.680                    22889835.207
 121987157.927 6  95055000.07344  23213388.859                    23213398.734
 125529876.216 7  97815507.34944  23887546.641                    23887554.898
 113255507.175 8  88251092.78845  21551801.406                    21551809.398
 106863453.071 8  83270259.91346  20335438.164                    20335445.793
 107086621.495 8  83444153.386 8  20377908.172                    20377916.172
 116048894.911 8  90427754.88045  22083366.016                    22083374.246
 126408793.906 6  98500362.99043  24054811.625                    24054826.293
 11  8 10 19 21 30.0000000  0  9G24G17G26G19G11G08G07G28G13
 117335013.673 7  91429870.51345  22328075.375                    22328086.418
 120200171.904 7  93662598.292 7  22873342.719                    22873353.477
 121933369.911 6  95013087.36644  23203153.047                    23203163.551
 125633590.776 7  97896323.82944  23907282.938                    23907291.066
 113252669.110 8  88248881.32245  21551261.305                    21551269.629
 106824205.168 8  83239677.13446  20327968.938                    20327977.520
 107106447.338 8  83459602.070 8  20381680.906                    20381688.938
 116023298.657 8  90407809.77145  22078495.492                    22078502.984
 126520527.561 6  98587427.82743  24076074.469                    24076088.609
 11  8 10 19 22  0.0000000  0  9G24G17G26G19G11G08G07G28G13
 117289478.588 7  91394388.67445  22319410.289                    22319421.176
 120113835.598 7  93595323.359 7  22856913.742                    22856924.488
 121880133.737 7  94971604.69044  23193022.469                    23193032.883
 125737416.554 7  97977226.95944  23927040.945                    23927048.918
 113250404.417 8  88247116.64845  21550829.891                    21550838.500
 106785347.440 8  83209398.37946  20320574.430                    20320583.023
 107126747.376 8  83475420.262 8  20385543.883                    20385552.066
 115997761.771 8  90387910.91745  22073636.008                    22073643.738
 126632249.679 6  98674483.68943  24097334.781                    24097349.188
 11  8 10 19 22 30.0000000  0  9G24G17G26G19G11G08G07G28G13
 117244356.510 7  91359228.66345  22310823.719                    22310834.262
 120027777.114 7  93528264.942 7  22840537.016                    22840548.285
 121827451.189 6  94930553.37444  23182996.625                    23183007.016
 125841351.339 7  98058215.06244  23946818.781                    23946827.023
 113248714.140 8  88245799.55445  21550508.633                    21550516.512
 106746883.160 8  83179426.21546  20313255.133                    20313263.500
 107147522.805 8  83491608.887 8  20389496.930                    20389505.137
 115972284.305 8  90368058.36345  22068787.977                    22068795.621
 126743957.892 6  98761528.68942  24118593.047                    24118606.680
 11  8 10 19 23  0.0000000  0  9G24G17G26G19G11G08G07G28G13
 117199649.863 7  91324392.37145  22302316.555                    22302327.328
 119941997.832 7  93461424.039 7  22824213.805                    22824224.203
 121775323.691 7  94889934.58643  23173078.039                    23173087.668
 125945392.501 7  98139286.05544  23966616.961                    23966625.430
 113247598.976 8  88244930.61445  21550296.398                    21550304.754
 106708813.701 8  83149761.69246  20306010.945                    20306019.066
 107168774.130 8  83508168.342 8  20393541.188                    20393549.430
 115946865.356 8  90348251.40245  22063950.656                    22063958.430
 126855649.146 6  98848560.49143  24139847.273                    24139861.066
 11  8 10 19 23 30.0000000  0  9G24G17G26G19G11G08G07G28G13
 117155361.414 7  91289881.96545  22293888.203                    22293899.180
 119856499.744 7  93394802.251 7  22807944.367                    22807954.719
 121723752.936 7  94849749.61143  23163263.883                    23163273.898
 126049537.611 6  98220438.02644  23986435.719                    23986443.480
 113247059.699 8  88244510.41545  21550193.648                    21550202.039
 106671142.075 8  83120407.18646  20298841.977                    20298850.707
 107190502.165 8  83525099.230 8  20397676.094                    20397684.211
 115921504.754 8  90328489.90145  22059124.336                    22059132.590
 126967320.681 6  98935576.89043  24161097.305                    24161111.570
 11  8 10 19 24  0.0000000  0  9G24G17G26G19G11G08G07G28G13
 117111493.495 7  91255699.24045  22285540.523                    22285551.488
 119771283.804 7  93328400.319 7  22791727.664                    22791738.152
 121672740.642 7  94809999.82443  23153556.344                    23153566.496
 126153783.930 7  98301668.87544  24006272.859                    24006281.453
 113247096.514 8  88244539.12045  21550201.117                    21550209.289
 106633870.689 8  83091364.54346  20291749.461                    20291757.871
 107212706.766 8  83542401.502 8  20401901.305                    20401909.555
 115896201.401 8  90308773.03045  22054309.281                    22054317.648
 127078969.823 6  99022575.89943  24182343.883                    24182358.508
 11  8 10 19 24 30.0000000  0  9G24G17G26G19G11G08G07G28G13
 117068048.434 7  91221846.02444  22277273.391                    22277284.078
 119686351.471 7  93262219.361 7  22775566.094                    22775575.789
 121622288.218 7  94770686.26243  23143955.695                    23143965.684
 126258129.142 6  98382976.78344  24026129.805                    24026137.578
 113247709.703 8  88245016.93545  21550317.273                    21550325.676
 106597001.528 8  83062635.33346  20284733.383                    20284741.977
 107235388.922 8  83560075.887 8  20406217.758                    20406225.633
 115870954.625 8  90289100.21745  22049504.844                    22049512.859
 127190593.676 6  99109555.11443  24203585.086                    24203599.555
 11  8 10 19 25  0.0000000  0  9G24G17G26G19G11G08G07G28G13
 117025029.107 7  91188324.53145  22269086.813                    22269097.586
 119601704.361 7  93196260.661 7  22759458.016                    22759468.473
 121572397.314 7  94731810.26443  23134461.828                    23134471.227
 126362570.767 7  98464359.83144  24046003.648                    24046012.184
 113248900.182 8  88245944.59745  21550543.922                    21550551.973
 106560537.481 8  83034221.79546  20277794.844                    20277802.797
 107258549.268 8  83578122.888 8  20410624.914                    20410633.035
 115845764.381 8  90269471.45945  22044711.594                    22044719.922
 127302189.451 6  99196512.46243  24224821.813                    24224835.586
 11  8 10 19 25 30.0000000  0  9G24G17G26G19G11G08G07G28G13
 116982437.741 7  91155136.52645  22260982.180                    22260992.813
 119517343.810 7  93130525.259 7  22743403.852                    22743414.770
 121523069.482 7  94693373.02044  23125075.453                    23125085.102
 126467105.973 7  98545815.76144  24065896.219                    24065904.285
 113250668.402 7  88247322.44245  21550880.305                    21550888.520
 106524480.220 8  83006125.22946  20270933.141                    20270941.891
 107282188.297 8  83596542.882 8  20415123.234                    20415131.727
 115820629.847 7  90249886.12645  22039928.516                    22039936.500
 127413754.126 6  99283445.63042  24246052.828                    24246066.801
 11  8 10 19 26  0.0000000  0  9G24G17G26G19G11G08G07G28G13
 116940276.711 7  91122283.84445  22252958.859                    22252969.563
 119433271.300 7  93065014.311 7  22727405.711                    22727416.117
 121474306.299 7  94655375.75344  23115795.359                    23115806.113
 126571732.814 7  98627343.12544  24085806.242                    24085813.949
 113253015.125 7  88249151.06145  21551326.922                    21551334.445
 106488832.588 8  82978347.85846  20264149.680                    20264158.082
 107306306.691 8  83615336.415 8  20419712.875                    20419721.141
 115795550.390 7  90230343.71245  22035156.102                    22035164.281
 127525285.193 6  99370352.59743  24267277.297                    24267291.340
 11  8 10 19 26 30.0000000  0  9G24G17G26G19G11G08G07G28G13
 116898548.454 7  91089768.38845  22245018.453                    22245029.383
 119349488.194 7  92999728.856 7  22711462.883                    22711472.434
 121426109.155 7  94617819.54844  23106624.609                    23106633.918
 126676448.573 7  98708939.73144  24105733.172                    24105741.137
 113255940.145 8  88251430.31745  21551883.055                    21551891.391
 106453596.756 8  82950891.36846  20257444.664                    20257453.391
 107330904.596 8  83634503.585 8  20424394.039                    20424402.262
 115770525.565 8  90210843.85345  22030393.797                    22030401.754
 127636779.681 6  99457231.05643  24288493.711                    24288508.234
 11  8 10 19 27  0.0000000  0  9G24G17G26G19G11G08G07G28G13
 116857255.286 7  91057591.97245  22237160.375                    22237171.098
 119265995.912 7  92934670.033 6  22695574.383                    22695583.906
 121378479.481 7  94580705.54144  23097560.258                    23097569.918
 126781250.844 7  98790603.77143  24125676.180                    24125683.801
 113259444.145 8  88254160.71245  21552550.586                    21552558.676
 106418774.887 8  82923757.44846  20250818.281                    20250826.473
 107355982.477 8  83654044.760 8  20429165.859                    20429174.305
 115745554.777 8  90191386.11545  22025642.383                    22025649.906
 127748234.897 6  99544078.86843  24309702.711                    24309717.605
 11  8 10 19 27 30.0000000  0  9G24G17G26G19G11G08G07G28G13
 116816399.958 7  91025756.72445  22229386.047                    22229396.598
 119182796.346 7  92869839.300 7  22679741.938                    22679751.898
 121331419.066 7  94544035.12244  23088605.594                    23088615.102
 126886137.262 7  98872333.37643  24145635.227                    24145643.820
 113263527.908 7  88257342.88345  21553327.500                    21553336.043
 106384369.841 8  82896948.32946  20244271.195                    20244279.523
 107381541.364 8  83673960.752 8  20434029.578                    20434037.387
 115720637.889 7  90171970.36745  22020900.781                    22020908.652
 127859648.284 6  99630894.11043  24330904.367                    24330919.273
 11  8 10 19 28  0.0000000  0  9G24G17G26G19G11G08G07G28G13
 116775984.583 7  90994264.28645  22221694.891                    22221705.219
 119099890.356 7  92805237.330 7  22663964.867                    22663975.883
 121284929.288 7  94507809.33444  23079758.422                    23079768.742
 126991105.385 7  98954126.65143  24165610.477                    24165618.359
 113268191.638 7  88260976.97345  21554214.938                    21554223.387
 106350383.602 8  82870465.53846  20237803.578                    20237812.227
 107407581.429 8  83694251.691 8  20438984.891                    20438993.000
 115695774.101 8  90152596.00745  22016169.063                    22016176.789
 127971016.778 6  99717674.36543  24352097.391                    24352112.875
 11  8 10 19 28 30.0000000  0  9G24G17G26G19G11G08G07G28G13
 116736011.333 7  90963116.36744  22214088.164                    22214098.867
 119017279.224 7  92740865.137 7  22648244.836                    22648255.559
 121239011.091 7  94472028.94844  23071020.336                    23071030.234
 127096152.660 6  99035981.58444  24185599.969                    24185608.266
 113273435.558 7  88265063.15945  21555212.531                    21555221.031
 106316818.152 8  82844310.64446  20231416.219                    20231424.895
 107434102.637 8  83714917.538 8  20444032.203                    20444040.152
 115670962.587 8  90133262.37545  22011447.984                    22011455.813
 128082337.545 6  99804417.40242  24373280.938                    24373295.945
 11  8 10 19 29  0.0000000  0  9G24G17G26G19G11G08G07G28G13
 116696482.848 7  90932315.01345  22206566.320                    22206576.723
 118934964.653 7  92676724.029 7  22632581.055                    22632591.238
 121193666.050 7  94436695.15844  23062391.586                    23062401.875
 127201276.833 7  99117896.45343  24205604.758                    24205612.656
 113279259.635 7  88269601.42145  21556320.891                    21556328.918
 106283675.941 8  82818485.53746  20225109.688                    20225117.902
 107461105.595 8  83735958.778 8  20449170.492                    20449178.820
 115646203.009 8  90113969.21445  22006736.320                    22006743.902
 128193607.957 6  99891121.23643  24394455.242                    24394470.539
 11  8 10 19 29 30.0000000  0  9G24G17G26G19G11G08G07G28G13
 116657401.332 7  90901861.94045  22199128.938                    22199139.770
 118852947.620 7  92612814.740 7  22616973.664                    22616983.926
 121148895.471 7  94401809.02344  23053872.398                    23053882.129
 127306475.483 7  99199869.36044  24225623.641                    24225631.641
 113285664.572 7  88274592.28145  21557539.805                    21557548.137
 106250959.226 8  82792991.99146  20218883.836                    20218892.387
 107488590.998 8  83757375.951 8  20454400.680                    20454409.133
 115621495.120 7  90094716.34145  22002034.578                    22002042.250
 128304825.307 6  99977783.67042  24415620.188                    24415634.703
 11  8 10 19 30  0.0000000  0  9G24G17G26G19G11G08G07G28G13
 116618769.177 7  90871759.02945  22191777.570                    22191788.313
 118771229.489 7  92549138.377 7  22601422.883                    22601433.500
 121104700.885 7  94367371.72144  23045462.234                    23045472.152
 127411746.024 7  99281898.28844  24245655.961                    24245663.766
 113292650.662 7  88280036.00845  21558869.164                    21558877.395
 106218670.190 8  82767831.69446  20212739.766                    20212747.957
 107516559.027 8  83779169.200 8  20459722.938                    20459731.199
 115596838.381 8  90075503.31845  21997342.453                    21997350.344
 128415986.895 6 100064402.64242  24436773.719                    24436788.188
 11  8 10 19 30 30.0000000  0  9G24G17G26G19G11G08G07G28G13
 116580588.596 7  90842007.99045  22184512.141                    22184522.832
 118689811.845 7  92485696.156 7  22585929.242                    22585939.699
 121061083.883 7  94333384.45344  23037162.664                    23037172.348
 127517086.314 7  99363981.56443  24265701.953                    24265709.629
 113300218.082 7  88285932.70845  21560309.820                    21560317.277
 106186811.683 8  82743006.87846  20206676.805                    20206685.402
 107545010.227 8  83801338.933 8  20465136.977                    20465145.215
 115572232.317 8  90056329.78445  21992660.063                    21992667.512
 128527089.999 6 100150976.08943  24457915.523                    24457930.984
 11  8 10 19 31  0.0000000  0  9G24G17G26G19G11G08G07G28G13
 116542861.848 7  90812610.58845  22177332.875                    22177343.855
 118608695.977 7  92422489.070 7  22570493.969                    22570504.023
 121018045.254 7  94299847.90044  23028972.781                    23028982.352
 127622493.801 7  99446117.24743  24285759.836                    24285768.031
 113308366.757 7  88292282.34245  21561859.961                    21561867.813
 106155385.272 8  82718518.76146  20200697.047                    20200705.879
 107573944.837 8  83823885.372 8  20470642.977                    20470651.168
 115547676.287 8  90037195.22945  21987987.102                    21987994.949
 128638131.812 6 100237501.67442  24479047.133                    24479062.633
 11  8 10 19 31 30.0000000  0  9G24G17G26G19G11G08G07G28G13
 116505591.529 7  90783568.83345  22170240.898                    22170251.184
 118527883.422 7  92359518.341 7  22555116.000                    22555125.727
 120975586.307 7  94266763.02844  23020892.656                    23020902.785
 127727966.317 6  99528303.57143  24305830.477                    24305839.133
 113317097.393 8  88299085.45345  21563520.953                    21563528.895
 106124393.860 8  82694369.60746  20194799.328                    20194807.590
 107603363.063 8  83846808.650 8  20476241.164                    20476249.238
 115523169.957 8  90018099.41545  21983323.578                    21983331.090
 128749109.859 6 100323977.64942  24500165.570                    24500180.969
 11  8 10 19 32  0.0000000  0  9G24G17G26G19G11G08G07G28G13
 116468779.512 7  90754884.21245  22163235.367                    22163246.176
 118447375.139 7  92296784.712 7  22539795.656                    22539805.219
 120933708.181 7  94234130.76544  23012923.320                    23012934.109
 127833501.306 6  99610538.57643  24325913.102                    24325920.914
 113326409.538 7  88306341.67845  21565293.109                    21565301.219
 106093839.118 8  82670560.72146  20188985.000                    20188993.117
 107633265.023 8  83870108.855 7  20481931.703                    20481939.418
 115498712.686 8  89999041.82245  21978669.922                    21978677.441
 128860021.191 6 100410401.59542  24521272.602                    24521287.684
 11  8 10 19 32 30.0000000  0  9G24G17G26G19G11G08G07G28G13
 116432428.091 7  90726558.48245  22156317.891                    22156328.742
 118367172.201 7  92234289.010 7  22524532.539                    22524543.293
 120892412.207 7  94201952.13044  23005065.039                    23005075.367
 127939096.434 6  99692820.45543  24346007.109                    24346015.547
 113336303.711 8  88314051.44545  21567176.117                    21567184.059
 106063723.346 8  82647093.88946  20183254.305                    20183262.477
 107663651.230 8  83893786.397 8  20487713.609                    20487722.059
 115474304.191 8  89980022.23945  21974024.805                    21974032.531
 128970863.416 6 100496771.73943  24542365.422                    24542380.645
 11  8 10 19 33  0.0000000  0  9G24G17G26G19G11G08G07G28G13
 116396539.511 7  90698593.41845  22149488.578                    22149499.668
 118287276.249 7  92172032.517 7  22509329.195                    22509339.676
 120851699.467 7  94170227.93744  22997317.453                    22997327.961
 128044749.436 6  99775147.44043  24366112.219                    24366120.473
 113346780.033 8  88322214.82645  21569169.695                    21569177.691
 106034048.642 8  82623970.74346  20177607.609                    20177615.820
 107694521.835 8  83917841.385 7  20493588.078                    20493596.422
 115449943.739 8  89961040.07245  21969389.313                    21969396.598
 129081633.242 6 100583085.39943  24563444.172                    24563460.551
 11  8 10 19 33 30.0000000  0  9G24G17G26G19G11G08G07G28G13
 116361116.167 7  90670990.87645  22142747.461                    22142758.063
 118207688.629 7  92110016.271 7  22494184.273                    22494194.223
 120811571.588 7  94138959.48744  22989681.570                    22989691.512
 128150458.290 6  99857517.89743  24386227.977                    24386236.113
 113357838.672 8  88330831.95545  21571274.188                    21571282.129
 106004818.004 8  82601193.62846  20172044.766                    20172053.488
 107725877.387 8  83942274.238 8  20499554.969                    20499563.184
 115425631.290 8  89942095.31445  21964763.141                    21964770.715
 129192328.670 6 100669341.11543  24584508.656                    24584525.035
 11  8 10 19 34  0.0000000  0  9G24G17G26G19G11G08G07G28G13
 116326159.912 7  90643752.28145  22136095.336                    22136106.195
 118128410.212 7  92048240.966 7  22479097.875                    22479108.000
 120772029.248 7  94108147.31844  22982156.492                    22982166.844
 128256220.006 6  99939929.56543  24406354.133                    24406362.379
 113369479.462 8  88339902.70945  21573489.117                    21573497.395
 105976032.827 8  82578763.62646  20166567.227                    20166575.789
 107757717.701 8  83967084.856 8  20505614.266                    20505622.406
 115401366.309 8  89923187.55345  21960145.328                    21960153.117
 129302946.786 6 100755536.62742  24605559.125                    24605575.887
 11  8 10 19 34 30.0000000  0  9G24G17G26G19G11G08G07G28G13
 116291673.007 7  90616879.41545  22129533.078                    22129543.051
 118049442.762 7  91986707.968 7  22464070.930                    22464080.836
 120733073.633 7  94077792.34444  22974743.398                    22974753.484
 128362032.571 6 100022380.88043  24426489.664                    24426497.895
 113381702.592 8  88349427.23945  21575814.961                    21575823.832
 105947695.600 8  82556682.68146  20161174.750                    20161183.191
 107790043.277 8  83992273.601 8  20511764.852                    20511773.445
 115377148.434 8  89904316.49245  21955537.047                    21955544.754
 129413484.834 6 100841669.68943  24626594.375                    24626610.441
 11  8 10 19 35  0.0000000  0  9G24G17G26G19G11G08G07G28G13
 116257657.857 7  90590374.15845  22123059.680                    22123070.621
 117970787.231 7  91925418.032 7  22449103.164                    22449113.328
 120694706.143 7  94047895.62244  22967442.305                    22967452.715
 128467893.891 6 100104870.17243  24446633.992                    24446642.563
 113394508.098 8  88359405.56645  21578251.797                    21578260.359
 105919808.807 8  82534952.71646  20155868.531                    20155876.688
 107822854.423 8  84017840.702 8  20518009.219                    20518017.828
 115352977.395 8  89885481.92745  21950937.750                    21950944.836
 129523940.397 6 100927738.47642  24647613.414                    24647630.520
 11  8 10 19 35 30.0000000  0  9G24G17G26G19G11G08G07G28G13
 116224116.953 7  90564238.43245  22116676.930                    22116687.840
 117892445.515 7  91864372.608 7  22434195.000                    22434205.352
 120656928.134 7  94018458.24044  22960253.711                    22960263.602
 128573802.466 6 100187396.27143  24466787.641                    24466796.195
 113407896.441 8  88369838.06145  21580799.656                    21580807.914
 105892374.952 8  82513575.68946  20150647.547                    20150655.773
 107856151.557 8  84043786.517 8  20524345.367                    20524353.523
 115328852.826 8  89866683.57845  21946346.414                    21946353.984
 129634311.305 6 101013741.36542  24668616.469                    24668633.953
 11  8 10 19 36  0.0000000  0  8G24G17G26G19G11G08G07G28
 116191053.243 7  90538474.55245  22110385.570                    22110396.742
 117814419.765 7  91803573.415 7  22419347.227                    22419357.094
 120619741.565 7  93989481.73444  22953176.602                    22953187.602
 128679756.800 6 100269958.00943  24486950.492                    24486958.445
 113421868.446 8  88380725.35945  21583458.617                    21583466.598
 105865397.143 8  82492554.02346  20145513.914                    20145522.441
 107889935.909 8  84070111.966 8  20530774.297                    20530782.645
 115304775.655 8  89847922.16545  21941764.461                    21941772.230
 11  8 10 19 36 30.0000000  0  8G24G17G26G19G11G08G07G28
 116158466.930 7  90513082.66145  22104184.586                    22104195.066
 117736709.364 7  91743019.951 7  22404559.352                    22404569.305
 120583145.584 7  93960965.40144  22946213.094                    22946223.320
 128785752.815 6 100352552.24343  24507121.000                    24507128.605
 113436422.276 8  88392066.00545  21586227.891                    21586235.992
 105838875.599 8  82471887.88946  20140466.953                    20140475.820
 107924205.770 8  84096815.722 7  20537295.547                    20537303.883
 115280743.623 8  89829195.91445  21937191.492                    21937199.465
 11  8 10 19 37  0.0000000  0  8G24G17G26G19G11G08G07G28
 116126360.425 7  90488064.64845  22098074.656                    22098085.242
 117659315.473 7  91682713.100 7  22389831.578                    22389841.230
 120547141.236 7  93932910.09044  22939361.320                    22939371.590
 128891788.016 6 100435177.03243  24527299.039                    24527306.699
 113451558.159 8  88403860.20645  21589107.898                    21589116.273
 105812812.668 8  82451579.11646  20135507.313                    20135515.457
 107958961.398 8  84123898.007 7  20543909.469                    20543917.602
 115256756.285 8  89810504.50345  21932626.563                    21932634.852
 11  8 10 19 37 30.0000000  0  8G24G17G26G19G11G08G07G28
 116094735.683 7  90463422.04045  22092056.859                    22092067.387
 117582239.239 7  91622653.778 7  22375164.531                    22375174.102
 120511729.632 7  93905316.66044  22932622.828                    22932633.387
 128997860.385 6 100517830.75043  24547484.148                    24547492.066
 113467275.740 8  88416107.66345  21592099.266                    21592106.945
 105787210.488 8  82431629.36946  20130635.727                    20130643.855
 107994202.709 8  84151358.735 7  20550615.898                    20550623.738
 115232813.436 8  89791847.75845  21928070.406                    21928078.246
 11  8 10 19 38  0.0000000  0  8G24G17G26G19G11G08G07G28
 116063594.391 7  90439156.14245  22086130.883                    22086141.016
 117505481.527 7  91562842.649 7  22360557.891                    22360567.539
 120476910.989 7  93878185.26244  22925997.133                    22926007.492
 129103967.035 6 100600511.14643  24567675.727                    24567683.633
 113483574.518 8  88428808.01745  21595200.625                    21595208.574
 105762070.271 8  82412039.59546  20125851.703                    20125860.086
 108029929.390 8  84179197.681 7  20557414.211                    20557422.176
 115208914.212 7  89773225.00445  21923522.766                    21923530.324
 11  8 10 19 38 30.0000000  0  8G24G17G26G19G11G08G07G28
 116032938.704 8  90415268.64945  22080297.406                    22080307.523
 117429043.580 7  91503280.705 7  22346012.391                    22346022.215
 120442686.868 7  93851517.12644  22919484.898                    22919494.352
 129210106.316 6 100683217.06243  24587873.109                    24587881.348
 113500454.309 8  88441961.09845  21598412.758                    21598421.082
 105737394.552 8  82392811.75846  20121155.961                    20121164.348
 108066141.893 8  84207415.177 7  20564305.648                    20564313.453
 115185058.687 7  89754636.30045  21918983.211                    21918991.012
 11  8 10 19 39  0.0000000  0  8G24G17G26G19G11G08G07G28
 116002770.723 7  90391761.17645  22074556.016                    22074566.809
 117352926.935 7  91443969.137 7  22331527.906                    22331537.449
 120409058.000 7  93825312.80644  22913085.328                    22913094.719
 129316275.812 6 100765946.47143  24608076.539                    24608084.703
 113517914.825 8  88455566.69845  21601734.992                    21601743.754
 105713185.672 8  82373947.69346  20116549.102                    20116556.871
 108102840.091 8  84236011.146 7  20571289.063                    20571297.070
 115161246.261 7  89736081.18445  21914451.883                    21914460.219
 11  8 10 19 39 30.0000000  0  8G24G17G26G19G11G08G07G28
 115973092.786 7  90368635.55945  22068908.617                    22068919.113
 117277132.623 8  91384908.710 7  22317105.086                    22317114.215
 120376025.516 7  93799573.21744  22906799.625                    22906808.945
 129422473.406 6 100848697.78343  24628286.188                    24628293.461
 113535956.564 8  88469625.20345  21605168.469                    21605176.809
 105689446.056 8  82355449.29746  20112031.586                    20112040.035
 108140024.526 8  84264985.978 7  20578364.703                    20578373.434
 115137476.965 7  89717559.67746  21909928.531                    21909936.418
 11  8 10 19 40  0.0000000  0  8G24G17G26G19G11G08G07G28
 115943906.196 7  90345892.81745  22063354.914                    22063365.145
 117201661.304 7  91326099.985 7  22302742.836                    22302752.055
 120343589.735 7  93774298.57244  22900627.836                    22900636.605
 129528696.925 6 100931469.31043  24648499.469                    24648507.250
 113554578.811 8  88484136.05245  21608712.156                    21608720.496
 105666176.889 8  82337317.47346  20107603.250                    20107611.719
 108177694.414 8  84294339.101 7  20585533.039                    20585541.281
 115113749.995 7  89699071.16245  21905413.750                    21905421.309
 11  8 10 19 40 30.0000000  0  8G24G17G26G19G11G08G07G28
 115915213.050 7  90323534.56545  22057895.008                    22057905.008
 117126514.591 7  91267544.189 7  22288442.594                    22288452.688
 120311751.486 7  93749489.55544  22894568.594                    22894578.316
 129634944.283 6 101014259.43143  24668717.625                    24668725.406
 113573781.437 8  88499099.14445  21612366.766                    21612374.652
 105643380.541 8  82319554.08146  20103265.492                    20103274.004
 108215850.196 8  84324070.841 7  20592794.016                    20592802.348
 115090065.348 8  89680615.61145  21900906.633                    21900914.289
 11  8 10 19 41  0.0000000  0  8G24G17G26G19G11G08G07G28
 115887015.431 7  90301562.42845  22052528.367                    22052538.992
 117051693.564 7  91209242.190 7  22274204.359                    22274214.004
 120280512.031 7  93725147.13444  22888624.172                    22888633.227
 129741213.402 6 101097066.54243  24688940.203                    24688947.645
 113593564.234 8  88514514.31245  21616131.211                    21616138.883
 105621059.693 8  82302161.21946  20099018.000                    20099026.207
 108254491.812 8  84354181.164 8  20600147.164                    20600155.477
 115066422.970 8  89662192.99045  21896407.320                    21896414.887
 11  8 10 19 41 30.0000000  0  8G24G17G26G19G11G08G07G28
 115859315.559 7  90279978.15945  22047257.664                    22047267.941
 116977199.628 8  91151195.048 7  22260029.227                    22260038.215
 120249872.400 7  93701272.08944  22882793.352                    22882803.203
 129847502.613 6 101179889.25543  24709166.281                    24709173.883
 113613927.070 8  88530381.46845  21620005.930                    21620013.879
 105599216.859 8  82285140.81846  20094861.383                    20094870.070
 108293619.762 8  84384670.444 7  20607593.047                    20607601.324
 115042822.649 8  89643803.15245  21891916.305                    21891924.273
 11  8 10 19 42  0.0000000  0  8G24G17G26G19G11G08G07G28
 115832114.790 7  90258782.80345  22042080.953                    22042091.938
 116903033.643 8  91093403.463 7  22245915.594                    22245925.355
 120219832.788 7  93677864.62644  22877077.492                    22877086.922
 129953809.070 6 101262725.38143  24729395.930                    24729403.086
 113634869.377 8  88546700.15345  21623990.781                    21623999.109
 105577853.153 8  82268493.76746  20090796.172                    20090804.516
 108333233.263 8  84415538.081 7  20615131.000                    20615139.703
 115019263.651 8  89625445.51545  21887433.313                    21887440.723
 11  8 10 19 42 30.0000000  0  8G24G17G26G19G11G08G07G28
 115805415.195 7  90237977.98145  22037000.711                    22037010.742
 116829196.394 8  91035868.010 7  22231864.516                    22231874.125
 120190393.663 7  93654925.06844  22871474.898                    22871485.254
 130060130.830 7 101345573.47543  24749628.039                    24749635.820
 113656390.755 8  88563470.05345  21628086.258                    21628094.512
 105556970.709 8  82252221.71946  20086822.180                    20086830.961
 108373332.265 8  84446784.028 7  20622761.578                    20622770.488
 114995745.470 8  89607119.66545  21882957.672                    21882965.363
 11  8 10 19 43  0.0000000  0  8G24G17G26G19G11G08G07G28
 115779218.557 7  90217565.07645  22032015.359                    22032026.020
 116755688.988 8  90978589.582 7  22217876.594                    22217886.266
 120161556.019 7  93632454.20144  22865987.750                    22865997.172
 130166465.574 6 101428431.65943  24769862.703                    24769871.191
 113678490.829 8  88580690.89845  21632292.086                    21632300.441
 105536571.263 8  82236326.04146  20082940.133                    20082949.059
 108413916.821 8  84478408.329 7  20630484.938                    20630493.355
 114972268.274 7  89588825.75345  21878490.141                    21878497.516
 11  8 10 19 43 30.0000000  0  8G24G17G26G19G11G08G07G28
 115753526.945 7  90197545.67945  22027126.938                    22027136.582
 116682512.531 8  90921569.031 7  22203951.555                    22203961.270
 120133320.430 7  93610452.46844  22860614.430                    22860623.840
 130272811.123 6 101511298.29243  24790099.273                    24790108.402
 113701169.135 8  88598362.29945  21636607.109                    21636615.578
 105516657.101 8  82220808.51646  20079151.000                    20079159.195
 108454986.814 8  84510410.891 7  20638300.219                    20638308.754
 114948831.662 8  89570563.47045  21874030.539                    21874038.211
 11  8 10 19 44  0.0000000  0  8G24G17G26G19G11G08G07G28
 115728342.178 7  90177921.23645  22022333.602                    22022344.188
 116609668.271 8  90864807.338 7  22190089.578                    22190099.176
 120105687.675 7  93588920.47244  22855355.891                    22855365.441
 130379165.914 6 101594172.08243  24810338.422                    24810347.109
 113724425.346 8  88616484.01345  21641033.063                    21641041.195
 105497229.945 8  82205670.45946  20075453.977                    20075462.867
 108496542.033 8  84542791.551 7  20646208.023                    20646216.223
 114925435.651 8  89552332.81545  21869578.656                    21869586.160
 11  8 10 19 44 30.0000000  0  7G24G17G26G11G08G07G28
 115703666.690 7  90158693.61945  22017638.305                    22017648.398
 116537157.883 8  90808305.800 7  22176290.977                    22176300.949
 120078659.024 7  93567859.19144  22850212.516                    22850221.879
 113748259.897 8  88635056.37745  21645568.711                    21645576.789
 105478292.755 8  82190914.20246  20071850.508                    20071859.055
 108538583.238 8  84575550.910 7  20654208.031                    20654216.465
 114902080.640 8  89534134.11345  21865133.906                    21865141.801
 11  8 10 19 45  0.0000000  0  7G24G17G26G11G08G07G28
 115679501.618 7  90139863.73845  22013039.563                    22013050.125
 116464981.914 8  90752064.861 7  22162556.758                    22162565.930
 120052234.440 7  93547268.61644  22845184.453                    22845193.965
 113772671.304 8  88654078.25345  21650214.109                    21650222.172
 105459847.249 8  82176541.07946  20068340.578                    20068348.668
 108581109.591 8  84608688.298 7  20662300.742                    20662308.914
 114878765.557 8  89515966.52245  21860697.203                    21860705.129
 11  8 10 19 45 30.0000000  0  7G24G17G26G11G08G07G28
 115655847.963 8  90121432.37245  22008538.664                    22008549.215
 116393140.679 8  90696084.740 7  22148885.828                    22148895.086
 120026413.786 7  93527148.64044  22840270.859                    22840280.320
 113797658.831 8  88673549.04145  21654969.133                    21654977.492
 105441894.409 8  82162551.84146  20064924.070                    20064932.211
 108624120.460 8  84642203.231 7  20670485.547                    20670493.500
 114855489.640 8  89497829.46346  21856267.945                    21856275.785
 11  8 10 19 46  0.0000000  0  7G24G17G26G11G08G07G28
 115632707.185 8  90103400.63645  22004134.828                    22004145.621
 116321634.877 8  90640366.004 7  22135278.523                    22135287.809
 120001197.486 7  93507499.55544  22835472.484                    22835482.090
 113823221.494 8  88693468.01645  21659833.117                    21659841.609
 105424435.562 8  82148947.53646  20061601.617                    20061609.980
 108667614.964 8  84676095.027 7  20678762.320                    20678770.219
 114832252.837 8  89479722.86745  21851846.117                    21851854.242
 11  8 10 19 46 30.0000000  0  7G24G17G26G11G08G07G28
 115610081.721 8  90085770.45645  21999829.734                    21999839.586
 116250466.039 8  90584909.834 7  22121735.578                    22121745.059
 119976586.479 7  93488322.16644  22830788.773                    22830798.594
 113849359.388 8  88713835.19545  21664807.258                    21664815.191
 105407473.843 8  82135730.61646  20058374.289                    20058382.578
 108711593.676 8  84710364.141 7  20687130.992                    20687139.477
 114809055.149 8  89461646.77946  21847431.844                    21847439.598
 11  8 10 19 47  0.0000000  0  7G24G17G26G11G08G07G28
 115587973.220 8  90068543.09145  21995622.391                    21995632.883
 116179635.249 8  90529717.069 7  22108257.031                    22108266.348
 119952581.423 7  93469616.92544  22826220.984                    22826230.664
 113876072.004 8  88734650.22145  21669890.648                    21669898.570
 105391011.174 8  82122902.56046  20055241.211                    20055249.648
 108756056.378 8  84745010.377 7  20695592.086                    20695600.461
 114785896.594 8  89443601.17845  21843024.766                    21843032.703
 11  8 10 19 47 30.0000000  0  7G24G17G26G11G08G07G28
 115566382.976 7  90051719.55745  21991513.914                    21991524.105
 116109143.305 8  90474788.343 7  22094842.609                    22094852.258
 119929182.297 7  93451383.85644  22821767.859                    22821778.266
 113903358.423 8  88755912.35245  21675083.094                    21675091.137
 105375048.937 8  82110464.44446  20052203.641                    20052212.328
 108801002.719 8  84780033.469 7  20704145.336                    20704153.859
 114762776.553 8  89425585.58045  21838625.383                    21838633.324
 11  8 10 19 48  0.0000000  0  7G24G17G26G11G08G07G28
 115545312.471 8  90035301.01045  21987504.078                    21987514.480
 116038990.744 8  90420124.081 7  22081493.477                    22081502.844
 119906389.129 7  93433622.97244  22817430.609                    22817440.715
 113931217.640 8  88777620.81945  21680384.734                    21680392.531
 105359588.440 8  82098417.29846  20049261.695                    20049269.766
 108846431.684 8  84815432.630 7  20712789.766                    20712798.281
 114739694.453 8  89407599.55246  21834233.219                    21834240.723
 11  8 10 19 48 30.0000000  0  7G24G17G26G11G08G07G28
 115524762.788 8  90019288.30845  21983594.023                    21983604.188
 115969178.084 8  90365724.663 7  22068208.320                    22068217.629
 119884202.046 7  93416334.36244  22813208.516                    22813218.699
 113959648.815 8  88799774.97945  21685794.648                    21685802.719
 105344630.927 8  82086762.09146  20046415.313                    20046423.539
 108892342.857 8  84851207.532 7  20721526.641                    20721535.148
 114716649.990 8  89389642.85346  21829847.805                    21829855.148
 11  8 10 19 49  0.0000000  0  7G24G17G26G11G08G07G28
 115504735.754 7  90003682.87745  21979782.727                    21979792.914
 115899706.645 8  90311591.124 7  22054987.922                    22054997.699
 119862621.757 7  93399518.57644  22809102.344                    22809111.840
 113988651.504 8  88822374.47245  21691313.742                    21691322.133
 105330178.724 8  82075500.62346  20043665.367                    20043673.664
 108938736.101 8  84887358.081 7  20730354.945                    20730363.102
 114693643.269 8  89371715.55946  21825469.672                    21825477.508
 11  8 10 19 49 30.0000000  0  7G24G17G26G11G08G07G28
 115485233.534 8  89988486.37745  21976071.313                    21976081.859
 115830577.656 8  90257724.426 7  22041833.109                    22041842.297
 119841648.851 7  93383176.08444  22805110.766                    22805121.305
 114018225.020 8  88845418.76145  21696941.672                    21696949.691
 105316234.224 8  82064634.77646  20041011.703                    20041020.012
 108985611.553 8  84923884.366 7  20739275.266                    20739283.410
 114670674.548 8  89353817.88946  21821099.102                    21821106.492
 11  8 10 19 50  0.0000000  0  7G24G17G26G11G08G07G28
 115466257.332 7  89973699.75945  21972460.422                    21972470.160
 115761791.390 8  90204124.813 7  22028743.531                    22028753.059
 119821283.292 7  93367306.82744  22801235.336                    22801245.039
 114048368.565 8  88868907.22845  21702677.680                    21702685.672
 105302798.742 8  82054165.55846  20038455.023                    20038463.371
 109032968.143 8  84960785.570 7  20748286.805                    20748295.238
 114647743.115 8  89335949.26246  21816735.109                    21816742.418
 11  8 10 19 50 30.0000000  0  7G24G17G26G11G08G07G28
 115447808.819 7  89959324.32045  21968949.547                    21968960.141
 115693348.981 8  90150793.113 7  22015719.141                    22015728.352
 119801525.503 7  93351911.19044  22797475.375                    22797485.523
 114079081.671 8  88892839.49945  21708522.109                    21708530.359
 105289874.405 8  82044094.64946  20035995.672                    20036003.871
 109080806.238 8  84998061.963 7  20757390.070                    20757398.629
 114624849.061 8  89318109.76345  21812378.633                    21812386.078
 11  8 10 19 51  0.0000000  0  7G24G17G26G11G08G07G28
 115429889.356 7  89945361.12545  21965539.758                    21965549.797
 115625251.273 7  90097730.021 7  22002760.648                    22002770.262
 119782375.688 7  93336989.25044  22793831.625                    22793841.523
 114110363.217 8  88917214.71145  21714474.844                    21714482.641
 105277462.736 8  82034423.21446  20033634.039                    20033642.047
 109129124.820 8  85035712.765 7  20766584.773                    20766592.984
 114601992.216 8  89300299.26346  21808028.813                    21808036.520
 11  8 10 19 51 30.0000000  0  7G24G17G26G11G08G07G28
 115412500.383 8  89931811.29545  21962230.336                    21962241.145
 115557499.527 7  90044936.499 7  21989868.039                    21989876.996
 119763834.013 7  93322541.19644  22790303.172                    22790313.199
 114142212.518 7  88942032.32045  21720534.648                    21720543.594
 105265565.684 8  82025152.78146  20031370.008                    20031378.418
 109177923.532 8  85073737.695 7  20775870.984                    20775879.168
 114579172.450 8  89282517.65346  21803686.570                    21803693.789
 11  8 10 19 52  0.0000000  0  7G24G17G26G11G08G07G28
 115395643.619 7  89918676.15645  21959022.906                    21959033.773
 115490094.630 7  89992413.258 7  21977041.141                    21977050.773
 119745901.025 7  93308567.44044  22786890.586                    22786900.621
 114174629.371 7  88967292.18945  21726703.664                    21726711.840
 105254185.562 8  82016285.15246  20029204.133                    20029212.586
 109227202.614 8  85112136.928 7  20785248.484                    20785256.863
 114556390.208 8  89264765.26946  21799351.258                    21799358.641
 11  8 10 19 52 30.0000000  0  7G24G17G26G11G08G07G28
 115379320.124 8  89905956.56145  21955916.781                    21955927.113
 115423036.967 7  89940160.593 7  21964280.281                    21964290.059
 119728576.561 7  93295067.84944  22783593.891                    22783604.293
 114207611.939 7  88992992.87545  21732980.578                    21732988.508
 105243323.112 8  82007820.90946  20027137.086                    20027145.762
 109276960.746 8  85150909.454 7  20794717.328                    20794725.680
 114533644.788 8  89247041.59146  21795022.906                    21795030.473
 11  8 10 19 53  0.0000000  0  7G24G17G26G11G08G07G28
 115363531.157 8  89893653.47245  21952912.117                    21952922.387
 115356327.141 7  89888178.966 7  21951585.836                    21951595.074
 119711860.402 7  93282042.26544  22780413.336                    22780422.891
 114241159.668 8  89019133.95045  21739364.336                    21739372.441
 105232980.092 8  81999761.39746  20025169.102                    20025177.539
 109327197.579 8  85190055.002 7  20804276.945                    20804285.152
 114510935.548 8  89229346.11246  21790701.414                    21790708.824
 11  8 10 19 53 30.0000000  0  7G24G17G26G11G08G07G28
 115348278.395 7  89881768.20745  21950009.258                    21950019.930
 115289966.456 7  89836469.390 7  21938957.844                    21938966.965
 119695753.077 7  93269491.11344  22777347.609                    22777358.027
 114275271.842 7  89045714.86045  21745855.906                    21745863.719
 105223158.630 8  81992108.31146  20023300.078                    20023308.441
 109377912.711 8  85229573.248 7  20813927.813                    20813936.391
 114488263.460 8  89211679.56846  21786387.008                    21786394.695
 11  8 10 19 54  0.0000000  0  7G24G17G26G11G08G07G28
 115333562.965 7  89870301.65345  21947209.477                    21947219.738
 115223955.212 7  89785032.110 7  21926396.484                    21926405.766
 119680254.206 7  93257414.07644  22774398.320                    22774408.387
 114309947.201 8  89072734.62745  21752454.609                    21752462.594
 105213859.777 8  81984862.44646  20021530.695                    20021538.992
 109429105.524 8  85269463.703 7  20823669.406                    20823677.941
 114465628.045 8  89194041.60446  21782079.680                    21782087.539
 11  8 10 19 54 30.0000000  0  7G24G17G26G11G08G07G28
 115319385.709 7  89859254.46245  21944511.383                    21944521.805
 115158293.850 7  89733867.463 7  21913901.547                    21913910.801
 119665363.378 7  93245810.84044  22771565.195                    22771574.691
 114345184.395 7  89100192.18945  21759159.734                    21759167.777
 105205084.540 8  81978024.59046  20019860.727                    20019869.219
 109480775.020 8  85309725.606 7  20833502.016                    20833510.199
 114443028.271 8  89176431.40946  21777779.078                    21777786.844
 11  8 10 19 55  0.0000000  0  7G24G17G26G11G08G07G28
 115305748.314 7  89848627.93945  21941916.273                    21941926.859
 115092983.392 7  89682976.248 7  21901473.664                    21901482.645
 119651081.067 7  93234681.75944  22768847.102                    22768857.078
 114380982.814 8  89128087.06645  21765971.867                    21765980.090
 105196835.188 8  81971596.52746  20018291.266                    20018299.020
 109532920.975 8  85350358.775 7  20843424.953                    20843433.195
 114420464.672 8  89158849.39646  21773485.594                    21773493.098
 11  8 10 19 55 30.0000000  0  7G24G17G26G11G08G07G28
 115292651.806 8  89838422.88545  21939424.227                    21939434.355
 115028024.598 7  89632359.065 7  21889112.141                    21889121.297
 119637407.101 7  93224026.72744  22766244.930                    22766254.516
 114417341.144 7  89156418.22645  21772891.070                    21772898.574
 105189113.003 8  81965579.22246  20016821.391                    20016829.453
 109585542.470 8  85391362.505 7  20853438.664                    20853447.102
 114397937.147 8  89141295.49246  21769198.547                    21769205.977
 11  8 10 19 56  0.0000000  0  7G24G17G26G11G08G07G28
 115280097.239 8  89828640.11845  21937035.477                    21937045.035
 114963418.001 7  89582016.311 7  21876817.648                    21876826.711
 119624341.057 7  93213845.40844  22763758.641                    22763768.133
 114454258.392 8  89185184.91745  21779915.648                    21779923.777
 105181919.322 8  81959973.74746  20015452.484                    20015461.293
 109638638.756 8  85432736.184 7  20863542.594                    20863551.129
 114375445.079 8  89123769.22646  21764918.398                    21764925.848
 11  8 10 19 56 30.0000000  0  7G24G17G26G11G08G07G28
 115268086.618 8  89819281.20845  21934749.602                    21934760.012
 114899164.536 7  89531948.731 7  21864590.516                    21864599.715
 119611883.676 7  93204138.36344  22761388.078                    22761397.676
 114491733.761 8  89214386.51445  21787046.930                    21787055.285
 105175256.556 8  81954781.97546  20014184.484                    20014193.254
 109692209.989 8  85474479.966 7  20873736.680                    20873745.371
 114352989.757 8  89106271.57846  21760645.125                    21760652.711
 11  8 10 19 57  0.0000000  0  7G24G17G26G11G08G07G28
 115256620.569 8  89810346.66245  21932567.672                    21932577.867
 114835264.731 7  89482156.728 7  21852430.766                    21852439.762
 119600034.362 7  93194905.15044  22759133.328                    22759142.570
 114529765.976 8  89244022.01245  21794284.422                    21794292.438
 105169125.645 8  81950004.63746  20013018.023                    20013026.426
 109746254.606 8  85516592.614 7  20884021.266                    20884029.719
 114330570.062 8  89088801.71446  21756378.813                    21756386.668
 11  8 10 19 57 30.0000000  0  7G24G17G26G11G08G07G28
 115245700.118 8  89801837.22445  21930490.102                    21930499.953
 114771718.945 7  89432640.583 7  21840338.297                    21840347.133
 119588792.563 7  93186145.31844  22756993.844                    22757003.777
 114568354.006 8  89274090.60145  21801627.711                    21801635.340
 105163527.734 8  81945642.60346  20011952.727                    20011961.457
 109800771.952 8  85559073.624 7  20894395.211                    20894403.914
 114308186.014 8  89071359.60646  21752119.063                    21752126.984
 11  8 10 19 58  0.0000000  0  7G24G17G26G11G08G07G28
 115235326.871 8  89793754.19545  21928515.719                    21928526.262
 114708528.594 7  89383401.402 7  21828313.258                    21828322.746
 119578158.690 7  93177859.18444  22754970.430                    22754980.469
 114607496.708 8  89304591.41145  21809076.125                    21809084.406
 105158465.140 8  81941697.71846  20010989.016                    20010997.379
 109855761.994 8  85601922.963 7  20904860.094                    20904868.711
 114285838.097 8  89053945.66146  21747866.625                    21747874.594
 11  8 10 19 58 30.0000000  0  7G24G17G26G11G08G07G28
 115225501.519 8  89786098.09345  21926646.391                    21926656.539
 114645693.870 7  89334439.343 7  21816356.359                    21816365.664
 119568132.423 7  93170046.49944  22753062.188                    22753071.902
 114647192.838 8  89335523.45445  21816629.828                    21816638.262
 105153938.870 8  81938170.73346  20010128.023                    20010136.898
 109911223.672 8  85645139.824 7  20915413.719                    20915422.109
 114263525.953 8  89036559.59146  21743620.805                    21743628.551
 11  8 10 19 59  0.0000000  0  7G24G17G26G11G08G07G28
 115216226.048 8  89778870.46845  21924880.930                    21924891.141
 114583216.104 8  89285755.434 7  21804467.094                    21804476.309
 119558713.940 7  93162707.46444  22751269.797                    22751280.133
 114687441.914 7  89366886.35245  21824289.102                    21824297.406
 105149951.567 8  81935063.73046  20009369.125                    20009378.113
 109967157.157 8  85688724.314 7  20926057.594                    20926066.039
 114241250.053 8  89019201.76746  21739381.516                    21739389.207
 11  8 10 19 59 30.0000000  0  7G24G17G26G11G08G07G28
 115207500.323 8  89772071.22045  21923220.109                    21923230.109
 114521094.852 7  89237349.305 7  21792645.813                    21792654.633
 119549901.695 7  93155840.76144  22749593.289                    22749603.418
 114728241.332 7  89398678.10445  21832052.875                    21832060.520
 105146502.411 8  81932376.06746  20008713.031                    20008721.680
 110023559.751 8  85732674.343 7  20936790.703                    20936798.992
 114219009.417 8  89001871.41446  21735149.148                    21735157.191
 11  8 10 20  0  0.0000000  0  7G24G17G26G11G08G07G28
 115199325.885 7  89765701.53545  21921665.063                    21921675.051
 114459330.937 7  89189221.632 7  21780892.656                    21780901.609
 119541696.029 7  93149446.74344  22748031.727                    22748041.137
 114769590.642 8  89430898.32845  21839921.633                    21839929.598
 105143593.881 8  81930109.65646  20008159.461                    20008168.137
 110080431.724 8  85776990.132 7  20947613.148                    20947621.637
 114196804.387 8  88984568.81146  21730923.930                    21730931.527
 11  8 10 20  0 30.0000000  0  7G24G17G26G11G08G07G28
 115191703.417 7  89759761.97345  21920214.469                    21920224.820
 114397924.642 7  89141372.618 7  21769207.219                    21769216.664
 119534096.285 7  93143524.84844  22746585.055                    22746594.852
 114811488.293 8  89463545.83945  21847894.211                    21847902.363
 105141226.833 8  81928265.18146  20007709.156                    20007717.773
 110137771.878 8  85821670.727 7  20958524.453                    20958533.008
 114174634.929 8  88967293.92146  21726705.414                    21726713.016
 11  8 10 20  1  0.0000000  0  7G24G17G26G11G08G07G28
 115184634.284 8  89754253.55845  21918869.398                    21918879.414
 114336877.290 7  89093803.291 7  21757590.984                    21757599.719
 119527102.670 7  93138075.26744  22745254.898                    22745263.984
 114853933.570 8  89496620.06845  21855971.781                    21855980.008
 105139403.462 8  81926844.35646  20007362.078                    20007370.340
 110195579.900 8  85866715.895 7  20969524.930                    20969533.547
 114152501.675 8  88950047.23946  21722493.617                    21722501.164
 11  8 10 20  1 30.0000000  0  7G24G17G26G11G08G07G28
 115178119.140 8  89749176.84445  21917629.055                    21917639.023
 114276189.053 8  89046513.794 7  21746041.961                    21746051.039
 119520714.352 7  93133097.36144  22744039.016                    22744049.254
 114896924.705 8  89530119.65445  21864152.688                    21864160.945
 105138124.415 8  81925847.68346  20007118.711                    20007127.574
 110253854.405 8  85912124.557 7  20980614.305                    20980623.059
 114130403.996 8  88932828.28746  21718288.398                    21718296.219
 11  8 10 20  2  0.0000000  0  7G24G17G26G11G08G07G28
 115172158.988 8  89744532.58645  21916495.094                    21916505.238
 114215860.467 8  88999504.543 7  21734561.594                    21734570.766
 119514931.359 7  93128591.13244  22742938.555                    22742947.770
 114940460.557 8  89564043.70545  21872437.344                    21872445.582
 105137391.384 7  81925276.47246  20006979.328                    20006987.945
 110312595.007 8  85957896.417 7  20991792.570                    20991800.941
 114108342.325 8  88915637.38346  21714090.148                    21714097.703
 11  8 10 20  2 30.0000000  0  7G24G17G26G11G08G07G28
 115166754.460 7  89740321.25645  21915466.367                    21915476.441
 114155891.875 8  88952775.819 7  21723150.102                    21723159.227
 119509752.491 7  93124555.64644  22741952.852                    22741962.523
 114984539.707 8  89598391.09745  21880824.867                    21880833.879
 105137205.071 7  81925131.27346  20006943.906                    20006952.613
 110371800.455 8  86004030.495 7  21003059.070                    21003067.516
 114086315.963 8  88898473.99346  21709898.727                    21709906.379
 11  8 10 20  3  0.0000000  0  7G24G17G26G11G08G07G28
 115161907.205 8  89736544.18445  21914544.344                    21914554.262
 114096284.406 8  88906328.488 7  21711806.711                    21711816.063
 119505178.079 7  93120991.15544  22741082.969                    22741092.039
 115029161.234 8  89633161.12345  21889316.078                    21889324.340
 105137567.879 8  81925413.96746  20007012.977                    20007021.742
 110431470.332 8  86050526.459 7  21014413.758                    21014422.223
 114064325.904 8  88881338.89046  21705714.328                    21705721.652
 11  8 10 20  3 30.0000000  0  7G24G17G26G11G08G07G28
 115157617.955 8  89733201.90845  21913728.008                    21913738.031
 114037038.601 8  88860162.968 7  21700532.742                    21700542.195
 119501207.477 7  93117897.18344  22740327.250                    22740336.242
 115074323.388 8  89668352.40345  21897910.539                    21897918.375
 105138480.762 8  81926125.28646  20007186.695                    20007195.363
 110491603.638 8  86097383.535 7  21025856.969                    21025865.371
 114042372.076 8  88864232.01246  21701536.477                    21701544.074
 11  8 10 20  4  0.0000000  0  7G24G17G26G11G08G07G28
 115153887.091 8  89730294.75745  21913018.227                    21913028.340
 113978154.744 7  88814279.483 7  21689327.664                    21689336.926
 119497840.001 7  93115273.18344  22739686.297                    22739695.746
 115120024.956 8  89703964.00545  21906607.297                    21906615.348
 105139944.516 8  81927265.85946  20007465.094                    20007473.676
 110552199.308 8  86144600.894 7  21037388.016                    21037396.488
 114020454.661 8  88847153.52046  21697365.648                    21697373.289
 11  8 10 20  4 30.0000000  0  7G24G17G26G11G08G07G28
 115150715.378 7  89727823.30645  21912414.719                    21912424.234
 113919632.881 7  88768678.069 7  21678191.070                    21678200.074
 119495074.944 7  93113118.57944  22739160.070                    22739169.625
 115166263.998 8  89739994.41445  21915405.852                    21915413.805
 105141960.088 8  81928836.42046  20007848.930                    20007857.238
 110613256.046 8  86192177.527 7  21049006.336                    21049014.973
 113998573.281 8  88830103.08746  21693201.914                    21693209.391
 11  8 10 20  5  0.0000000  0  7G24G17G26G11G08G07G28
 115148103.253 7  89725787.89245  21911917.508                    21911927.230
 113861473.382 7  88723359.023 7  21667124.047                    21667132.844
 119492911.160 7  93111432.50644  22738747.898                    22738757.699
 115213038.840 8  89776442.34245  21924307.313                    21924314.891
 105144528.130 8  81930837.47746  20008337.430                    20008345.625
 110674772.632 8  86240112.498 7  21060712.703                    21060721.430
 113976727.260 8  88813080.22446  21689044.828                    21689052.586
 11  8 10 20  5 30.0000000  0  7G24G17G26G11G08G07G28
 115146052.276 7  89724189.72145  21911527.383                    21911536.922
 113803677.004 7  88678322.925 7  21656125.508                    21656134.566
 119491349.150 6  93110215.34744  22738451.141                    22738461.063
 115260349.022 8  89813307.41245  21933309.992                    21933317.770
 105147651.247 8  81933271.05246  20008931.727                    20008940.219
 110736748.948 8  86288405.686 7  21072506.945                    21072515.109
 113954917.824 8  88796085.85646  21684894.609                    21684901.992
 11  8 10 20  6  0.0000000  0  7G24G17G26G11G08G07G28
 115144563.412 7  89723029.57945  21911243.961                    21911254.031
 113746244.689 8  88633570.522 7  21645196.727                    21645205.867
 119490388.346 7  93109466.65444  22738267.898                    22738278.078
 115308193.319 8  89850588.67745  21942414.086                    21942422.836
 105151330.917 8  81936138.31146  20009632.102                    20009640.578
 110799184.167 8  86337056.460 7  21084387.180                    21084396.727
 113933145.742 8  88779120.59746  21680751.594                    21680758.648
 11  8 10 20  6 30.0000000  0  7G24G17G26G11G08G07G28
 115143636.379 7  89722307.22645  21911067.469                    21911077.730
 113689176.207 8  88589101.611 7  21634336.539                    21634345.641
 119490027.193 7  93109185.21044  22738199.492                    22738209.188
 115356569.256 8  89888284.19945  21951620.000                    21951628.027
 105155566.754 8  81939438.95446  20010438.141                    20010446.613
 110862076.145 8  86386063.146 7  21096355.805                    21096364.516
 113911409.956 8  88762183.62246  21676615.469                    21676622.645
 11  8 10 20  7  0.0000000  0  7G24G17G26G11G08G07G28
 115143272.536 7  89722023.73245  21910998.141                    21911008.332
 113632471.898 7  88544916.475 7  21623546.195                    21623555.430
 119490265.307 6  93109370.74444  22738244.680                    22738255.117
 115405475.365 8  89926392.84045  21960926.570                    21960934.496
 105160360.392 8  81943174.23746  20011350.438                    20011358.930
 110925424.605 8  86435425.533 7  21108410.398                    21108419.328
 113889710.983 8  88745275.34246  21672485.930                    21672493.559
 11  8 10 20  7 30.0000000  0  7G24G17G26G11G08G07G28
 115143472.322 7  89722179.42645  21911036.234                    21911046.254
 113576132.936 7  88501016.016 7  21612825.578                    21612834.391
 119491101.966 6  93110022.68244  22738403.945                    22738413.684
 115454910.480 8  89964913.69445  21970333.922                    21970341.750
 105165713.169 8  81947345.21946  20012368.930                    20012377.469
 110989228.244 8  86485142.601 7  21120551.680                    21120560.402
 113868048.974 8  88728395.85946  21668363.852                    21668371.258
 11  8 10 20  8  0.0000000  0  7G24G17G26G11G08G07G28
 115144235.899 8  89722774.43245  21911181.500                    21911191.277
 113520158.829 7  88457399.883 7  21602173.766                    21602182.523
 119492535.949 6  93111140.05444  22738677.141                    22738686.535
 115504872.671 8  90003845.26445  21979841.391                    21979849.215
 105171625.317 8  81951952.06746  20013493.992                    20013502.664
 111053485.806 7  86535213.370 7  21132779.555                    21132788.258
 113846423.514 8  88711544.86946  21664248.586                    21664256.234
 11  8 10 20  8 30.0000000  0  7G24G17G26G11G08G07G28
 115145564.104 7  89723809.41345  21911434.320                    21911443.895
 113464549.849 7  88414068.248 7  21591591.586                    21591600.879
 119494566.979 7  93112722.67544  22739062.625                    22739073.355
 115555360.532 8  90043186.44845  21989448.977                    21989456.938
 105178098.333 8  81956995.95546  20014725.594                    20014734.164
 111118196.037 8  86585636.874 7  21145093.625                    21145102.367
 113824834.907 8  88694722.59146  21660140.453                    21660147.434
 11  8 10 20  9  0.0000000  0  7G24G17G26G11G08G07G28
 115147457.703 7  89725284.97045  21911794.203                    21911804.348
 113409306.937 7  88371021.860 7  21581078.930                    21581087.902
 119497194.031 7  93114769.69544  22739563.531                    22739572.871
 115606372.177 8  90082935.79145  21999155.695                    21999163.766
 105185133.061 8  81962477.55046  20016064.547                    20016073.207
 111183357.996 7  86636412.382 7  21157493.719                    21157502.254
 113803283.738 8  88677929.47246  21656039.281                    21656046.938
 11  8 10 20  9 30.0000000  0  7G24G17G26G11G08G07G28
 115149917.288 7  89727201.54445  21912262.469                    21912272.770
 113354430.157 7  88328260.759 7  21570636.508                    21570645.320
 119500416.280 7  93117280.54244  22740176.391                    22740186.305
 115657906.316 8  90123092.24745  22008962.539                    22008970.664
 105192730.705 8  81968397.77446  20017510.281                    20017518.492
 111248970.737 7  86687539.129 7  21169979.281                    21169988.098
 113781770.129 8  88661165.63446  21651945.461                    21651952.941
 11  8 10 20 10  0.0000000  0  7G24G17G26G11G08G07G28
 115152943.170 7  89729559.39745  21912838.523                    21912848.520
 113299919.560 7  88285785.003 7  21560263.563                    21560272.227
 119504232.714 7  93120254.35344  22740903.078                    22740912.379
 115709961.080 8  90163654.39445  22018868.289                    22018876.301
 105200891.967 8  81974757.18146  20019063.148                    20019071.457
 111315033.049 7  86739016.203 7  21182550.711                    21182559.566
 113760293.927 7  88644430.93046  21647858.734                    21647866.301
 11  8 10 20 10 30.0000000  0  7G24G17G26G11G08G07G28
 115156535.557 7  89732358.68245  21913521.719                    21913532.371
 113245775.295 7  88243594.701 7  21549960.164                    21549969.117
 119508642.413 7  93123690.47844  22741742.164                    22741751.629
 115762534.637 7  90204620.79545  22028872.508                    22028880.707
 105209617.461 8  81981556.24746  20020723.672                    20020732.273
 111381543.290 7  86790842.307 7  21195207.281                    21195215.945
 113738855.132 8  88627725.38646  21643778.992                    21643786.555
 11  8 10 20 11  0.0000000  0  7G24G17G26G11G08G07G28
 115160695.263 7  89735600.04245  21914313.484                    21914323.797
 113191998.399 7  88201690.654 7  21539726.820                    21539735.770
 119513644.796 7  93127588.40144  22742693.578                    22742703.387
 115815625.846 7  90245990.56445  22038975.219                    22038983.852
 105218908.663 8  81988796.12846  20022491.984                    20022500.160
 111448500.639 7  86843016.802 7  21207948.852                    21207957.801
 113717454.620 7  88611049.65546  21639706.844                    21639714.078
 11  8 10 20 11 30.0000000  0  7G24G17G26G11G08G07G28
 115165422.190 7  89739283.38645  21915212.867                    21915222.883
 113138588.399 7  88160072.517 7  21529562.859                    21529571.957
 119519238.072 6  93131946.77744  22743758.492                    22743767.926
 115869232.271 7  90287761.79545  22049176.938                    22049185.164
 105228765.621 7  81996476.86346  20024367.367                    20024375.957
 111515903.336 7  86895538.332 7  21220775.211                    21220784.113
 113696091.511 7  88594403.07946  21635641.586                    21635648.969
 11  8 10 20 12  0.0000000  0  7G24G17G26G11G08G07G28
 115170717.695 7  89743409.78145  21916220.250                    21916230.727
 113085546.571 7  88118741.258 7  21519469.273                    21519478.434
 119525422.432 7  93136765.75444  22744935.211                    22744944.578
 115923353.288 7  90329934.02445  22059475.422                    22059483.734
 105239190.789 8  82004600.35746  20026350.883                    20026359.699
 111583751.286 8  86948406.792 7  21233686.102                    21233695.211
 113674767.477 7  88577786.94246  21631583.625                    21631590.973
 11  8 10 20 12 30.0000000  0  7G24G17G26G11G08G07G28
 115176582.033 7  89747979.41845  21917336.563                    21917346.012
 113032872.844 8  88077696.825 7  21509445.906                    21509454.422
 119532196.426 7  93142044.16944  22746224.141                    22746233.047
 115977986.706 7  90372505.50045  22069871.883                    22069879.926
 105250184.424 8  82013166.80846  20028443.547                    20028451.645
 111652042.891 7  87001620.966 7  21246681.508                    21246690.539
 113653482.328 8  88561201.12046  21627533.445                    21627540.551
 11  8 10 20 13  0.0000000  0  7G24G17G26G11G08G07G28
 115183015.221 7  89752992.30745  21918560.352                    21918570.875
 112980567.034 8  88036939.087 7  21499492.320                    21499501.156
 119539558.986 7  93147781.21444  22747624.898                    22747634.910
 116033130.613 7  90415474.77345  22080365.273                    22080373.426
 105261747.014 8  82022176.60246  20030643.680                    20030652.504
 111720776.642 7  87055179.676 7  21259761.344                    21259770.137
 113632236.072 8  88544645.60246  21623489.898                    21623497.309
 11  8 10 20 13 30.0000000  0  7G24G17G26G11G08G07G28
 115190016.885 7  89758448.18245  21919893.227                    21919903.371
 112928629.086 8  87996467.998 7  21489609.156                    21489617.520
 119547508.237 7  93153975.40144  22749137.836                    22749147.758
 116088782.939 7  90458840.21245  22090955.625                    22090963.598
 105273878.394 8  82031629.60646  20032952.242                    20032960.648
 111789950.646 7  87109081.433 7  21272924.891                    21272933.473
 113611028.237 8  88528120.01846  21619454.203                    21619461.586
 11  8 10 20 14  0.0000000  0  7G24G17G26G11G08G07G28
 115197587.821 7  89764347.65445  21921333.602                    21921343.773
 112877059.541 8  87956283.970 7  21479795.648                    21479804.469
 119556043.778 7  93160626.46444  22750762.078                    22750771.047
 116144941.836 7  90502600.38845  22101642.281                    22101650.246
 105286579.870 8  82041526.83046  20035368.984                    20035377.957
 111859564.122 7  87163325.645 7  21286171.633                    21286180.582
 113589859.758 8  88511625.10646  21615426.195                    21615433.617
 11  8 10 20 14 30.0000000  0  7G24G17G26G11G08G07G28
 115205728.857 7  89770691.33745  21922882.953                    21922892.879
 112825858.670 8  87916387.214 7  21470052.539                    21470060.883
 119565164.676 7  93167733.65544  22752497.453                    22752507.281
 116201605.776 7  90546754.10745  22112424.969                    22112433.285
 105299852.776 8  82051869.32446  20037894.969                    20037903.555
 111929615.970 7  87217911.432 7  21299502.586                    21299511.582
 113568731.080 8  88495161.20046  21611405.664                    21611413.223
 11  8 10 20 15  0.0000000  0  7G24G17G26G11G08G07G28
 115214440.172 7  89777479.38245  21924540.914                    21924550.711
 112775026.974 8  87876778.134 7  21460379.547                    21460388.457
 119574869.718 7  93175296.00444  22754344.594                    22754354.500
 116258773.230 7  90591300.18445  22123303.891                    22123311.848
 105313698.019 8  82062657.79946  20040529.828                    20040537.992
 112000104.766 8  87272837.717 7  21312916.031                    21312924.910
 113547642.471 8  88478728.52346  21607392.469                    21607399.727
 11  8 10 20 15 30.0000000  0  7G24G17G26G11G08G07G28
 115223721.363 7  89784711.49845  21926306.789                    21926316.703
 112724564.012 8  87837456.384 7  21450776.461                    21450785.270
 119585157.289 7  93183312.27844  22756302.023                    22756311.750
 116316441.735 7  90636236.69244  22134277.352                    22134285.746
 105328115.372 8  82073892.07746  20043273.500                    20043281.914
 112071029.034 7  87328103.325 7  21326412.242                    21326421.387
 113526593.617 8  88462326.81646  21603386.969                    21603394.828
 11  8 10 20 16  0.0000000  0  7G24G17G26G11G08G07G28
 115233572.888 7  89792388.04045  21928181.156                    21928191.387
 112674469.995 8  87798422.125 7  21441244.094                    21441253.172
 119596026.050 7  93191781.44244  22758370.430                    22758380.098
 116374609.589 7  90681562.28645  22145346.391                    22145354.871
 105343105.569 8  82085572.71446  20046126.102                    20046134.156
 112142387.275 7  87383707.081 7  21339991.492                    21340000.629
 113505584.951 8  88445956.43546  21599389.203                    21599396.715
 11  8 10 20 16 30.0000000  0  7G24G17G26G11G08G07G28
 115243995.433 7  89800509.52345  21930164.422                    21930174.969
 112624745.890 7  87759676.123 7  21431781.641                    21431790.496
 119607475.901 7  93200703.37144  22760549.477                    22760559.254
 116433275.763 7  90727276.18544  22156510.086                    22156518.430
 105358670.533 8  82097701.22746  20049087.625                    20049096.449
 112214178.520 7  87439648.252 7  21353652.609                    21353661.785
 113484617.602 8  88429618.23246  21595399.422                    21595406.887
 11  8 10 20 17  0.0000000  0  7G24G17G26G11G08G07G28
 115254988.562 7  89809075.62445  21932256.656                    21932266.547
 112575391.110 7  87721217.892 7  21422389.992                    21422398.453
 119619504.774 7  93210076.50244  22762838.414                    22762847.793
 116492437.488 7  90773376.22945  22167768.477                    22167776.754
 105374809.682 8  82110277.15746  20052158.961                    20052167.805
 112286401.047 8  87495925.494 7  21367396.703                    21367405.434
 113463691.306 7  88413312.03646  21591417.086                    21591424.699
 11  8 10 20 17 30.0000000  0  7G24G17G26G11G08G07G28
 115266551.798 7  89818085.95345  21934457.438                    21934466.699
 112526405.070 7  87683046.985 7  21413068.102                    21413076.711
 119632110.929 7  93219899.45644  22765237.172                    22765247.219
 116552092.704 7  90819860.80645  22179120.953                    22179128.629
 105391523.020 8  82123300.52046  20055339.508                    20055348.203
 112359053.014 7  87552537.364 7  21381221.469                    21381230.625
 113442805.551 8  88397037.41546  21587442.656                    21587450.141
 11  8 10 20 18  0.0000000  0  7G24G17G26G11G08G07G28
 115278685.939 7  89827541.13645  21936766.297                    21936776.020
 112477788.770 7  87645164.194 7  21403816.563                    21403825.480
 119645293.481 7  93230171.52244  22767745.773                    22767755.855
 116612239.882 7  90866728.72445  22190566.375                    22190574.055
 105408811.675 8  82136772.16946  20058629.242                    20058638.203
 112432133.296 8  87609482.948 7  21395128.328                    21395137.684
 113421961.681 8  88380795.44746  21583476.297                    21583483.781
 11  8 10 20 18 30.0000000  0  7G24G17G26G11G08G07G28
 115291391.255 7  89837441.39545  21939184.086                    21939193.691
 112429542.345 7  87607569.618 7  21394635.516                    21394644.512
 119659051.412 7  93240891.96244  22770364.023                    22770373.555
 116672877.180 7  90913978.57344  22202105.344                    22202113.699
 105426676.949 8  82150693.13046  20062029.031                    20062037.902
 112505640.985 7  87666761.603 7  21409116.414                    21409125.980
 113401159.912 7  88364586.27046  21579517.750                    21579524.672
 11  8 10 20 19  0.0000000  0  7G24G17G26G11G08G07G28
 115304667.585 8  89847786.60745  21941710.422                    21941719.898
 112381665.630 8  87570263.124 7  21385525.063                    21385533.938
 119673383.180 7  93252059.56844  22773091.219                    22773101.164
 116734002.340 7  90961608.54445  22213736.789                    22213745.254
 105445118.931 8  82165063.48046  20065538.219                    20065547.199
 112579574.344 8  87724371.956 7  21423185.734                    21423195.008
 113380400.437 8  88348410.06846  21575567.344                    21575575.059
 11  8 10 20 19 30.0000000  0  7G24G17G26G11G08G07G28
 115318515.349 7  89858577.09345  21944345.625                    21944355.207
 112334159.398 8  87533245.312 7  21376484.609                    21376493.359
 119688287.707 7  93263673.42444  22775927.609                    22775937.359
 116795613.843 7  91009617.51344  22225461.211                    22225469.094
 105464138.291 8  82179883.73646  20069157.836                    20069166.945
 112653931.851 8  87782312.805 7  21437335.750                    21437344.156
 113359684.355 8  88332267.66546  21571625.180                    21571632.215
 11  8 10 20 20  0.0000000  0  7G24G17G26G11G08G07G28
 115332933.750 7  89869812.24245  21947088.977                    21947098.730
 112287022.452 7  87496515.263 7  21367515.016                    21367523.824
 119703762.790 7  93275731.90044  22778872.266                    22778881.906
 116857709.070 7  91058003.38345  22237277.516                    22237285.867
 105483734.610 8  82195153.57446  20072886.852                    20072895.656
 112728711.508 8  87840582.611 7  21451565.383                    21451574.648
 113339010.793 8  88316158.40746  21567691.000                    21567698.703
 11  8 10 20 20 30.0000000  0  7G24G17G26G11G08G07G28
 115347922.874 7  89881492.08845  21949941.039                    21949950.898
 112240255.128 8  87460073.232 7  21358615.375                    21358623.867
 119719807.421 7  93288234.18644  22781925.813                    22781935.871
 116920286.103 7  91106764.68545  22249185.672                    22249193.223
 105503908.798 8  82210873.70146  20076725.672                    20076734.609
 112803912.186 8  87899180.478 7  21465875.852                    21465884.680
 113318380.377 8  88300082.76046  21563765.445                    21563772.453
 11  8 10 20 21  0.0000000  0  7G24G17G26G11G08G07G28
 115363482.952 7  89893616.83945  21952902.375                    21952912.246
 112193857.826 8  87423919.518 7  21349785.992                    21349795.055
 119736419.975 7  93301179.01144  22785086.445                    22785096.895
 116983343.106 7  91155899.99844  22261184.609                    22261192.867
 105524661.296 8  82227044.45046  20080674.727                    20080683.340
 112879532.321 8  87958105.214 7  21480265.945                    21480274.887
 113297793.788 8  88284041.26746  21559847.867                    21559854.938
 11  8 10 20 21 30.0000000  0  7G24G17G26G11G08G07G28
 115379613.695 7  89906186.25245  21955971.766                    21955982.113
 112147830.391 7  87388054.020 7  21341027.500                    21341036.027
 119753599.123 7  93314565.33344  22788355.984                    22788366.324
 117046878.187 7  91205407.84244  22273274.789                    22273282.875
 105545992.507 8  82243666.14846  20084733.914                    20084742.840
 112955570.554 8  88017355.735 7  21494735.711                    21494744.746
 113277251.540 8  88268034.32846  21555939.023                    21555946.316
 11  8 10 20 22  0.0000000  0  7G24G17G26G11G08G07G28
 115396315.125 7  89919200.35645  21959149.938                    21959160.176
 112102172.663 8  87352476.596 7  21332339.172                    21332347.652
 119771343.129 7  93328391.81044  22791732.891                    22791742.449
 117110888.832 7  91255286.24545  22285455.930                    22285463.730
 105567902.595 8  82260738.92746  20088902.898                    20088911.750
 113032025.114 8  88076930.661 7  21509284.492                    21509293.609
 113256753.733 8  88252062.00946  21552038.039                    21552045.008
 11  8 10 20 22 30.0000000  0  7G24G17G26G11G08G07G28
 115413587.652 7  89932659.48645  21962436.773                    21962446.648
 112056885.491 7  87317187.913 7  21323720.984                    21323730.168
 119789651.156 7  93342657.76744  22795216.953                    22795226.746
 117175373.791 7  91305534.25644  22297727.172                    22297735.313
 105590392.926 8  82278263.84146  20093183.094                    20093191.781
 113108894.885 7  88136829.134 7  21523912.352                    21523921.262
 113236301.498 8  88236125.20146  21548146.172                    21548153.992
 11  8 10 20 23  0.0000000  0  7G24G17G26G11G08G07G28
 115431430.465 7  89946562.99945  21965832.016                    21965841.965
 112011967.823 8  87282187.153 7  21315173.750                    21315182.457
 119808521.035 7  93357361.54344  22798807.703                    22798817.063
 117240330.585 7  91356149.92444  22310088.016                    22310096.410
 105613462.981 8  82296240.49146  20097573.656                    20097582.375
 113186177.807 8  88197049.529 7  21538618.945                    21538628.234
 113215894.497 8  88220223.64446  21544262.805                    21544270.328
 11  8 10 20 23 30.0000000  0  7G24G17G26G11G08G07G28
 115449843.247 7  89960910.63845  21969335.992                    21969346.008
 111967420.008 8  87247474.594 7  21306696.547                    21306705.230
 119827951.212 7  93372501.90144  22802504.969                    22802514.711
 117305756.929 7  91407131.47444  22322537.898                    22322546.688
 105637113.015 8  82314669.06646  20102073.789                    20102082.535
 113263872.401 8  88257590.713 7  21553403.516                    21553412.906
 113195533.195 8  88204357.69646  21540387.969                    21540395.914
 11  8 10 20 24  0.0000000  0  7G24G17G26G11G08G07G28
 115468826.479 7  89975702.78945  21972948.719                    21972958.461
 111923242.263 8  87213050.400 7  21298289.969                    21298298.238
 119847940.329 7  93388077.82644  22806308.625                    22806318.762
 117371651.097 7  91458477.56444  22335077.703                    22335085.156
 105661343.725 8  82333550.12646  20106685.055                    20106693.629
 113341977.214 7  88318451.550 7  21568266.406                    21568276.031
 113175218.854 8  88188528.33546  21536522.797                    21536530.270
 11  8 10 20 24 30.0000000  0  7G24G17G26G11G08G07G28
 115488379.640 7  89990939.04345  21976669.367                    21976679.266
 111879434.581 8  87178914.566 7  21289953.523                    21289962.250
 119868487.095 7  93404088.26644  22810218.734                    22810228.547
 117438010.997 7  91510186.54645  22347705.563                    22347713.680
 105686155.641 8  82352884.06346  20111406.539                    20111415.297
 113420490.655 8  88379630.777 7  21583207.133                    21583216.570
 113154951.669 8  88172735.71846  21532665.820                    21532673.063
 11  8 10 20 25  0.0000000  0  7G24G17G26G11G08G07G28
 115508501.507 7  90006618.42945  21980498.359                    21980508.285
 111835995.944 8  87145066.301 7  21281687.188                    21281695.762
 119889588.563 7  93420530.93644  22814234.047                    22814244.340
 117504833.411 7  91562255.92244  22360421.305                    22360429.793
 105711547.187 8  82372669.66646  20116238.305                    20116246.797
 113499410.460 7  88441126.672 7  21598225.086                    21598234.465
 113134730.991 8  88156979.33546  21528818.102                    21528825.457
 11  8 10 20 25 30.0000000  0  7G24G17G26G11G08G07G28
 115529192.234 7  90022741.07745  21984435.328                    21984445.574
 111792926.292 8  87111505.556 7  21273491.414                    21273500.113
 119911243.601 7  93437404.93944  22818354.977                    22818364.797
 117572116.632 7  91614684.38644  22373224.813                    22373232.543
 105737519.184 8  82392907.56646  20121180.461                    20121189.879
 113578735.034 7  88502937.972 7  21613320.344                    21613329.645
 113114557.747 8  88141259.92346  21524978.984                    21524987.148
 11  8 10 20 26  0.0000000  0  7G24G17G26G11G08G07G28
 115550451.787 7  90039306.98145  21988481.141                    21988491.020
 111750226.000 8  87078232.622 7  21265365.609                    21265373.926
 119933450.654 7  93454709.13344  22822580.680                    22822590.488
 117639858.989 7  91667470.61744  22386115.805                    22386124.004
 105764072.172 8  82413598.19046  20126233.523                    20126242.246
 113658462.843 7  88565063.468 7  21628491.695                    21628500.805
 113094432.826 8  88125578.15846  21521149.180                    21521156.566
 11  8 10 20 26 30.0000000  0  7G24G17G26G11G08G07G28
 115572279.961 7  90056315.94545  21992635.070                    21992644.977
 111707895.033 8  87045247.478 7  21257310.617                    21257318.746
 119956208.064 7  93472442.15944  22826911.016                    22826920.781
 117708058.238 7  91720612.87444  22399093.648                    22399101.711
 105791206.542 8  82434741.83946  20131397.055                    20131405.695
 113738592.379 7  88627501.994 7  21643740.039                    21643749.418
 113074356.502 8  88109934.27246  21517329.313                    21517336.793
 11  8 10 20 27  0.0000000  0  7G24G17G26G11G08G07G28
 115594676.310 7  90073767.63845  21996897.000                    21996906.668
 111665933.199 8  87012549.973 7  21249325.219                    21249333.805
 119979513.882 7  93490602.49444  22831346.367                    22831356.438
 117776712.130 7  91774109.41044  22412157.969                    22412166.402
 105818922.148 8  82456338.39546  20136671.008                    20136679.887
 113819121.724 7  88690252.069 7  21659064.344                    21659073.563
 113054329.273 8  88094328.64846  21513518.219                    21513525.199
 11  8 10 20 27 30.0000000  0  7G24G17G26G11G08G07G28
 115617640.328 7  90091661.69345  22001266.758                    22001276.570
 111624340.277 8  86980139.944 7  21241410.336                    21241419.164
 120003366.558 7  93509188.96244  22835885.516                    22835895.102
 117845818.330 7  91827958.37544  22425308.516                    22425317.059
 105847218.947 8  82478387.83046  20142055.875                    20142064.605
 113900049.245 8  88753312.402 7  21674464.578                    21674473.922
 113034352.084 8  88078762.00646  21509716.828                    21509724.078
 11  8 10 20 28  0.0000000  0  7G24G17G26G11G08G07G28
 115641171.659 7  90109997.79845  22005744.914                    22005754.582
 111583115.987 8  86948017.150 7  21233565.828                    21233574.266
 120027764.249 7  93528200.11944  22840528.086                    22840537.715
 117915374.616 7  91882158.04444  22438544.242                    22438553.133
 105876097.373 8  82500890.46946  20147551.141                    20147559.773
 113981373.330 7  88816681.747 7  21689939.797                    21689949.480
 113014424.971 8  88063234.40046  21505924.500                    21505931.961
 11  8 10 20 28 30.0000000  0  7G24G17G26G11G08G07G28
 115665269.399 7  90128775.26945  22010329.883                    22010340.031
 111542259.895 8  86916181.257 7  21225791.172                    21225799.746
 120052704.479 7  93547634.02444  22845274.141                    22845284.258
 117985378.620 7  91936706.59744  22451866.086                    22451874.555
 105905556.400 8  82523845.52946  20153156.961                    20153166.043
 114063091.750 7  88880358.357 7  21705490.539                    21705499.848
 112994548.140 8  88047745.96946  21502142.211                    21502149.531
 11  8 10 20 29  0.0000000  0  7G24G17G26G11G08G07G28
 115689933.580 7  90147994.10545  22015023.688                    22015033.824
 111501772.153 8  86884632.403 7  21218086.461                    21218095.383
 120078185.931 7  93567489.64844  22850123.063                    22850133.465
 118055828.452 7  91991602.55644  22465272.086                    22465280.402
 105935596.867 8  82547253.65946  20158873.555                    20158882.418
 114145202.939 7  88944341.028 7  21721115.531                    21721125.309
 112974722.381 8  88032297.34746  21498369.820                    21498376.832
 11  8 10 20 29 30.0000000  0  7G24G17G26G11G08G07G28
 115715163.925 7  90167654.11145  22019824.570                    22019834.715
 111461652.765 8  86853370.585 7  21210451.914                    21210460.523
 120104207.082 7  93587765.83644  22855074.398                    22855084.508
 118126721.854 7  92046844.15344  22478763.133                    22478771.172
 105966219.327 8  82571115.28946  20164700.805                    20164709.160
 114227705.654 8  89008628.789 7  21736815.492                    21736825.008
 112954948.872 8  88016889.43246  21494606.594                    21494613.934
 11  8 10 20 30  0.0000000  0  7G24G17G26G11G08G07G28
 115740959.670 7  90187754.68945  22024733.633                    22024743.305
 111421901.526 8  86822395.646 7  21202887.242                    21202896.469
 120130766.025 7  93608461.09544  22860128.828                    22860138.277
 118198056.559 7  92102429.61344  22492337.586                    22492345.273
 105997423.638 8  82595430.30346  20170638.844                    20170647.617
 114310598.116 8  89073220.233 7  21752589.563                    21752598.727
 112935227.837 8  88001522.40446  21490853.727                    21490861.012
 11  8 10 20 30 30.0000000  0  8G24G17G04G26G11G08G07G28
 115767319.587 7  90208294.89445  22029749.594                    22029759.863
 111382517.422 8  86791706.773 7  21195393.070                    21195401.484
 129268768.36916 100728991.24552  24599033.594                    24599050.449
 120157859.986 7  93629573.23944  22865284.547                    22865294.547
 118269829.514 7  92158356.57744  22505995.125                    22506003.352
 106029208.418 8  82620197.62946  20176687.711                    20176696.109
 114393877.802 8  89138113.435 7  21768437.461                    21768446.594
 112915558.920 8  87986195.98946  21487110.734                    21487118.188
 11  8 10 20 31  0.0000000  0  8G24G17G04G26G11G08G07G28
 115794241.686 7  90229273.15545  22034872.875                    22034882.766
 111343498.620 8  86761302.545 7  21187968.164                    21187976.656
 129155930.926 6 100641066.43842  24577560.695                    24577578.953
 120185485.304 7  93651099.41844  22870541.375                    22870551.355
 118342037.061 7  92214622.19244  22519736.219                    22519744.137
 106061572.192 8  82645416.12546  20182846.023                    20182854.590
 114477541.040 7  89203305.494 7  21784357.727                    21784367.570
 112895941.814 8  87970909.95246  21483377.773                    21483384.938
 11  8 10 20 31 30.0000000  0  8G24G17G04G26G11G08G07G28
 115821726.738 7  90250690.07345  22040102.859                    22040113.305
 111304846.337 8  86731183.913 7  21180612.648                    21180621.012
 129043030.014 6 100553092.14142  24556076.063                    24556094.320
 120213641.803 7  93673039.48844  22875899.844                    22875909.852
 118414678.350 7  92271225.77844  22533559.648                    22533567.246
 106094516.193 8  82671086.73746  20189114.805                    20189123.820
 114561587.435 7  89268796.106 7  21800351.281                    21800360.840
 112876378.013 8  87955665.45246  21479655.000                    21479662.332
 11  8 10 20 32  0.0000000  0  8G24G17G04G26G11G08G07G28
 115849775.080 7  90272545.94345  22045440.516                    22045450.000
 111266561.287 8  86701351.429 7  21173326.828                    21173335.375
 128930069.033 6 100465071.05242  24534579.914                    24534598.637
 120242328.130 7  93695392.44844  22881358.109                    22881368.297
 118487751.942 7  92328166.22544  22547464.547                    22547472.707
 106128041.210 8  82697210.09846  20195494.969                    20195503.199
 114646016.237 7  89334584.697 7  21816417.531                    21816427.090
 112856869.315 8  87940463.88146  21475942.836                    21475950.188
 11  8 10 20 32 30.0000000  0  8G24G17G04G26G11G08G07G28
 115878386.029 7  90294840.18745  22050884.961                    22050894.559
 111228642.938 8  86671804.693 7  21166111.391                    21166120.180
 128817050.279 6 100377004.86952  24513072.859                    24513091.633
 120271542.287 7  93718156.67744  22886917.594                    22886928.047
 118561255.548 7  92385441.72944  22561451.797                    22561460.430
 106162147.006 8  82723786.00446  20201985.266                    20201993.859
 114730825.340 7  89400669.639 7  21832556.742                    21832566.113
 112837415.936 8  87925305.41746  21472240.914                    21472248.086
 11  8 10 20 33  0.0000000  0  8G24G17G04G26G11G08G07G28
 115907559.018 7  90317572.38845  22056436.375                    22056446.488
 111191091.381 8  86642543.750 7  21158965.570                    21158974.438
 128703976.542 5 100288895.96242  24491555.414                    24491574.379
 120301282.302 7  93741330.66244  22892577.656                    22892587.121
 118635186.791 7  92443050.46644  22575520.414                    22575528.813
 106196833.679 8  82750814.54546  20208585.531                    20208594.734
 114816013.360 7  89467049.834 7  21848767.414                    21848776.625
 112818018.839 8  87910190.81046  21468549.641                    21468557.074
 11  8 10 20 33 30.0000000  0  8G24G17G04G26G11G08G07G28
 115937293.181 7  90340741.87845  22062094.984                    22062104.652
 111153906.032 8  86613568.168 7  21151889.367                    21151898.328
 128590850.473 6 100200746.16842  24470027.734                    24470047.688
 120331546.403 7  93764913.04244  22898336.063                    22898347.039
 118709543.366 7  92500990.62644  22589670.164                    22589678.613
 106232101.055 8  82778295.58946  20215296.766                    20215305.445
 114901578.082 7  89533723.571 7  21865049.883                    21865058.852
 112798678.551 8  87895120.44846  21464869.117                    21464876.730
 11  8 10 20 34  0.0000000  0  8G24G17G04G26G11G08G07G28
 115967587.950 7  90364348.20345  22067859.313                    22067869.449
 111117086.905 8  86584877.958 7  21144882.773                    21144891.715
 128477674.502 6 100112557.56942  24448490.805                    24448509.410
 120362332.295 7  93788902.01644  22904194.727                    22904205.191
 118784323.018 7  92559260.46844  22603900.391                    22603908.773
 106267948.746 8  82806228.81946  20222118.063                    20222126.691
 114987517.514 7  89600689.278 7  21881403.547                    21881413.023
 112779395.753 8  87880094.89446  21461199.945                    21461207.227
 11  8 10 20 34 30.0000000  0  8G24G17G04G26G11G08G07G28
 115998442.100 7  90388390.40745  22073730.148                    22073740.621
 111080633.131 8  86556472.431 7  21137945.875                    21137954.602
 128364451.099 5 100024331.87242  24426944.664                    24426964.340
 120393637.545 7  93813295.67944  22910151.859                    22910162.160
 118859522.714 7  92617857.62144  22618210.117                    22618218.230
 106304375.946 8  82834613.62346  20229050.188                    20229059.074
 115073829.655 7  89667945.425 7  21897828.516                    21897837.730
 112760170.480 8  87865114.15846  21457541.430                    21457549.137
 11  8 10 20 35  0.0000000  0  8G24G17G04G26G11G08G07G28
 116029854.930 7  90412867.95845  22079708.352                    22079718.852
 111044544.413 8  86528351.370 7  21131078.758                    21131087.176
 128251182.787 5  99936071.38142  24405389.688                    24405409.445
 120425459.956 7  93838092.31444  22916208.000                    22916217.742
 118935140.612 7  92676780.65344  22632600.125                    22632608.047
 106341382.473 8  82863449.84746  20236091.852                    20236101.242
 115160512.469 7  89735490.391 7  21914323.820                    21914333.484
 112741003.671 8  87850178.99346  21453894.102                    21453901.648
 11  8 10 20 35 30.0000000  0  8G24G17G04G26G11G08G07G28
 116061825.585 7  90437780.17745  22085792.297                    22085802.074
 111008820.600 8  86500514.655 7  21124280.922                    21124288.941
 128137872.094 5  99847777.80142  24383827.703                    24383846.367
 120457797.590 7  93863290.40944  22922361.391                    22922371.273
 119011174.045 7  92736027.48244  22647068.586                    22647076.797
 106378967.847 8  82892737.11946  20243244.555                    20243253.715
 115247564.096 7  89803322.751 7  21930888.953                    21930898.832
 112721896.062 8  87835289.95746  21450257.922                    21450265.453
 11  8 10 20 36  0.0000000  0  8G24G17G04G26G11G08G07G28
 116094353.324 7  90463126.48745  22091982.266                    22091992.082
 110973460.934 8  86472961.681 7  21117551.719                    21117560.465
 128024521.894 6  99759453.44143  24362257.852                    24362276.098
 120490648.295 7  93888888.29345  22928613.016                    22928623.203
 119087620.434 7  92795596.08244  22661615.930                    22661623.871
 106417131.901 8  82922475.31046  20250507.000                    20250515.664
 115334982.472 7  89871440.878 7  21947524.227                    21947533.613
 112702848.298 8  87820447.53946  21446633.328                    21446640.664
 11  8 10 20 36 30.0000000  0  8G24G17G04G26G11G08G07G28
 116127437.322 7  90488906.25045  22098277.258                    22098287.801
 110938465.092 8  86445692.222 7  21110892.375                    21110900.832
 127911134.457 6  99671100.05043  24340680.609                    24340697.965
 120524009.779 7  93914884.21644  22934961.102                    22934971.324
 119164477.701 7  92855484.83644  22676241.484                    22676249.578
 106455874.263 8  82952664.13146  20257879.555                    20257888.000
 115422765.661 7  89939843.293 7  21964229.055                    21964238.602
 112683860.692 8  87805652.00646  21443020.430                    21443027.273
 11  8 10 20 37  0.0000000  0  8G24G17G04G26G11G08G07G28
 116161076.468 7  90515118.58945  22104678.891                    22104688.602
 110903832.502 8  86418705.806 7  21104302.070                    21104310.324
 127797712.270 6  99582719.52243  24319096.992                    24319113.324
 120557879.653 7  93941276.29344  22941406.109                    22941416.555
 119241743.166 7  92915691.65544  22690944.875                    22690952.934
 106495193.978 8  82983302.83646  20265361.969                    20265370.770
 115510911.635 7  90008528.390 7  21981002.180                    21981012.438
 112664933.965 8  87790903.91946  21439418.328                    21439425.984
 11  8 10 20 37 30.0000000  0  8G24G17G04G26G11G08G07G28
 116195270.227 7  90541763.10045  22111185.594                    22111195.703
 110869563.382 8  86392002.620 7  21097780.766                    21097789.531
 127684258.253 6  99494314.23643  24297506.984                    24297523.563
 120592255.971 7  93968062.98944  22947947.750                    22947958.137
 119319414.587 7  92976214.82244  22705725.016                    22705733.254
 106535091.254 8  83014391.59046  20272954.188                    20272962.711
 115599418.634 7  90077494.806 7  21997844.867                    21997854.570
 112646069.204 8  87776204.10246  21435828.727                    21435836.117
 11  8 10 20 38  0.0000000  0  8G24G17G04G26G11G08G07G28
 116230017.115 7  90568838.60645  22117798.266                    22117808.059
 110835656.469 8  86365581.684 7  21091328.367                    21091337.059
 127570774.752 6  99405885.96743  24275911.789                    24275927.309
 120627135.861 7  93995242.08244  22954585.148                    22954595.922
 119397489.007 7  93037052.00444  22720582.617                    22720590.516
 106575565.060 8  83045929.58146  20280656.008                    20280664.410
 115688284.008 7  90146740.470 7  22014755.523                    22014765.098
 112627266.450 8  87761552.61646  21432251.078                    21432257.813
 11  8 10 20 38 30.0000000  0  8G24G17G04G26G11G08G07G28
 116265316.344 7  90596344.49745  22124515.297                    22124524.926
 110802111.555 8  86339442.806 7  21084945.219                    21084953.305
 127457264.365 6  99317436.72843  24254311.125                    24254327.406
 120662517.557 7  94022812.19344  22961317.922                    22961329.027
 119475964.657 7  93098201.84944  22735515.711                    22735524.090
 106616615.249 8  83077916.71146  20288467.484                    20288476.777
 115777506.472 7  90216264.378 7  22031734.070                    22031743.949
 112608526.705 8  87746950.22346  21428684.195                    21428691.625
 11  8 10 20 39  0.0000000  0  8G24G17G04G26G11G08G07G28
 116301167.341 7  90624280.34145  22131337.492                    22131347.625
 110768928.590 8  86313585.977 7  21078630.438                    21078639.242
 127343730.117 6  99228968.91943  24232705.500                    24232721.594
 120698399.066 7  94050771.75644  22968146.070                    22968157.352
 119554838.924 7  93159662.29544  22750525.078                    22750533.633
 106658241.487 8  83110352.70246  20296388.750                    20296397.352
 115867083.700 7  90286064.737 7  22048780.180                    22048790.102
 112589850.957 8  87732397.69546  21425130.688                    21425137.863
 11  8 10 20 39 30.0000000  0  8G24G17G04G26G11G08G07G28
 116337569.020 8  90652645.30045  22138264.336                    22138274.660
 110736107.155 8  86288010.849 7  21072384.719                    21072393.168
 127230174.774 6  99140484.62843  24211096.836                    24211112.359
 120734777.988 7  94079118.92044  22975069.141                    22975079.691
 119634109.220 7  93221431.33644  22765609.242                    22765618.059
 106700443.025 8  83143236.97846  20304419.094                    20304428.121
 115957013.619 7  90356139.916 7  22065893.453                    22065902.949
 112571240.059 8  87717895.69946  21421589.211                    21421596.652
 11  8 10 20 40  0.0000000  0  8G24G17G04G26G11G08G07G28
 116374520.623 7  90681438.77645  22145296.156                    22145306.359
 110703646.752 8  86262717.047 7  21066207.695                    21066216.199
 127116600.916 6  99051985.90843  24189483.992                    24189499.551
 120771651.844 7  94107851.77744  22982086.258                    22982096.141
 119713773.399 7  93283507.28744  22780769.125                    22780777.535
 106743219.643 8  83176569.37846  20312559.547                    20312568.480
 116047294.293 7  90426488.441 7  22083073.125                    22083082.684
 112552694.619 8  87703444.70946  21418060.234                    21418067.199
 11  8 10 20 40 30.0000000  0  8G24G17G04G26G11G08G07G28
 116412020.731 7  90710659.64745  22152432.375                    22152441.848
 110671546.349 8  86237703.770 7  21060099.258                    21060107.816
 127003010.697 6  98963474.40542  24167868.148                    24167884.105
 120809017.910 7  94136968.14844  22989196.469                    22989206.188
 119793828.421 7  93345887.78944  22796003.016                    22796011.574
 106786569.702 8  83210348.61246  20320808.789                    20320817.176
 116137923.399 7  90497108.434 7  22100319.086                    22100328.680
 112534214.903 8  87689044.93046  21414543.695                    21414550.902
 11  8 10 20 41  0.0000000  0  8G24G17G04G26G11G08G07G28
 116450068.073 7  90740306.94045  22159672.250                    22159682.246
 110639805.827 8  86212970.916 7  21054059.281                    21054067.840
 126889407.140 6  98874952.55143  24146249.133                    24146265.566
 120846874.391 7  94166466.64644  22996400.875                    22996410.352
 119874272.125 7  93408571.16444  22811311.039                    22811319.605
 106830493.235 8  83244574.70846  20329167.297                    20329176.453
 116228899.151 7  90567998.534 7  22117631.578                    22117641.297
 112515801.940 8  87674697.16946  21411039.586                    21411046.777
 11  8 10 20 41 30.0000000  0  8G24G17G04G26G11G08G07G28
 116488661.838 7  90770379.99045  22167016.508                    22167026.320
 110608424.631 8  86188518.055 7  21048087.555                    21048096.246
 126775792.826 6  98786422.25242  24124629.125                    24124644.348
 120885218.737 7  94196345.32544  23003696.648                    23003707.293
 119955102.382 7  93471555.75744  22826692.234                    22826700.727
 106874989.769 8  83279247.30846  20337634.742                    20337643.855
 116320219.559 7  90639157.215 7  22135008.695                    22135018.934
 112497456.582 8  87660402.09046  21407548.570                    21407556.254
 11  8 10 20 42  0.0000000  0  8G24G17G04G26G11G08G07G28
 116527800.848 7  90800877.90845  22174464.344                    22174473.867
 110577402.204 8  86164344.759 7  21042184.219                    21042192.813
 126662170.560 6  98697885.78843  24103007.547                    24103022.555
 120924048.299 7  94226602.07044  23011086.102                    23011096.766
 120036316.178 7  93534839.19144  22842147.336                    22842155.066
 106920058.144 8  83314365.49546  20346210.602                    20346220.055
 116411882.144 7  90710582.518 7  22152451.953                    22152462.070
 112479179.379 8  87646160.10946  21404070.711                    21404078.105
 11  8 10 20 42 30.0000000  0  8G24G17G04G26G11G08G07G28
 116567484.359 7  90831800.12445  22182016.047                    22182026.156
 110546738.502 8  86140450.992 7  21036348.914                    21036357.605
 126548543.265 6  98609345.34743  24081384.000                    24081399.938
 120963361.064 7  94257235.34044  23018567.281                    23018577.379
 120117911.305 7  93598419.79744  22857673.781                    22857681.902
 106965698.381 8  83349929.28346  20354896.125                    20354904.930
 116503885.338 7  90782273.230 7  22169959.734                    22169969.637
 112460971.675 8  87631972.29146  21400605.992                    21400613.438
 11  8 10 20 43  0.0000000  0  8G24G17G04G26G11G08G07G28
 116607710.876 7  90863145.45145  22189670.734                    22189680.461
 110516432.481 8  86116835.933 7  21030581.750                    21030590.469
 126434913.396 6  98520802.97343  24059761.375                    24059776.813
 121003154.429 7  94288243.10844  23026139.563                    23026149.391
 120199885.074 7  93662295.42844  22873273.211                    22873280.965
 107011909.391 8  83385937.83046  20363689.813                    20363698.441
 116596226.853 7  90854227.571 7  22187531.758                    22187541.375
 112442834.068 8  87617839.09446  21397154.508                    21397161.691
 11  8 10 20 43 30.0000000  0  8G24G17G04G26G11G08G07G28
 116648478.888 7  90894912.75045  22197428.352                    22197438.266
 110486483.303 8  86093498.941 7  21024882.758                    21024891.391
 126321283.382 6  98432260.45543  24038137.359                    24038153.211
 121043425.634 7  94319623.23444  23033802.602                    23033813.320
 120282234.603 7  93726463.88344  22888943.734                    22888952.160
 107058689.725 8  83422390.00946  20372591.539                    20372600.590
 116688904.198 7  90926443.589 7  22205167.680                    22205177.746
 112424766.341 8  87603760.35246  21393716.148                    21393723.715
 11  8 10 20 44  0.0000000  0  8G24G17G04G26G11G08G07G28
 116689787.925 7  90927101.60945  22205289.648                    22205299.219
 110456891.015 8  86070440.033 7  21019251.539                    21019259.789
 126207656.229 7  98343720.18443  24016515.250                    24016530.320
 121084172.665 7  94351374.11544  23041557.180                    23041567.375
 120364957.825 7  93790923.50644  22904685.578                    22904693.520
 107106039.538 8  83459285.93646  20381602.148                    20381610.723
 116781915.544 7  90998919.889 7  22222867.547                    22222877.750
 112406770.424 8  87589737.55846  21390291.297                    21390298.824
 11  8 10 20 44 30.0000000  0  8G24G17G04G26G11G08G07G28
 116731636.576 8  90959710.94845  22213253.141                    22213262.633
 110427654.898 8  86047658.673 7  21013688.031                    21013696.426
 126094034.729 6  98255184.29543  23994893.461                    23994909.059
 121125392.972 7  94383493.77344  23049401.211                    23049412.035
 120448052.353 7  93855672.46243  22920497.875                    22920506.520
 107153958.056 8  83496625.01546  20390720.891                    20390729.750
 116875258.685 7  91071654.702 7  22240630.133                    22240640.070
 112388847.119 8  87575771.34846  21386880.750                    21386888.723
 11  8 10 20 45  0.0000000  0  8G24G17G04G26G11G08G07G28
 116774023.094 7  90992739.40345  22221318.414                    22221328.191
 110398774.183 8  86025154.238 7  21008192.266                    21008200.715
 125980421.400 6  98166654.77243  23973272.578                    23973288.254
 121167083.781 7  94415980.05944  23057334.680                    23057344.906
 120531515.206 7  93920708.44144  22936380.758                    22936388.273
 107202443.548 8  83534405.88446  20399947.211                    20399956.340
 116968931.293 7  91144646.260 7  22258455.250                    22258465.387
 112370996.655 8  87561861.90446  21383484.125                    21383491.785
 11  8 10 20 45 30.0000000  0  8G24G17G04G26G11G08G07G28
 116816946.216 7  91026185.98545  22229486.820                    22229496.563
 110370247.906 8  86002926.000 7  21002763.664                    21002772.504
 125866818.590 6  98078133.46043  23951654.867                    23951669.902
 121209242.629 7  94448831.07144  23065357.164                    23065366.770
 120615344.122 7  93986029.64044  22952332.570                    22952340.594
 107251495.485 8  83572628.14446  20409281.719                    20409290.273
 117062931.270 7  91217892.892 7  22276342.773                    22276353.184
 112353220.050 8  87548010.00946  21380101.313                    21380108.855
 11  8 10 20 46  0.0000000  0  8G24G17G04G26G11G08G07G28
 116860404.961 7  91060049.94345  22237756.445                    22237766.859
 110342076.111 8  85980973.986 7  20997403.031                    20997411.391
 125753229.683 6  97989623.00443  23930039.359                    23930054.465
 121251867.241 7  94482045.02244  23073468.680                    23073478.152
 120699536.666 7  94051634.20144  22968353.844                    22968362.328
 107301113.434 8  83611291.44946  20418723.664                    20418732.277
 117157256.340 7  91291392.851 7  22294292.555                    22294302.930
 112335518.240 8  87534216.39046  21376732.781                    21376740.129
 11  8 10 20 46 30.0000000  0  8G24G17G04G26G11G08G07G28
 116904397.891 7  91094330.14445  22246128.031                    22246138.234
 110314257.749 8  85959297.368 7  20992109.047                    20992117.621
 125639657.048 6  97901125.18543  23908426.492                    23908442.078
 121294954.695 7  94515619.60944  23081667.703                    23081677.961
 120784089.956 7  94117519.86344  22984444.063                    22984452.402
 107351295.955 8  83650394.67246  20428273.109                    20428281.828
 117251904.460 7  91365144.556 7  22312303.867                    22312313.883
 112317891.852 8  87520481.55146  21373378.477                    21373385.902
 11  8 10 20 47  0.0000000  0  8G24G17G04G26G11G08G07G28
 116948923.802 7  91129025.66545  22254601.367                    22254611.215
 110286792.653 8  85937896.012 7  20986882.977                    20986891.680
 125526103.558 6  97812642.28543  23886817.852                    23886833.383
 121338502.535 7  94549552.92844  23089954.813                    23089965.090
 120869001.545 7  94183684.70944  23000601.891                    23000610.313
 107402042.198 8  83689937.16046  20437929.711                    20437938.758
 117346873.391 7  91439146.234 7  22330375.945                    22330385.746
 112300341.984 8  87506806.33746  21370039.008                    21370046.285
 11  8 10 20 47 30.0000000  0  8G24G17G04G26G11G08G07G28
 116993981.208 7  91164135.33245  22263175.602                    22263185.316
 110259679.724 8  85916769.075 7  20981723.453                    20981732.262
 125412571.768 6  97724176.31243  23865213.500                    23865228.152
 121382508.090 7  94583842.91744  23098328.977                    23098339.020
 120954268.741 7  94250126.66244  23016827.422                    23016836.453
 107453351.049 8  83729918.04546  20447693.461                    20447702.590
 117442160.752 7  91513396.036 7  22348508.398                    22348518.086
 112282869.141 8  87493191.14546  21366713.859                    21366721.332
 11  8 10 20 48  0.0000000  0  8G24G17G04G26G11G08G07G28
 117039568.907 7  91199658.20245  22271850.828                    22271860.434
 110232918.547 8  85895916.247 8  20976630.773                    20976639.121
 125299064.660 6  97635729.56443  23843613.359                    23843628.801
 121426968.968 7  94618487.72544  23106789.422                    23106799.695
 121039889.109 7  94316843.79544  23033120.992                    23033129.082
 107505221.839 8  83770336.80346  20457564.281                    20457573.215
 117537764.615 7  91587892.431 7  22366700.773                    22366711.379
 112265474.612 8  87479636.98246  21363403.961                    21363411.371
 11  8 10 20 48 30.0000000  0  8G24G17G04G26G11G08G07G28
 117085685.399 8  91235593.12945  22280626.078                    22280636.258
 110206508.479 8  85875337.001 7  20971605.406                    20971613.516
 125185584.986 6  97547304.14643  23822018.805                    23822033.188
 121471882.323 7  94653485.11844  23115336.063                    23115345.820
 121125860.141 7  94383834.19744  23049480.320                    23049488.746
 107557653.427 8  83811192.54746  20467541.555                    20467550.582
 117633682.637 7  91662633.639 7  22384953.555                    22384963.926
 112248159.067 8  87466144.35646  21360108.906                    21360116.258
 11  8 10 20 49  0.0000000  0  8G24G17G04G26G11G08G07G28
 117132329.428 7  91271939.11645  22289502.258                    22289512.594
 110180448.471 8  85855030.532 7  20966646.344                    20966654.730
 125072135.298 6  97458902.10944  23800429.977                    23800444.742
 121517245.632 7  94688833.13644  23123968.313                    23123978.523
 121212179.164 7  94451095.72544  23065906.820                    23065914.797
 107610645.136 8  83852484.75146  20477625.688                    20477634.602
 117729912.801 7  91737618.097 7  22403265.523                    22403276.102
 112230923.402 8  87452713.97946  21356829.047                    21356836.367
 11  8 10 20 49 30.0000000  0  8G24G17G04G26G11G08G07G28
 117179499.563 7  91308695.05245  22298478.430                    22298488.262
 110154738.244 8  85834996.617 7  20961753.234                    20961761.910
 124958718.526 6  97370525.70343  23778847.078                    23778861.637
 121563056.373 7  94724529.76144  23132685.570                    23132696.582
 121298843.464 7  94518626.32744  23082398.773                    23082406.695
 107664195.487 8  83894212.25746  20487816.000                    20487825.215
 117826452.573 7  91812843.788 7  22421636.742                    22421647.320
 112213768.501 8  87439346.53146  21353564.492                    21353571.934
 11  8 10 20 50  0.0000000  0  8G24G17G04G26G11G08G07G28
 117227194.554 7  91345859.98645  22307554.445                    22307564.648
 110129377.234 8  85815234.826 7  20956927.734                    20956935.672
 124845337.401 6  97282177.12843  23757270.344                    23757285.992
 121609311.878 7  94760572.93944  23141488.156                    23141498.617
 121385850.670 7  94586424.12443  23098954.672                    23098963.047
 107718303.909 8  83936374.62446  20498112.711                    20498121.590
 117923299.977 7  91888309.197 7  22440066.445                    22440076.590
 112196695.585 8  87426042.96546  21350315.602                    21350323.215
 11  8 10 20 50 30.0000000  0  8G24G17G04G26G11G08G07G28
 117275412.420 7  91383432.34645  22316730.047                    22316740.113
 110104364.268 8  85795744.239 7  20952167.742                    20952176.078
 124731994.840 6  97193858.53343  23735702.539                    23735716.887
 121656009.135 7  94796960.36044  23150374.500                    23150384.816
 121473197.958 7  94654486.92244  23115576.898                    23115585.613
 107772968.538 8  83978970.40146  20508514.820                    20508524.258
 118020452.428 7  91964012.298 7  22458554.195                    22458564.234
 112179704.973 8  87412803.54146  21347082.523                    21347089.813
 11  8 10 20 51  0.0000000  0  8G24G17G04G26G11G08G07G28
 117324151.793 8  91421411.07245  22326004.734                    22326015.020
 110079698.859 8  85776524.469 7  20947474.047                    20947482.363
 124618693.448 6  97105572.09843  23714141.445                    23714156.340
 121703145.648 7  94833690.08444  23159344.219                    23159354.078
 121560882.977 7  94722812.86644  23132262.813                    23132271.133
 107828188.793 8  84021999.13346  20519022.805                    20519032.203
 118117907.549 7  92039951.272 7  22477099.250                    22477109.453
 112162798.034 8  87399629.30246  21343864.938                    21343872.531
 11  8 10 20 51 30.0000000  0  8G24G17G04G26G11G08G07G28
 117373411.295 7  91459795.08845  22335378.969                    22335388.641
 110055380.131 8  85757574.846 7  20942846.156                    20942854.637
 124505436.119 6  97017319.95843  23692589.594                    23692603.234
 121750718.817 7  94870760.04544  23168397.031                    23168407.492
 121648903.113 7  94791399.94944  23149013.055                    23149021.047
 107883963.673 8  84065460.04746  20529636.719                    20529646.070
 118215663.421 7  92116124.572 6  22495701.797                    22495711.633
 112145975.498 8  87386520.84446  21340664.016                    21340671.254
 11  8 10 20 52  0.0000000  0  8G24G17G04G26G11G08G07G28
 117423189.207 7  91498583.07745  22344851.250                    22344860.922
 110031407.925 8  85738895.236 7  20938284.781                    20938292.871
 124392225.670 7  96929104.33843  23671046.227                    23671060.109
 121798725.812 7  94908168.02544  23177532.555                    23177543.531
 121737255.770 6  94860246.16743  23165825.273                    23165833.820
 107940291.695 8  84109351.97446  20540355.766                    20540364.762
 118313717.802 7  92192530.489 6  22514360.563                    22514370.398
 112129238.402 8  87373478.96346  21337478.820                    21337486.105
 11  8 10 20 52 30.0000000  0  8G24G17G04G26G11G08G07G28
 117473484.063 7  91537773.87145  22354422.164                    22354431.684
 110007780.849 8  85720484.557 7  20933788.469                    20933796.391
 124279064.515 7  96840927.10743  23649512.156                    23649525.523
 121847163.636 7  94945911.72544  23186750.125                    23186760.949
 121825938.192 7  94929349.32343  23182701.039                    23182709.344
 107997171.264 8  84153673.67946  20551179.242                    20551188.148
 118412068.230 7  92269167.073 7  22533076.398                    22533086.379
 112112587.514 8  87360504.24846  21334310.297                    21334317.672
 11  8 10 20 53  0.0000000  0  8G24G17G04G26G11G08G07G28
 117524294.347 7  91577366.28744  22364091.109                    22364100.152
 109984498.253 8  85702342.303 7  20929357.742                    20929366.121
 124165955.762 7  96752790.74244  23627987.555                    23628001.262
 121896029.671 7  94983989.09644  23196048.867                    23196059.492
 121914947.602 7  94998707.26944  23199638.742                    23199647.340
 108054601.292 8  84198424.31646  20562107.789                    20562117.328
 118510712.015 7  92346032.258 6  22551847.563                    22551858.035
 112096023.913 8  87347597.55546  21331158.305                    21331166.070
 11  8 10 20 53 30.0000000  0  8G24G17G04G26G11G08G07G28
 117575618.281 7  91617358.98145  22373857.383                    22373867.020
 109961559.454 8  85684467.948 8  20924992.781                    20925001.199
 124052902.151 7  96664697.29743  23606474.266                    23606487.953
 121945321.322 7  95022398.13344  23205428.367                    23205439.328
 122004281.512 7  95068318.06743  23216638.516                    23216647.109
 108112580.780 8  84243603.10846  20573141.148                    20573149.984
 118609647.407 7  92423124.633 7  22570674.273                    22570685.230
 112079548.760 8  87334759.77146  21328023.266                    21328030.965
 11  8 10 20 54  0.0000000  0  8G24G17G04G26G11G08G07G28
 117627454.372 8  91657750.73745  22383721.523                    22383731.188
 109938963.514 8  85666860.755 7  20920692.914                    20920700.965
 123939906.604 7  96576649.11944  23584972.188                    23584985.492
 121995035.671 7  95061136.52844  23214888.617                    23214900.273
 122093937.383 7  95138179.76544  23233700.016                    23233708.023
 108171108.502 8  84289209.09146  20584278.633                    20584287.172
 118708871.780 7  92500442.198 6  22589556.695                    22589566.957
 112063162.724 8  87321991.43246  21324904.813                    21324912.516
 11  8 10 20 54 30.0000000  0  8G24G17G04G26G11G08G07G28
 117679800.972 7  91698540.29344  22393682.500                    22393692.492
 109916709.879 8  85649520.281 7  20916458.117                    20916466.387
 123826971.865 7  96488648.28943  23563481.039                    23563494.441
 122045170.062 7  95100202.22244  23224429.781                    23224441.055
 122183912.465 7  95208290.21044  23250821.555                    23250829.711
 108230182.993 8  84335241.13146  20595520.016                    20595529.109
 118808383.281 7  92577983.508 6  22608493.156                    22608503.766
 112046866.924 8  87309293.41846  21321803.906                    21321811.617
 11  8 10 20 55  0.0000000  0  8G24G17G04G26G11G08G07G28
 117732656.416 7  91739726.35545  22403740.766                    22403750.578
 109894797.879 8  85632446.019 7  20912288.266                    20912296.633
 123714100.844 7  96400697.16043  23542001.875                    23542015.266
 122095721.409 7  95139592.83444  23234048.641                    23234060.215
 122274204.221 7  95278647.37044  23268003.883                    23268011.793
 108289802.826 8  84381698.10846  20606865.359                    20606874.070
 118908178.928 7  92655746.236 7  22627483.766                    22627494.156
 112030662.160 8  87296666.34046  21318720.242                    21318727.617
 11  8 10 20 55 30.0000000  0  8G24G17G04G26G11G08G07G28
 117786019.282 8  91781307.81445  22413895.477                    22413905.203
 109873226.676 8  85615637.313 7  20908183.578                    20908191.703
 123601296.175 7  96312797.67844  23520535.133                    23520549.090
 122146687.109 7  95179306.31144  23243747.586                    23243758.605
 122364810.171 7  95349249.37743  23285244.867                    23285253.496
 108349966.981 8  84428579.23446  20618314.172                    20618323.148
 119008256.537 7  92733728.668 7  22646528.156                    22646538.457
 112014549.475 8  87284111.01446  21315654.281                    21315661.742
 11  8 10 20 56  0.0000000  0  8G24G17G04G26G11G08G07G28
 117839887.767 7  91823283.25545  22424146.320                    22424156.434
 109851995.416 8  85599093.487 7  20904143.383                    20904151.676
 123488561.000 7  96224952.38144  23499082.406                    23499096.273
 122198064.487 7  95219340.56544  23253523.961                    23253535.391
 122455727.513 7  95420094.02544  23302546.523                    23302554.410
 108410674.115 8  84475883.45246  20629866.375                    20629875.488
 119108614.188 7  92811929.316 7  22665625.211                    22665635.934
 111998530.045 8  87271628.35746  21312605.750                    21312613.090
 11  8 10 20 56 30.0000000  0  8G24G17G04G26G11G08G07G28
 117894260.084 7  91865651.28744  22434493.016                    22434502.723
 109831102.948 8  85582813.670 7  20900167.711                    20900175.711
 123375897.699 6  96137163.07443  23477642.813                    23477656.570
 122249850.309 7  95259693.10044  23263378.781                    23263389.551
 122546953.673 7  95491179.31544  23319906.273                    23319914.414
 108471922.413 8  84523609.35046  20641521.625                    20641530.754
 119209249.158 7  92890346.045 7  22684775.578                    22684785.957
 111982604.805 8  87259219.08146  21309575.430                    21309582.898
 11  8 10 20 57  0.0000000  0  8G24G17G04G26G11G08G07G28
 117949134.722 7  91908410.73744  22444935.227                    22444944.715
 109810548.925 8  85566797.571 7  20896256.344                    20896264.813
 123263309.603 6  96049432.37143  23456218.016                    23456231.695
 122302042.042 7  95300361.93744  23273311.039                    23273321.582
 122638486.108 7  95562503.26244  23337323.984                    23337332.559
 108533711.013 8  84571756.26746  20653279.570                    20653289.063
 119310159.234 7  92968977.153 7  22703978.313                    22703988.996
 111966775.151 8  87246884.28446  21306563.117                    21306570.250
 11  8 10 20 57 30.0000000  0  8G24G17G04G26G11G08G07G28
 118004509.936 7  91951560.25544  22455472.477                    22455482.527
 109790332.410 8  85551044.476 8  20892409.102                    20892417.699
 123150799.450 6  95961762.42244  23434807.414                    23434821.672
 122354636.757 7  95341344.76544  23283319.156                    23283329.805
 122730322.350 7  95634063.92344  23354800.469                    23354808.734
 108596038.458 8  84620323.05946  20665140.242                    20665149.273
 119411342.026 7  93047820.764 6  22723232.617                    22723243.242
 111951041.806 8  87234624.53446  21303568.898                    21303576.465
 11  8 10 20 58  0.0000000  0  8G24G17G04G26G11G08G07G28
 118060383.994 7  91995098.47844  22466105.320                    22466115.094
 109770452.340 8  85535553.534 8  20888625.969                    20888634.402
 123038369.970 6  95874155.30144  23413412.703                    23413426.555
 122407631.608 7  95382639.38444  23293403.719                    23293414.465
 122822459.291 6  95705858.89744  23372333.422                    23372341.754
 108658903.125 8  84669308.46746  20677102.766                    20677111.758
 119512795.241 7  93126875.081 6  22742538.938                    22742549.355
 111935405.860 8  87222440.68746  21300593.516                    21300601.023
 11  8 10 20 58 30.0000000  0  8G24G17G04G26G11G08G07G28
 118116754.709 7  92039023.71844  22476832.445                    22476842.410
 109750907.973 8  85520324.188 7  20884906.844                    20884914.789
 122926023.882 6  95786613.15843  23392034.172                    23392047.574
 122461023.365 7  95424243.27744  23303564.289                    23303574.445
 122914894.268 7  95777886.12543  23389922.992                    23389931.559
 108722303.282 8  84718711.14246  20689167.547                    20689176.746
 119614516.475 7  93206138.249 6  22761895.750                    22761906.336
 111919867.885 8  87210333.17846  21297636.984                    21297644.406
 11  8 10 20 59  0.0000000  0  8G24G17G04G26G11G08G07G28
 118173620.062 7  92083334.38544  22487653.391                    22487663.117
 109731698.009 8  85505355.407 7  20881251.531                    20881259.625
 122813763.911 6  95699138.13744  23370671.945                    23370684.723
 122514809.048 7  95466154.15544  23313799.852                    23313809.758
 123007624.608 6  95850143.50044  23407568.797                    23407577.781
 108786237.090 8  84768529.65246  20701333.922                    20701343.156
 119716503.047 7  93285608.173 6  22781303.195                    22781314.176
 111904428.882 8  87198302.78646  21294699.078                    21294706.477
 11  8 10 20 59 30.0000000  0  8G24G17G04G26G11G08G07G28
 118230978.797 7  92128029.48944  22498568.477                    22498578.363
 109712822.092 8  85490646.927 8  20877659.242                    20877667.820
 122701593.190 6  95611732.63744  23349325.641                    23349339.043
 122568986.192 7  95508370.03544  23324109.578                    23324119.211
 123100648.027 6  95922629.26343  23425270.625                    23425279.293
 108850703.920 8  84818763.50746  20713601.359                    20713610.824
 119818752.691 7  93365283.104 6  22800760.648                    22800771.359
 111889090.538 8  87186350.83446  21291780.289                    21291787.699
 11  8 10 21  0  0.0000000  0  8G24G17G04G26G11G08G07G28
 118288829.080 7  92173107.63744  22509576.820                    22509586.539
 109694279.365 8  85476198.074 7  20874130.719                    20874139.164
 122589514.551 6  95524398.90144  23327998.055                    23328011.262
 122623551.667 7  95550888.52044  23334492.656                    23334502.906
 123193961.725 6  95995341.19443  23443027.539                    23443036.816
 108915701.812 8  84869411.17246  20725970.422                    20725979.754
 119921262.872 7  93445161.040 6  22820267.734                    22820278.426
 111873853.641 7  87174477.93046  21288880.602                    21288887.805
 11  8 10 21  0 30.0000000  0  8G24G17G04G26G11G08G07G28
 118347168.833 7  92218567.17644  22520679.000                    22520688.195
 109676069.018 8  85462008.215 7  20870665.477                    20870673.668
 122477530.737 7  95437139.03243  23306688.352                    23306700.742
 122678502.626 7  95593707.36944  23344949.477                    23344960.094
 123287563.091 6  96068277.26643  23460839.336                    23460848.387
 108981229.008 8  84920471.28146  20738439.695                    20738449.512
 120024031.661 7  93525240.479 6  22839824.180                    22839835.313
 111858719.347 8  87162684.97446  21286000.672                    21286008.258
 11  8 10 21  1  0.0000000  0  8G24G17G04G26G11G08G07G28
 118405995.963 7  92264406.50745  22531873.195                    22531882.660
 109658189.269 8  85448075.973 8  20867262.914                    20867271.160
 122365644.666 7  95349955.33044  23285396.461                    23285409.199
 122733835.765 7  95636824.04144  23355478.758                    23355489.211
 123381449.254 6  96141435.26043  23478705.461                    23478714.266
 109047283.878 8  84971942.56446  20751009.633                    20751018.852
 120127056.144 7  93605519.186 6  22859429.703                    22859440.129
 111843688.304 8  87150972.47646  21283140.313                    21283148.055
 11  8 10 21  1 30.0000000  0  8G24G17G04G26G11G08G07G28
 118465308.971 7  92310624.45544  22543159.898                    22543169.582
 109640640.172 8  85434401.379 7  20863923.477                    20863931.473
 122253859.289 7  95262850.06944  23264124.484                    23264136.766
 122789548.449 7  95680236.45744  23366080.406                    23366090.949
 123475617.833 6  96214813.32943  23496624.961                    23496634.129
 109113865.117 8  85023824.00946  20763679.531                    20763688.977
 120230333.983 7  93685995.306 6  22879082.070                    22879093.230
 111828761.997 7  87139341.59046  21280299.914                    21280307.586
 11  8 10 21  2  0.0000000  0  8G24G17G04G26G11G08G07G28
 118525105.998 7  92357219.54244  22554538.969                    22554549.203
 109623420.391 8  85420983.397 7  20860646.492                    20860654.820
 122142177.353 7  95175825.39844  23242871.984                    23242884.070
 122845637.807 7  95723942.39344  23376754.086                    23376764.523
 123570066.061 6  96288409.29843  23514597.992                    23514607.086
 109180970.915 8  85076114.21046  20776449.367                    20776458.688
 120333863.118 7  93766667.223 6  22898783.672                    22898794.395
 111813941.757 8  87127793.34646  21277479.891                    21277487.297
 11  8 10 21  2 30.0000000  0  8G24G17G04G26G11G08G07G28
 118585384.919 7  92404190.13244  22566009.891                    22566019.344
 109606529.164 8  85407821.419 8  20857432.352                    20857440.883
 122030601.767 7  95088883.59344  23221639.969                    23221651.891
 122902100.517 7  95767939.25844  23387498.422                    23387509.367
 123664791.412 6  96362221.23343  23532624.070                    23532632.383
 109248599.591 8  85128811.83546  20789318.875                    20789327.906
 120437640.730 7  93847532.754 6  22918531.648                    22918542.863
 111799228.072 8  87116328.13946  21274679.836                    21274686.875
